<?xml version="1.0" encoding="UTF-8" standalone="no" ?>
<gpx xmlns="http://www.topografix.com/GPX/1/1" xmlns:xsi="http://www.w3.org/2001/XMLSchema-instance" xsi:schemaLocation="http://www.topografix.com/GPX/1/1 http://www.topografix.com/GPX/1/1/gpx.xsd" version="1.1" creator="VisuGPX - https://www.visugpx.com">
  <metadata>
    <name>Dolomites - Jour 1</name>
    <desc><![CDATA[La première journée, de Serrière en Chautagne jusqu\'au camping de Jungfrau]]></desc>
  </metadata>
  <trk>
    <name><![CDATA[Jour 1 - 27/07/2012]]></name>
    <trkseg>
      <trkpt lat="45.8812" lon="5.84337">
        <ele>240.95</ele>
        <time>2012-07-27T07:02:34Z</time>
      </trkpt>
      <trkpt lat="45.8812" lon="5.84337">
        <ele>244.31</ele>
        <time>2012-07-27T07:02:47Z</time>
      </trkpt>
      <trkpt lat="45.8812" lon="5.84337">
        <ele>242.87</ele>
        <time>2012-07-27T07:02:49Z</time>
      </trkpt>
      <trkpt lat="45.8812" lon="5.84337">
        <ele>242.87</ele>
        <time>2012-07-27T07:02:54Z</time>
      </trkpt>
      <trkpt lat="45.88119" lon="5.84338">
        <ele>243.83</ele>
        <time>2012-07-27T07:03:13Z</time>
      </trkpt>
      <trkpt lat="45.8812" lon="5.84338">
        <ele>244.31</ele>
        <time>2012-07-27T07:03:39Z</time>
      </trkpt>
      <trkpt lat="45.88119" lon="5.84339">
        <ele>245.75</ele>
        <time>2012-07-27T07:05:01Z</time>
      </trkpt>
      <trkpt lat="45.8812" lon="5.84339">
        <ele>245.75</ele>
        <time>2012-07-27T07:05:28Z</time>
      </trkpt>
      <trkpt lat="45.88119" lon="5.84337">
        <ele>247.68</ele>
        <time>2012-07-27T07:07:54Z</time>
      </trkpt>
      <trkpt lat="45.88118" lon="5.8434">
        <ele>248.64</ele>
        <time>2012-07-27T07:10:18Z</time>
      </trkpt>
      <trkpt lat="45.88117" lon="5.8434">
        <ele>253.93</ele>
        <time>2012-07-27T07:16:24Z</time>
      </trkpt>
      <trkpt lat="45.88116" lon="5.84339">
        <ele>256.33</ele>
        <time>2012-07-27T07:19:19Z</time>
      </trkpt>
      <trkpt lat="45.88115" lon="5.84337">
        <ele>257.29</ele>
        <time>2012-07-27T07:20:58Z</time>
      </trkpt>
      <trkpt lat="45.88114" lon="5.84338">
        <ele>259.69</ele>
        <time>2012-07-27T07:21:55Z</time>
      </trkpt>
      <trkpt lat="45.88113" lon="5.84339">
        <ele>258.73</ele>
        <time>2012-07-27T07:24:39Z</time>
      </trkpt>
      <trkpt lat="45.88107" lon="5.84338">
        <ele>236.14</ele>
        <time>2012-07-27T07:25:30Z</time>
      </trkpt>
      <trkpt lat="45.8818" lon="5.84313">
        <ele>237.1</ele>
        <time>2012-07-27T07:25:40Z</time>
      </trkpt>
      <trkpt lat="45.88227" lon="5.84326">
        <ele>239.02</ele>
        <time>2012-07-27T07:25:46Z</time>
      </trkpt>
      <trkpt lat="45.88537" lon="5.84306">
        <ele>240.95</ele>
        <time>2012-07-27T07:26:12Z</time>
      </trkpt>
      <trkpt lat="45.88896" lon="5.84329">
        <ele>247.2</ele>
        <time>2012-07-27T07:26:42Z</time>
      </trkpt>
      <trkpt lat="45.88907" lon="5.8433">
        <ele>243.83</ele>
        <time>2012-07-27T07:26:43Z</time>
      </trkpt>
      <trkpt lat="45.89005" lon="5.84298">
        <ele>243.83</ele>
        <time>2012-07-27T07:26:51Z</time>
      </trkpt>
      <trkpt lat="45.89167" lon="5.84342">
        <ele>243.35</ele>
        <time>2012-07-27T07:27:04Z</time>
      </trkpt>
      <trkpt lat="45.89351" lon="5.8429">
        <ele>245.75</ele>
        <time>2012-07-27T07:27:17Z</time>
      </trkpt>
      <trkpt lat="45.89966" lon="5.84117">
        <ele>246.72</ele>
        <time>2012-07-27T07:27:52Z</time>
      </trkpt>
      <trkpt lat="45.90418" lon="5.83992">
        <ele>246.72</ele>
        <time>2012-07-27T07:28:16Z</time>
      </trkpt>
      <trkpt lat="45.9075" lon="5.83962">
        <ele>262.1</ele>
        <time>2012-07-27T07:28:34Z</time>
      </trkpt>
      <trkpt lat="45.90865" lon="5.83953">
        <ele>262.58</ele>
        <time>2012-07-27T07:28:40Z</time>
      </trkpt>
      <trkpt lat="45.91013" lon="5.8397">
        <ele>273.15</ele>
        <time>2012-07-27T07:28:48Z</time>
      </trkpt>
      <trkpt lat="45.91122" lon="5.83982">
        <ele>276.04</ele>
        <time>2012-07-27T07:28:54Z</time>
      </trkpt>
      <trkpt lat="45.91216" lon="5.8394">
        <ele>283.25</ele>
        <time>2012-07-27T07:29:00Z</time>
      </trkpt>
      <trkpt lat="45.91252" lon="5.8394">
        <ele>284.21</ele>
        <time>2012-07-27T07:29:02Z</time>
      </trkpt>
      <trkpt lat="45.91455" lon="5.83952">
        <ele>283.73</ele>
        <time>2012-07-27T07:29:13Z</time>
      </trkpt>
      <trkpt lat="45.91849" lon="5.83877">
        <ele>276.52</ele>
        <time>2012-07-27T07:29:34Z</time>
      </trkpt>
      <trkpt lat="45.91918" lon="5.8384">
        <ele>276.04</ele>
        <time>2012-07-27T07:29:38Z</time>
      </trkpt>
      <trkpt lat="45.92247" lon="5.83757">
        <ele>280.36</ele>
        <time>2012-07-27T07:29:56Z</time>
      </trkpt>
      <trkpt lat="45.92288" lon="5.83713">
        <ele>281.8</ele>
        <time>2012-07-27T07:29:59Z</time>
      </trkpt>
      <trkpt lat="45.92309" lon="5.83643">
        <ele>285.17</ele>
        <time>2012-07-27T07:30:02Z</time>
      </trkpt>
      <trkpt lat="45.92335" lon="5.83532">
        <ele>283.73</ele>
        <time>2012-07-27T07:30:07Z</time>
      </trkpt>
      <trkpt lat="45.924" lon="5.8348">
        <ele>287.09</ele>
        <time>2012-07-27T07:30:12Z</time>
      </trkpt>
      <trkpt lat="45.92573" lon="5.83417">
        <ele>285.65</ele>
        <time>2012-07-27T07:30:30Z</time>
      </trkpt>
      <trkpt lat="45.92688" lon="5.83427">
        <ele>288.05</ele>
        <time>2012-07-27T07:30:40Z</time>
      </trkpt>
      <trkpt lat="45.92707" lon="5.83421">
        <ele>288.05</ele>
        <time>2012-07-27T07:30:42Z</time>
      </trkpt>
      <trkpt lat="45.92739" lon="5.83377">
        <ele>290.46</ele>
        <time>2012-07-27T07:30:46Z</time>
      </trkpt>
      <trkpt lat="45.92819" lon="5.83201">
        <ele>291.42</ele>
        <time>2012-07-27T07:31:02Z</time>
      </trkpt>
      <trkpt lat="45.92876" lon="5.8311">
        <ele>293.34</ele>
        <time>2012-07-27T07:31:09Z</time>
      </trkpt>
      <trkpt lat="45.93078" lon="5.82971">
        <ele>293.82</ele>
        <time>2012-07-27T07:31:24Z</time>
      </trkpt>
      <trkpt lat="45.93118" lon="5.82944">
        <ele>290.46</ele>
        <time>2012-07-27T07:31:27Z</time>
      </trkpt>
      <trkpt lat="45.93152" lon="5.82931">
        <ele>288.05</ele>
        <time>2012-07-27T07:31:30Z</time>
      </trkpt>
      <trkpt lat="45.93172" lon="5.82942">
        <ele>287.09</ele>
        <time>2012-07-27T07:31:32Z</time>
      </trkpt>
      <trkpt lat="45.9319" lon="5.82974">
        <ele>287.57</ele>
        <time>2012-07-27T07:31:34Z</time>
      </trkpt>
      <trkpt lat="45.93202" lon="5.83018">
        <ele>286.13</ele>
        <time>2012-07-27T07:31:36Z</time>
      </trkpt>
      <trkpt lat="45.93221" lon="5.83086">
        <ele>280.84</ele>
        <time>2012-07-27T07:31:40Z</time>
      </trkpt>
      <trkpt lat="45.93311" lon="5.83142">
        <ele>276.04</ele>
        <time>2012-07-27T07:31:51Z</time>
      </trkpt>
      <trkpt lat="45.93315" lon="5.83152">
        <ele>273.63</ele>
        <time>2012-07-27T07:31:53Z</time>
      </trkpt>
      <trkpt lat="45.93317" lon="5.83166">
        <ele>270.75</ele>
        <time>2012-07-27T07:31:55Z</time>
      </trkpt>
      <trkpt lat="45.93199" lon="5.83291">
        <ele>270.75</ele>
        <time>2012-07-27T07:31:56Z</time>
      </trkpt>
      <trkpt lat="45.93189" lon="5.83337">
        <ele>271.23</ele>
        <time>2012-07-27T07:31:58Z</time>
      </trkpt>
      <trkpt lat="45.93187" lon="5.83462">
        <ele>266.42</ele>
        <time>2012-07-27T07:32:03Z</time>
      </trkpt>
      <trkpt lat="45.93201" lon="5.83604">
        <ele>257.77</ele>
        <time>2012-07-27T07:32:10Z</time>
      </trkpt>
      <trkpt lat="45.93306" lon="5.83674">
        <ele>257.77</ele>
        <time>2012-07-27T07:32:19Z</time>
      </trkpt>
      <trkpt lat="45.93319" lon="5.83678">
        <ele>256.81</ele>
        <time>2012-07-27T07:32:20Z</time>
      </trkpt>
      <trkpt lat="45.93686" lon="5.83649">
        <ele>258.73</ele>
        <time>2012-07-27T07:32:44Z</time>
      </trkpt>
      <trkpt lat="45.93997" lon="5.83617">
        <ele>255.37</ele>
        <time>2012-07-27T07:33:04Z</time>
      </trkpt>
      <trkpt lat="45.94202" lon="5.83636">
        <ele>255.37</ele>
        <time>2012-07-27T07:33:17Z</time>
      </trkpt>
      <trkpt lat="45.94368" lon="5.83691">
        <ele>259.69</ele>
        <time>2012-07-27T07:33:27Z</time>
      </trkpt>
      <trkpt lat="45.94848" lon="5.83979">
        <ele>257.29</ele>
        <time>2012-07-27T07:33:54Z</time>
      </trkpt>
      <trkpt lat="45.94906" lon="5.83982">
        <ele>255.85</ele>
        <time>2012-07-27T07:33:57Z</time>
      </trkpt>
      <trkpt lat="45.95194" lon="5.83875">
        <ele>253.44</ele>
        <time>2012-07-27T07:34:17Z</time>
      </trkpt>
      <trkpt lat="45.95365" lon="5.83775">
        <ele>250.08</ele>
        <time>2012-07-27T07:34:35Z</time>
      </trkpt>
      <trkpt lat="45.95456" lon="5.83768">
        <ele>252.96</ele>
        <time>2012-07-27T07:34:45Z</time>
      </trkpt>
      <trkpt lat="45.95646" lon="5.83686">
        <ele>254.41</ele>
        <time>2012-07-27T07:35:00Z</time>
      </trkpt>
      <trkpt lat="45.95796" lon="5.83643">
        <ele>254.89</ele>
        <time>2012-07-27T07:35:12Z</time>
      </trkpt>
      <trkpt lat="45.96" lon="5.83661">
        <ele>260.65</ele>
        <time>2012-07-27T07:35:34Z</time>
      </trkpt>
      <trkpt lat="45.96388" lon="5.83703">
        <ele>259.21</ele>
        <time>2012-07-27T07:36:43Z</time>
      </trkpt>
      <trkpt lat="45.96367" lon="5.83722">
        <ele>259.21</ele>
        <time>2012-07-27T07:40:02Z</time>
      </trkpt>
      <trkpt lat="45.96373" lon="5.83744">
        <ele>258.73</ele>
        <time>2012-07-27T07:42:14Z</time>
      </trkpt>
      <trkpt lat="45.96396" lon="5.83726">
        <ele>258.73</ele>
        <time>2012-07-27T07:42:25Z</time>
      </trkpt>
      <trkpt lat="45.96389" lon="5.83693">
        <ele>260.17</ele>
        <time>2012-07-27T07:42:32Z</time>
      </trkpt>
      <trkpt lat="45.96383" lon="5.83679">
        <ele>259.69</ele>
        <time>2012-07-27T07:42:59Z</time>
      </trkpt>
      <trkpt lat="45.96026" lon="5.83661">
        <ele>261.14</ele>
        <time>2012-07-27T07:43:39Z</time>
      </trkpt>
      <trkpt lat="45.96024" lon="5.83681">
        <ele>262.1</ele>
        <time>2012-07-27T07:43:42Z</time>
      </trkpt>
      <trkpt lat="45.9605" lon="5.83726">
        <ele>265.94</ele>
        <time>2012-07-27T07:43:46Z</time>
      </trkpt>
      <trkpt lat="45.96133" lon="5.83854">
        <ele>265.94</ele>
        <time>2012-07-27T07:43:58Z</time>
      </trkpt>
      <trkpt lat="45.96161" lon="5.83956">
        <ele>264.98</ele>
        <time>2012-07-27T07:44:07Z</time>
      </trkpt>
      <trkpt lat="45.9633" lon="5.84127">
        <ele>274.11</ele>
        <time>2012-07-27T07:44:25Z</time>
      </trkpt>
      <trkpt lat="45.9643" lon="5.84288">
        <ele>287.09</ele>
        <time>2012-07-27T07:44:36Z</time>
      </trkpt>
      <trkpt lat="45.96518" lon="5.84403">
        <ele>296.22</ele>
        <time>2012-07-27T07:44:44Z</time>
      </trkpt>
      <trkpt lat="45.96637" lon="5.84559">
        <ele>305.84</ele>
        <time>2012-07-27T07:44:54Z</time>
      </trkpt>
      <trkpt lat="45.96678" lon="5.84633">
        <ele>311.12</ele>
        <time>2012-07-27T07:44:58Z</time>
      </trkpt>
      <trkpt lat="45.96715" lon="5.84686">
        <ele>314.49</ele>
        <time>2012-07-27T07:45:01Z</time>
      </trkpt>
      <trkpt lat="45.96756" lon="5.84729">
        <ele>315.93</ele>
        <time>2012-07-27T07:45:04Z</time>
      </trkpt>
      <trkpt lat="45.96802" lon="5.8474">
        <ele>318.33</ele>
        <time>2012-07-27T07:45:07Z</time>
      </trkpt>
      <trkpt lat="45.9683" lon="5.84746">
        <ele>318.81</ele>
        <time>2012-07-27T07:45:09Z</time>
      </trkpt>
      <trkpt lat="45.96894" lon="5.84805">
        <ele>322.18</ele>
        <time>2012-07-27T07:45:14Z</time>
      </trkpt>
      <trkpt lat="45.96993" lon="5.84825">
        <ele>327.95</ele>
        <time>2012-07-27T07:45:20Z</time>
      </trkpt>
      <trkpt lat="45.97057" lon="5.84865">
        <ele>333.23</ele>
        <time>2012-07-27T07:45:24Z</time>
      </trkpt>
      <trkpt lat="45.97174" lon="5.84946">
        <ele>338.04</ele>
        <time>2012-07-27T07:45:31Z</time>
      </trkpt>
      <trkpt lat="45.97368" lon="5.84993">
        <ele>350.54</ele>
        <time>2012-07-27T07:45:42Z</time>
      </trkpt>
      <trkpt lat="45.97447" lon="5.85002">
        <ele>351.02</ele>
        <time>2012-07-27T07:45:47Z</time>
      </trkpt>
      <trkpt lat="45.9756" lon="5.8507">
        <ele>361.59</ele>
        <time>2012-07-27T07:45:54Z</time>
      </trkpt>
      <trkpt lat="45.97641" lon="5.8512">
        <ele>362.55</ele>
        <time>2012-07-27T07:46:00Z</time>
      </trkpt>
      <trkpt lat="45.9771" lon="5.85257">
        <ele>369.76</ele>
        <time>2012-07-27T07:46:08Z</time>
      </trkpt>
      <trkpt lat="45.97723" lon="5.85347">
        <ele>371.21</ele>
        <time>2012-07-27T07:46:13Z</time>
      </trkpt>
      <trkpt lat="45.97698" lon="5.85471">
        <ele>379.86</ele>
        <time>2012-07-27T07:46:19Z</time>
      </trkpt>
      <trkpt lat="45.97642" lon="5.85601">
        <ele>384.18</ele>
        <time>2012-07-27T07:46:28Z</time>
      </trkpt>
      <trkpt lat="45.97644" lon="5.85685">
        <ele>385.63</ele>
        <time>2012-07-27T07:46:34Z</time>
      </trkpt>
      <trkpt lat="45.97634" lon="5.85728">
        <ele>385.15</ele>
        <time>2012-07-27T07:46:37Z</time>
      </trkpt>
      <trkpt lat="45.97651" lon="5.85856">
        <ele>381.3</ele>
        <time>2012-07-27T07:46:46Z</time>
      </trkpt>
      <trkpt lat="45.97688" lon="5.85854">
        <ele>382.74</ele>
        <time>2012-07-27T07:46:51Z</time>
      </trkpt>
      <trkpt lat="45.97713" lon="5.85735">
        <ele>387.55</ele>
        <time>2012-07-27T07:46:59Z</time>
      </trkpt>
      <trkpt lat="45.97771" lon="5.85677">
        <ele>395.72</ele>
        <time>2012-07-27T07:47:04Z</time>
      </trkpt>
      <trkpt lat="45.97787" lon="5.85665">
        <ele>396.2</ele>
        <time>2012-07-27T07:47:05Z</time>
      </trkpt>
      <trkpt lat="45.97856" lon="5.8562">
        <ele>397.64</ele>
        <time>2012-07-27T07:47:10Z</time>
      </trkpt>
      <trkpt lat="45.97948" lon="5.85636">
        <ele>404.85</ele>
        <time>2012-07-27T07:47:16Z</time>
      </trkpt>
      <trkpt lat="45.98042" lon="5.85658">
        <ele>406.77</ele>
        <time>2012-07-27T07:47:23Z</time>
      </trkpt>
      <trkpt lat="45.98086" lon="5.85693">
        <ele>410.62</ele>
        <time>2012-07-27T07:47:27Z</time>
      </trkpt>
      <trkpt lat="45.98136" lon="5.85748">
        <ele>411.58</ele>
        <time>2012-07-27T07:47:33Z</time>
      </trkpt>
      <trkpt lat="45.98149" lon="5.85879">
        <ele>417.35</ele>
        <time>2012-07-27T07:47:43Z</time>
      </trkpt>
      <trkpt lat="45.982" lon="5.85979">
        <ele>422.16</ele>
        <time>2012-07-27T07:47:51Z</time>
      </trkpt>
      <trkpt lat="45.98267" lon="5.86208">
        <ele>431.29</ele>
        <time>2012-07-27T07:48:06Z</time>
      </trkpt>
      <trkpt lat="45.98327" lon="5.86298">
        <ele>434.65</ele>
        <time>2012-07-27T07:48:14Z</time>
      </trkpt>
      <trkpt lat="45.98337" lon="5.86346">
        <ele>436.1</ele>
        <time>2012-07-27T07:48:18Z</time>
      </trkpt>
      <trkpt lat="45.98268" lon="5.86484">
        <ele>445.23</ele>
        <time>2012-07-27T07:48:26Z</time>
      </trkpt>
      <trkpt lat="45.9822" lon="5.86575">
        <ele>446.19</ele>
        <time>2012-07-27T07:48:32Z</time>
      </trkpt>
      <trkpt lat="45.98204" lon="5.86586">
        <ele>446.19</ele>
        <time>2012-07-27T07:48:34Z</time>
      </trkpt>
      <trkpt lat="45.98182" lon="5.86568">
        <ele>449.07</ele>
        <time>2012-07-27T07:48:37Z</time>
      </trkpt>
      <trkpt lat="45.9818" lon="5.86513">
        <ele>454.84</ele>
        <time>2012-07-27T07:48:40Z</time>
      </trkpt>
      <trkpt lat="45.98183" lon="5.8649">
        <ele>456.28</ele>
        <time>2012-07-27T07:48:41Z</time>
      </trkpt>
      <trkpt lat="45.98185" lon="5.86417">
        <ele>454.84</ele>
        <time>2012-07-27T07:48:46Z</time>
      </trkpt>
      <trkpt lat="45.98138" lon="5.86338">
        <ele>461.57</ele>
        <time>2012-07-27T07:48:55Z</time>
      </trkpt>
      <trkpt lat="45.98118" lon="5.86292">
        <ele>462.05</ele>
        <time>2012-07-27T07:48:59Z</time>
      </trkpt>
      <trkpt lat="45.9809" lon="5.86292">
        <ele>464.45</ele>
        <time>2012-07-27T07:49:03Z</time>
      </trkpt>
      <trkpt lat="45.98092" lon="5.86346">
        <ele>467.82</ele>
        <time>2012-07-27T07:49:08Z</time>
      </trkpt>
      <trkpt lat="45.98112" lon="5.86451">
        <ele>472.14</ele>
        <time>2012-07-27T07:49:15Z</time>
      </trkpt>
      <trkpt lat="45.98049" lon="5.86584">
        <ele>480.32</ele>
        <time>2012-07-27T07:49:24Z</time>
      </trkpt>
      <trkpt lat="45.98016" lon="5.8671">
        <ele>483.68</ele>
        <time>2012-07-27T07:49:31Z</time>
      </trkpt>
      <trkpt lat="45.97924" lon="5.86847">
        <ele>491.85</ele>
        <time>2012-07-27T07:49:39Z</time>
      </trkpt>
      <trkpt lat="45.97882" lon="5.86908">
        <ele>492.81</ele>
        <time>2012-07-27T07:49:43Z</time>
      </trkpt>
      <trkpt lat="45.97785" lon="5.86974">
        <ele>497.14</ele>
        <time>2012-07-27T07:49:51Z</time>
      </trkpt>
      <trkpt lat="45.97759" lon="5.87046">
        <ele>501.95</ele>
        <time>2012-07-27T07:49:55Z</time>
      </trkpt>
      <trkpt lat="45.97715" lon="5.87186">
        <ele>506.27</ele>
        <time>2012-07-27T07:50:03Z</time>
      </trkpt>
      <trkpt lat="45.97713" lon="5.87234">
        <ele>507.23</ele>
        <time>2012-07-27T07:50:06Z</time>
      </trkpt>
      <trkpt lat="45.97765" lon="5.87318">
        <ele>512.52</ele>
        <time>2012-07-27T07:50:12Z</time>
      </trkpt>
      <trkpt lat="45.97808" lon="5.87452">
        <ele>519.73</ele>
        <time>2012-07-27T07:50:19Z</time>
      </trkpt>
      <trkpt lat="45.97874" lon="5.8755">
        <ele>525.02</ele>
        <time>2012-07-27T07:50:25Z</time>
      </trkpt>
      <trkpt lat="45.97927" lon="5.87638">
        <ele>526.94</ele>
        <time>2012-07-27T07:50:31Z</time>
      </trkpt>
      <trkpt lat="45.97931" lon="5.87757">
        <ele>532.71</ele>
        <time>2012-07-27T07:50:37Z</time>
      </trkpt>
      <trkpt lat="45.97963" lon="5.87836">
        <ele>535.59</ele>
        <time>2012-07-27T07:50:42Z</time>
      </trkpt>
      <trkpt lat="45.98002" lon="5.8809">
        <ele>547.61</ele>
        <time>2012-07-27T07:50:55Z</time>
      </trkpt>
      <trkpt lat="45.98012" lon="5.88162">
        <ele>548.09</ele>
        <time>2012-07-27T07:50:59Z</time>
      </trkpt>
      <trkpt lat="45.97987" lon="5.88217">
        <ele>552.41</ele>
        <time>2012-07-27T07:51:03Z</time>
      </trkpt>
      <trkpt lat="45.97898" lon="5.88256">
        <ele>557.7</ele>
        <time>2012-07-27T07:51:10Z</time>
      </trkpt>
      <trkpt lat="45.97755" lon="5.88383">
        <ele>563.95</ele>
        <time>2012-07-27T07:51:21Z</time>
      </trkpt>
      <trkpt lat="45.97699" lon="5.88468">
        <ele>566.35</ele>
        <time>2012-07-27T07:51:26Z</time>
      </trkpt>
      <trkpt lat="45.97642" lon="5.88517">
        <ele>565.87</ele>
        <time>2012-07-27T07:51:31Z</time>
      </trkpt>
      <trkpt lat="45.97611" lon="5.88525">
        <ele>565.39</ele>
        <time>2012-07-27T07:51:34Z</time>
      </trkpt>
      <trkpt lat="45.97588" lon="5.88569">
        <ele>568.28</ele>
        <time>2012-07-27T07:51:37Z</time>
      </trkpt>
      <trkpt lat="45.97555" lon="5.8867">
        <ele>566.83</ele>
        <time>2012-07-27T07:51:46Z</time>
      </trkpt>
      <trkpt lat="45.97601" lon="5.88681">
        <ele>574.04</ele>
        <time>2012-07-27T07:51:55Z</time>
      </trkpt>
      <trkpt lat="45.97752" lon="5.88638">
        <ele>579.33</ele>
        <time>2012-07-27T07:52:02Z</time>
      </trkpt>
      <trkpt lat="45.9779" lon="5.88606">
        <ele>581.25</ele>
        <time>2012-07-27T07:52:06Z</time>
      </trkpt>
      <trkpt lat="45.97913" lon="5.88667">
        <ele>593.27</ele>
        <time>2012-07-27T07:52:15Z</time>
      </trkpt>
      <trkpt lat="45.97979" lon="5.88703">
        <ele>593.75</ele>
        <time>2012-07-27T07:52:20Z</time>
      </trkpt>
      <trkpt lat="45.97997" lon="5.88738">
        <ele>596.64</ele>
        <time>2012-07-27T07:52:23Z</time>
      </trkpt>
      <trkpt lat="45.97906" lon="5.88985">
        <ele>609.13</ele>
        <time>2012-07-27T07:52:41Z</time>
      </trkpt>
      <trkpt lat="45.97822" lon="5.8921">
        <ele>615.86</ele>
        <time>2012-07-27T07:52:53Z</time>
      </trkpt>
      <trkpt lat="45.97842" lon="5.89491">
        <ele>628.36</ele>
        <time>2012-07-27T07:53:06Z</time>
      </trkpt>
      <trkpt lat="45.97794" lon="5.89993">
        <ele>644.22</ele>
        <time>2012-07-27T07:53:27Z</time>
      </trkpt>
      <trkpt lat="45.97763" lon="5.90279">
        <ele>649.51</ele>
        <time>2012-07-27T07:53:41Z</time>
      </trkpt>
      <trkpt lat="45.97726" lon="5.90317">
        <ele>651.43</ele>
        <time>2012-07-27T07:53:45Z</time>
      </trkpt>
      <trkpt lat="45.97625" lon="5.90367">
        <ele>650.95</ele>
        <time>2012-07-27T07:53:52Z</time>
      </trkpt>
      <trkpt lat="45.97534" lon="5.90394">
        <ele>647.59</ele>
        <time>2012-07-27T07:53:59Z</time>
      </trkpt>
      <trkpt lat="45.97516" lon="5.90433">
        <ele>648.07</ele>
        <time>2012-07-27T07:54:02Z</time>
      </trkpt>
      <trkpt lat="45.97514" lon="5.9049">
        <ele>648.55</ele>
        <time>2012-07-27T07:54:05Z</time>
      </trkpt>
      <trkpt lat="45.97495" lon="5.90556">
        <ele>647.1</ele>
        <time>2012-07-27T07:54:09Z</time>
      </trkpt>
      <trkpt lat="45.97426" lon="5.906">
        <ele>648.55</ele>
        <time>2012-07-27T07:54:15Z</time>
      </trkpt>
      <trkpt lat="45.97246" lon="5.90644">
        <ele>636.53</ele>
        <time>2012-07-27T07:54:46Z</time>
      </trkpt>
      <trkpt lat="45.97207" lon="5.90768">
        <ele>638.93</ele>
        <time>2012-07-27T07:55:01Z</time>
      </trkpt>
      <trkpt lat="45.97206" lon="5.90886">
        <ele>643.26</ele>
        <time>2012-07-27T07:55:14Z</time>
      </trkpt>
      <trkpt lat="45.97205" lon="5.90897">
        <ele>643.26</ele>
        <time>2012-07-27T07:55:15Z</time>
      </trkpt>
      <trkpt lat="45.97207" lon="5.90965">
        <ele>641.82</ele>
        <time>2012-07-27T07:55:21Z</time>
      </trkpt>
      <trkpt lat="45.97377" lon="5.9101">
        <ele>646.14</ele>
        <time>2012-07-27T07:55:35Z</time>
      </trkpt>
      <trkpt lat="45.97497" lon="5.91028">
        <ele>647.1</ele>
        <time>2012-07-27T07:55:43Z</time>
      </trkpt>
      <trkpt lat="45.97567" lon="5.91014">
        <ele>648.07</ele>
        <time>2012-07-27T07:55:48Z</time>
      </trkpt>
      <trkpt lat="45.97658" lon="5.91045">
        <ele>648.07</ele>
        <time>2012-07-27T07:55:54Z</time>
      </trkpt>
      <trkpt lat="45.97806" lon="5.91149">
        <ele>646.62</ele>
        <time>2012-07-27T07:56:04Z</time>
      </trkpt>
      <trkpt lat="45.97858" lon="5.91206">
        <ele>643.26</ele>
        <time>2012-07-27T07:56:09Z</time>
      </trkpt>
      <trkpt lat="45.97899" lon="5.91223">
        <ele>641.82</ele>
        <time>2012-07-27T07:56:12Z</time>
      </trkpt>
      <trkpt lat="45.98005" lon="5.91231">
        <ele>636.05</ele>
        <time>2012-07-27T07:56:18Z</time>
      </trkpt>
      <trkpt lat="45.98075" lon="5.91242">
        <ele>628.36</ele>
        <time>2012-07-27T07:56:23Z</time>
      </trkpt>
      <trkpt lat="45.98102" lon="5.91294">
        <ele>625.47</ele>
        <time>2012-07-27T07:56:27Z</time>
      </trkpt>
      <trkpt lat="45.98111" lon="5.91359">
        <ele>621.63</ele>
        <time>2012-07-27T07:56:31Z</time>
      </trkpt>
      <trkpt lat="45.98135" lon="5.91398">
        <ele>615.38</ele>
        <time>2012-07-27T07:56:41Z</time>
      </trkpt>
      <trkpt lat="45.98197" lon="5.91385">
        <ele>616.82</ele>
        <time>2012-07-27T07:56:49Z</time>
      </trkpt>
      <trkpt lat="45.98336" lon="5.91469">
        <ele>618.26</ele>
        <time>2012-07-27T07:56:59Z</time>
      </trkpt>
      <trkpt lat="45.98501" lon="5.91543">
        <ele>616.82</ele>
        <time>2012-07-27T07:57:08Z</time>
      </trkpt>
      <trkpt lat="45.98636" lon="5.91611">
        <ele>612.5</ele>
        <time>2012-07-27T07:57:15Z</time>
      </trkpt>
      <trkpt lat="45.98751" lon="5.91659">
        <ele>610.57</ele>
        <time>2012-07-27T07:57:21Z</time>
      </trkpt>
      <trkpt lat="45.98917" lon="5.91656">
        <ele>610.09</ele>
        <time>2012-07-27T07:57:30Z</time>
      </trkpt>
      <trkpt lat="45.9897" lon="5.91687">
        <ele>610.57</ele>
        <time>2012-07-27T07:57:34Z</time>
      </trkpt>
      <trkpt lat="45.99022" lon="5.91778">
        <ele>606.73</ele>
        <time>2012-07-27T07:57:39Z</time>
      </trkpt>
      <trkpt lat="45.99061" lon="5.9188">
        <ele>602.88</ele>
        <time>2012-07-27T07:57:44Z</time>
      </trkpt>
      <trkpt lat="45.99096" lon="5.91923">
        <ele>601.92</ele>
        <time>2012-07-27T07:57:47Z</time>
      </trkpt>
      <trkpt lat="45.99692" lon="5.92283">
        <ele>577.41</ele>
        <time>2012-07-27T07:58:20Z</time>
      </trkpt>
      <trkpt lat="45.99826" lon="5.92373">
        <ele>562.99</ele>
        <time>2012-07-27T07:58:28Z</time>
      </trkpt>
      <trkpt lat="45.9993" lon="5.92389">
        <ele>552.9</ele>
        <time>2012-07-27T07:58:35Z</time>
      </trkpt>
      <trkpt lat="45.9995" lon="5.92417">
        <ele>550.49</ele>
        <time>2012-07-27T07:58:37Z</time>
      </trkpt>
      <trkpt lat="45.99964" lon="5.92483">
        <ele>549.53</ele>
        <time>2012-07-27T07:58:40Z</time>
      </trkpt>
      <trkpt lat="45.99983" lon="5.92583">
        <ele>538.48</ele>
        <time>2012-07-27T07:58:45Z</time>
      </trkpt>
      <trkpt lat="46.00005" lon="5.92609">
        <ele>535.59</ele>
        <time>2012-07-27T07:58:48Z</time>
      </trkpt>
      <trkpt lat="46.00022" lon="5.92606">
        <ele>535.59</ele>
        <time>2012-07-27T07:58:50Z</time>
      </trkpt>
      <trkpt lat="46.00095" lon="5.92574">
        <ele>527.42</ele>
        <time>2012-07-27T07:58:55Z</time>
      </trkpt>
      <trkpt lat="46.00167" lon="5.92482">
        <ele>523.09</ele>
        <time>2012-07-27T07:59:00Z</time>
      </trkpt>
      <trkpt lat="46.0035" lon="5.92375">
        <ele>508.67</ele>
        <time>2012-07-27T07:59:10Z</time>
      </trkpt>
      <trkpt lat="46.00404" lon="5.92313">
        <ele>504.83</ele>
        <time>2012-07-27T07:59:14Z</time>
      </trkpt>
      <trkpt lat="46.00459" lon="5.92239">
        <ele>494.26</ele>
        <time>2012-07-27T07:59:19Z</time>
      </trkpt>
      <trkpt lat="46.00506" lon="5.92232">
        <ele>492.33</ele>
        <time>2012-07-27T07:59:22Z</time>
      </trkpt>
      <trkpt lat="46.00572" lon="5.92248">
        <ele>484.16</ele>
        <time>2012-07-27T07:59:27Z</time>
      </trkpt>
      <trkpt lat="46.00594" lon="5.92233">
        <ele>482.24</ele>
        <time>2012-07-27T07:59:29Z</time>
      </trkpt>
      <trkpt lat="46.00665" lon="5.92098">
        <ele>475.99</ele>
        <time>2012-07-27T07:59:36Z</time>
      </trkpt>
      <trkpt lat="46.00706" lon="5.92008">
        <ele>467.82</ele>
        <time>2012-07-27T07:59:41Z</time>
      </trkpt>
      <trkpt lat="46.00779" lon="5.91943">
        <ele>461.57</ele>
        <time>2012-07-27T07:59:47Z</time>
      </trkpt>
      <trkpt lat="46.00822" lon="5.91831">
        <ele>452.92</ele>
        <time>2012-07-27T07:59:54Z</time>
      </trkpt>
      <trkpt lat="46.00923" lon="5.91835">
        <ele>448.11</ele>
        <time>2012-07-27T08:00:01Z</time>
      </trkpt>
      <trkpt lat="46.01087" lon="5.91878">
        <ele>433.21</ele>
        <time>2012-07-27T08:00:11Z</time>
      </trkpt>
      <trkpt lat="46.01268" lon="5.91815">
        <ele>419.75</ele>
        <time>2012-07-27T08:00:22Z</time>
      </trkpt>
      <trkpt lat="46.01371" lon="5.91725">
        <ele>403.89</ele>
        <time>2012-07-27T08:00:31Z</time>
      </trkpt>
      <trkpt lat="46.01408" lon="5.91756">
        <ele>401.01</ele>
        <time>2012-07-27T08:00:35Z</time>
      </trkpt>
      <trkpt lat="46.01441" lon="5.91818">
        <ele>395.24</ele>
        <time>2012-07-27T08:00:40Z</time>
      </trkpt>
      <trkpt lat="46.01529" lon="5.91785">
        <ele>387.07</ele>
        <time>2012-07-27T08:00:49Z</time>
      </trkpt>
      <trkpt lat="46.01541" lon="5.91813">
        <ele>384.66</ele>
        <time>2012-07-27T08:00:52Z</time>
      </trkpt>
      <trkpt lat="46.01527" lon="5.91863">
        <ele>385.15</ele>
        <time>2012-07-27T08:00:55Z</time>
      </trkpt>
      <trkpt lat="46.01513" lon="5.91913">
        <ele>379.86</ele>
        <time>2012-07-27T08:00:59Z</time>
      </trkpt>
      <trkpt lat="46.01536" lon="5.91928">
        <ele>377.94</ele>
        <time>2012-07-27T08:01:03Z</time>
      </trkpt>
      <trkpt lat="46.01612" lon="5.91829">
        <ele>371.21</ele>
        <time>2012-07-27T08:01:10Z</time>
      </trkpt>
      <trkpt lat="46.01622" lon="5.91722">
        <ele>369.28</ele>
        <time>2012-07-27T08:01:15Z</time>
      </trkpt>
      <trkpt lat="46.01613" lon="5.91627">
        <ele>360.15</ele>
        <time>2012-07-27T08:01:21Z</time>
      </trkpt>
      <trkpt lat="46.01632" lon="5.91592">
        <ele>355.83</ele>
        <time>2012-07-27T08:01:25Z</time>
      </trkpt>
      <trkpt lat="46.01694" lon="5.91634">
        <ele>350.54</ele>
        <time>2012-07-27T08:01:30Z</time>
      </trkpt>
      <trkpt lat="46.01741" lon="5.91753">
        <ele>343.33</ele>
        <time>2012-07-27T08:01:36Z</time>
      </trkpt>
      <trkpt lat="46.01773" lon="5.92021">
        <ele>323.14</ele>
        <time>2012-07-27T08:01:50Z</time>
      </trkpt>
      <trkpt lat="46.01739" lon="5.92212">
        <ele>326.02</ele>
        <time>2012-07-27T08:02:02Z</time>
      </trkpt>
      <trkpt lat="46.01654" lon="5.92475">
        <ele>333.23</ele>
        <time>2012-07-27T08:02:14Z</time>
      </trkpt>
      <trkpt lat="46.01632" lon="5.92626">
        <ele>336.6</ele>
        <time>2012-07-27T08:02:20Z</time>
      </trkpt>
      <trkpt lat="46.01625" lon="5.92954">
        <ele>336.12</ele>
        <time>2012-07-27T08:02:32Z</time>
      </trkpt>
      <trkpt lat="46.01644" lon="5.93482">
        <ele>340.92</ele>
        <time>2012-07-27T08:02:51Z</time>
      </trkpt>
      <trkpt lat="46.01641" lon="5.93762">
        <ele>336.6</ele>
        <time>2012-07-27T08:03:01Z</time>
      </trkpt>
      <trkpt lat="46.01684" lon="5.94041">
        <ele>334.68</ele>
        <time>2012-07-27T08:03:11Z</time>
      </trkpt>
      <trkpt lat="46.01677" lon="5.94123">
        <ele>335.64</ele>
        <time>2012-07-27T08:03:14Z</time>
      </trkpt>
      <trkpt lat="46.01634" lon="5.94346">
        <ele>331.31</ele>
        <time>2012-07-27T08:03:27Z</time>
      </trkpt>
      <trkpt lat="46.01636" lon="5.94411">
        <ele>332.75</ele>
        <time>2012-07-27T08:03:32Z</time>
      </trkpt>
      <trkpt lat="46.01592" lon="5.94468">
        <ele>336.12</ele>
        <time>2012-07-27T08:03:37Z</time>
      </trkpt>
      <trkpt lat="46.01288" lon="5.94794">
        <ele>340.44</ele>
        <time>2012-07-27T08:04:01Z</time>
      </trkpt>
      <trkpt lat="46.01137" lon="5.95031">
        <ele>340.44</ele>
        <time>2012-07-27T08:04:17Z</time>
      </trkpt>
      <trkpt lat="46.01011" lon="5.9529">
        <ele>342.85</ele>
        <time>2012-07-27T08:04:30Z</time>
      </trkpt>
      <trkpt lat="46.00968" lon="5.95396">
        <ele>341.41</ele>
        <time>2012-07-27T08:04:35Z</time>
      </trkpt>
      <trkpt lat="46.00848" lon="5.95446">
        <ele>347.65</ele>
        <time>2012-07-27T08:04:42Z</time>
      </trkpt>
      <trkpt lat="46.00732" lon="5.95507">
        <ele>349.1</ele>
        <time>2012-07-27T08:04:49Z</time>
      </trkpt>
      <trkpt lat="46.00637" lon="5.95626">
        <ele>349.58</ele>
        <time>2012-07-27T08:04:57Z</time>
      </trkpt>
      <trkpt lat="46.00608" lon="5.95685">
        <ele>350.54</ele>
        <time>2012-07-27T08:05:00Z</time>
      </trkpt>
      <trkpt lat="46.00559" lon="5.95864">
        <ele>351.5</ele>
        <time>2012-07-27T08:05:08Z</time>
      </trkpt>
      <trkpt lat="46.00531" lon="5.96112">
        <ele>351.98</ele>
        <time>2012-07-27T08:05:19Z</time>
      </trkpt>
      <trkpt lat="46.00557" lon="5.96226">
        <ele>354.86</ele>
        <time>2012-07-27T08:05:24Z</time>
      </trkpt>
      <trkpt lat="46.00593" lon="5.96314">
        <ele>356.79</ele>
        <time>2012-07-27T08:05:28Z</time>
      </trkpt>
      <trkpt lat="46.00702" lon="5.96569">
        <ele>360.63</ele>
        <time>2012-07-27T08:05:39Z</time>
      </trkpt>
      <trkpt lat="46.0075" lon="5.96763">
        <ele>360.15</ele>
        <time>2012-07-27T08:05:46Z</time>
      </trkpt>
      <trkpt lat="46.00807" lon="5.97173">
        <ele>364</ele>
        <time>2012-07-27T08:06:00Z</time>
      </trkpt>
      <trkpt lat="46.00878" lon="5.97642">
        <ele>364.48</ele>
        <time>2012-07-27T08:06:17Z</time>
      </trkpt>
      <trkpt lat="46.01057" lon="5.98464">
        <ele>372.65</ele>
        <time>2012-07-27T08:06:50Z</time>
      </trkpt>
      <trkpt lat="46.01137" lon="5.98913">
        <ele>372.17</ele>
        <time>2012-07-27T08:07:06Z</time>
      </trkpt>
      <trkpt lat="46.01077" lon="5.99208">
        <ele>373.61</ele>
        <time>2012-07-27T08:07:19Z</time>
      </trkpt>
      <trkpt lat="46.01053" lon="5.99262">
        <ele>372.65</ele>
        <time>2012-07-27T08:07:25Z</time>
      </trkpt>
      <trkpt lat="46.01121" lon="5.99301">
        <ele>373.61</ele>
        <time>2012-07-27T08:07:33Z</time>
      </trkpt>
      <trkpt lat="46.01167" lon="5.99457">
        <ele>378.9</ele>
        <time>2012-07-27T08:07:42Z</time>
      </trkpt>
      <trkpt lat="46.01237" lon="5.9953">
        <ele>381.3</ele>
        <time>2012-07-27T08:07:48Z</time>
      </trkpt>
      <trkpt lat="46.0128" lon="5.99622">
        <ele>385.63</ele>
        <time>2012-07-27T08:07:53Z</time>
      </trkpt>
      <trkpt lat="46.01286" lon="5.99641">
        <ele>386.11</ele>
        <time>2012-07-27T08:07:54Z</time>
      </trkpt>
      <trkpt lat="46.0131" lon="5.99708">
        <ele>384.18</ele>
        <time>2012-07-27T08:07:59Z</time>
      </trkpt>
      <trkpt lat="46.01416" lon="5.99853">
        <ele>384.18</ele>
        <time>2012-07-27T08:08:10Z</time>
      </trkpt>
      <trkpt lat="46.01476" lon="5.99956">
        <ele>381.3</ele>
        <time>2012-07-27T08:08:15Z</time>
      </trkpt>
      <trkpt lat="46.01658" lon="6.00299">
        <ele>384.18</ele>
        <time>2012-07-27T08:08:30Z</time>
      </trkpt>
      <trkpt lat="46.01976" lon="6.00876">
        <ele>384.18</ele>
        <time>2012-07-27T08:09:04Z</time>
      </trkpt>
      <trkpt lat="46.02181" lon="6.01133">
        <ele>387.55</ele>
        <time>2012-07-27T08:09:23Z</time>
      </trkpt>
      <trkpt lat="46.02277" lon="6.01277">
        <ele>391.39</ele>
        <time>2012-07-27T08:09:34Z</time>
      </trkpt>
      <trkpt lat="46.02348" lon="6.01342">
        <ele>390.43</ele>
        <time>2012-07-27T08:09:41Z</time>
      </trkpt>
      <trkpt lat="46.02433" lon="6.01517">
        <ele>392.36</ele>
        <time>2012-07-27T08:09:52Z</time>
      </trkpt>
      <trkpt lat="46.02564" lon="6.01647">
        <ele>394.28</ele>
        <time>2012-07-27T08:10:02Z</time>
      </trkpt>
      <trkpt lat="46.0273" lon="6.02059">
        <ele>398.6</ele>
        <time>2012-07-27T08:10:21Z</time>
      </trkpt>
      <trkpt lat="46.03381" lon="6.02579">
        <ele>408.22</ele>
        <time>2012-07-27T08:11:02Z</time>
      </trkpt>
      <trkpt lat="46.03555" lon="6.02718">
        <ele>408.22</ele>
        <time>2012-07-27T08:11:14Z</time>
      </trkpt>
      <trkpt lat="46.0358" lon="6.0277">
        <ele>408.7</ele>
        <time>2012-07-27T08:11:17Z</time>
      </trkpt>
      <trkpt lat="46.03586" lon="6.02837">
        <ele>410.62</ele>
        <time>2012-07-27T08:11:20Z</time>
      </trkpt>
      <trkpt lat="46.03592" lon="6.02907">
        <ele>410.62</ele>
        <time>2012-07-27T08:11:23Z</time>
      </trkpt>
      <trkpt lat="46.03615" lon="6.02971">
        <ele>412.06</ele>
        <time>2012-07-27T08:11:26Z</time>
      </trkpt>
      <trkpt lat="46.03694" lon="6.03141">
        <ele>411.58</ele>
        <time>2012-07-27T08:11:35Z</time>
      </trkpt>
      <trkpt lat="46.03865" lon="6.03248">
        <ele>419.75</ele>
        <time>2012-07-27T08:11:48Z</time>
      </trkpt>
      <trkpt lat="46.03947" lon="6.03259">
        <ele>421.19</ele>
        <time>2012-07-27T08:11:54Z</time>
      </trkpt>
      <trkpt lat="46.03963" lon="6.03278">
        <ele>421.68</ele>
        <time>2012-07-27T08:11:56Z</time>
      </trkpt>
      <trkpt lat="46.03968" lon="6.03336">
        <ele>423.6</ele>
        <time>2012-07-27T08:12:00Z</time>
      </trkpt>
      <trkpt lat="46.03926" lon="6.03367">
        <ele>428.4</ele>
        <time>2012-07-27T08:12:04Z</time>
      </trkpt>
      <trkpt lat="46.03911" lon="6.03363">
        <ele>428.89</ele>
        <time>2012-07-27T08:12:05Z</time>
      </trkpt>
      <trkpt lat="46.0387" lon="6.03362">
        <ele>429.37</ele>
        <time>2012-07-27T08:12:09Z</time>
      </trkpt>
      <trkpt lat="46.03854" lon="6.03393">
        <ele>430.81</ele>
        <time>2012-07-27T08:12:12Z</time>
      </trkpt>
      <trkpt lat="46.03883" lon="6.03598">
        <ele>440.42</ele>
        <time>2012-07-27T08:12:23Z</time>
      </trkpt>
      <trkpt lat="46.03909" lon="6.03745">
        <ele>444.27</ele>
        <time>2012-07-27T08:12:31Z</time>
      </trkpt>
      <trkpt lat="46.03943" lon="6.03767">
        <ele>446.67</ele>
        <time>2012-07-27T08:12:35Z</time>
      </trkpt>
      <trkpt lat="46.03962" lon="6.03753">
        <ele>448.59</ele>
        <time>2012-07-27T08:12:37Z</time>
      </trkpt>
      <trkpt lat="46.03974" lon="6.03724">
        <ele>451.48</ele>
        <time>2012-07-27T08:12:39Z</time>
      </trkpt>
      <trkpt lat="46.03996" lon="6.03648">
        <ele>455.32</ele>
        <time>2012-07-27T08:12:43Z</time>
      </trkpt>
      <trkpt lat="46.04025" lon="6.03554">
        <ele>456.76</ele>
        <time>2012-07-27T08:12:48Z</time>
      </trkpt>
      <trkpt lat="46.04062" lon="6.03525">
        <ele>459.65</ele>
        <time>2012-07-27T08:12:52Z</time>
      </trkpt>
      <trkpt lat="46.04103" lon="6.03552">
        <ele>462.05</ele>
        <time>2012-07-27T08:12:56Z</time>
      </trkpt>
      <trkpt lat="46.04123" lon="6.03668">
        <ele>470.22</ele>
        <time>2012-07-27T08:13:02Z</time>
      </trkpt>
      <trkpt lat="46.04162" lon="6.03878">
        <ele>479.35</ele>
        <time>2012-07-27T08:13:12Z</time>
      </trkpt>
      <trkpt lat="46.04233" lon="6.04019">
        <ele>487.05</ele>
        <time>2012-07-27T08:13:20Z</time>
      </trkpt>
      <trkpt lat="46.04284" lon="6.04061">
        <ele>490.89</ele>
        <time>2012-07-27T08:13:24Z</time>
      </trkpt>
      <trkpt lat="46.04364" lon="6.04125">
        <ele>495.7</ele>
        <time>2012-07-27T08:13:31Z</time>
      </trkpt>
      <trkpt lat="46.04371" lon="6.04139">
        <ele>496.18</ele>
        <time>2012-07-27T08:13:32Z</time>
      </trkpt>
      <trkpt lat="46.04417" lon="6.04379">
        <ele>509.16</ele>
        <time>2012-07-27T08:13:44Z</time>
      </trkpt>
      <trkpt lat="46.04548" lon="6.05181">
        <ele>541.84</ele>
        <time>2012-07-27T08:14:19Z</time>
      </trkpt>
      <trkpt lat="46.0459" lon="6.05434">
        <ele>549.05</ele>
        <time>2012-07-27T08:14:29Z</time>
      </trkpt>
      <trkpt lat="46.04656" lon="6.05735">
        <ele>551.45</ele>
        <time>2012-07-27T08:14:41Z</time>
      </trkpt>
      <trkpt lat="46.04684" lon="6.05865">
        <ele>550.01</ele>
        <time>2012-07-27T08:14:47Z</time>
      </trkpt>
      <trkpt lat="46.04697" lon="6.05968">
        <ele>549.53</ele>
        <time>2012-07-27T08:14:55Z</time>
      </trkpt>
      <trkpt lat="46.04845" lon="6.06603">
        <ele>559.62</ele>
        <time>2012-07-27T08:15:36Z</time>
      </trkpt>
      <trkpt lat="46.04867" lon="6.06691">
        <ele>559.62</ele>
        <time>2012-07-27T08:15:41Z</time>
      </trkpt>
      <trkpt lat="46.04911" lon="6.06753">
        <ele>561.55</ele>
        <time>2012-07-27T08:15:46Z</time>
      </trkpt>
      <trkpt lat="46.04984" lon="6.06803">
        <ele>562.03</ele>
        <time>2012-07-27T08:15:52Z</time>
      </trkpt>
      <trkpt lat="46.05065" lon="6.06935">
        <ele>564.91</ele>
        <time>2012-07-27T08:16:01Z</time>
      </trkpt>
      <trkpt lat="46.05127" lon="6.07041">
        <ele>563.47</ele>
        <time>2012-07-27T08:16:12Z</time>
      </trkpt>
      <trkpt lat="46.05124" lon="6.07088">
        <ele>565.39</ele>
        <time>2012-07-27T08:16:16Z</time>
      </trkpt>
      <trkpt lat="46.05103" lon="6.07122">
        <ele>567.8</ele>
        <time>2012-07-27T08:16:19Z</time>
      </trkpt>
      <trkpt lat="46.0507" lon="6.07166">
        <ele>570.68</ele>
        <time>2012-07-27T08:16:23Z</time>
      </trkpt>
      <trkpt lat="46.05043" lon="6.07206">
        <ele>572.12</ele>
        <time>2012-07-27T08:16:27Z</time>
      </trkpt>
      <trkpt lat="46.05062" lon="6.07372">
        <ele>579.81</ele>
        <time>2012-07-27T08:16:38Z</time>
      </trkpt>
      <trkpt lat="46.05011" lon="6.07446">
        <ele>585.1</ele>
        <time>2012-07-27T08:16:45Z</time>
      </trkpt>
      <trkpt lat="46.04989" lon="6.07488">
        <ele>587.5</ele>
        <time>2012-07-27T08:16:48Z</time>
      </trkpt>
      <trkpt lat="46.04957" lon="6.07589">
        <ele>591.35</ele>
        <time>2012-07-27T08:16:54Z</time>
      </trkpt>
      <trkpt lat="46.04925" lon="6.07617">
        <ele>593.27</ele>
        <time>2012-07-27T08:16:57Z</time>
      </trkpt>
      <trkpt lat="46.04851" lon="6.07632">
        <ele>600</ele>
        <time>2012-07-27T08:17:02Z</time>
      </trkpt>
      <trkpt lat="46.0477" lon="6.0765">
        <ele>604.81</ele>
        <time>2012-07-27T08:17:07Z</time>
      </trkpt>
      <trkpt lat="46.04706" lon="6.07675">
        <ele>608.65</ele>
        <time>2012-07-27T08:17:11Z</time>
      </trkpt>
      <trkpt lat="46.04646" lon="6.07713">
        <ele>612.5</ele>
        <time>2012-07-27T08:17:15Z</time>
      </trkpt>
      <trkpt lat="46.04576" lon="6.0778">
        <ele>616.34</ele>
        <time>2012-07-27T08:17:20Z</time>
      </trkpt>
      <trkpt lat="46.0454" lon="6.07829">
        <ele>619.71</ele>
        <time>2012-07-27T08:17:23Z</time>
      </trkpt>
      <trkpt lat="46.04475" lon="6.07961">
        <ele>623.07</ele>
        <time>2012-07-27T08:17:31Z</time>
      </trkpt>
      <trkpt lat="46.04483" lon="6.08008">
        <ele>625.96</ele>
        <time>2012-07-27T08:17:34Z</time>
      </trkpt>
      <trkpt lat="46.04502" lon="6.0803">
        <ele>627.88</ele>
        <time>2012-07-27T08:17:36Z</time>
      </trkpt>
      <trkpt lat="46.04595" lon="6.08034">
        <ele>637.01</ele>
        <time>2012-07-27T08:17:42Z</time>
      </trkpt>
      <trkpt lat="46.04675" lon="6.0803">
        <ele>644.7</ele>
        <time>2012-07-27T08:17:46Z</time>
      </trkpt>
      <trkpt lat="46.04718" lon="6.08033">
        <ele>648.07</ele>
        <time>2012-07-27T08:17:48Z</time>
      </trkpt>
      <trkpt lat="46.04844" lon="6.08069">
        <ele>649.99</ele>
        <time>2012-07-27T08:17:57Z</time>
      </trkpt>
      <trkpt lat="46.04859" lon="6.08119">
        <ele>653.35</ele>
        <time>2012-07-27T08:18:00Z</time>
      </trkpt>
      <trkpt lat="46.04867" lon="6.08164">
        <ele>653.35</ele>
        <time>2012-07-27T08:18:03Z</time>
      </trkpt>
      <trkpt lat="46.04858" lon="6.08204">
        <ele>654.31</ele>
        <time>2012-07-27T08:18:06Z</time>
      </trkpt>
      <trkpt lat="46.04757" lon="6.0824">
        <ele>665.37</ele>
        <time>2012-07-27T08:18:13Z</time>
      </trkpt>
      <trkpt lat="46.04724" lon="6.08259">
        <ele>668.25</ele>
        <time>2012-07-27T08:18:15Z</time>
      </trkpt>
      <trkpt lat="46.04647" lon="6.08319">
        <ele>673.54</ele>
        <time>2012-07-27T08:18:20Z</time>
      </trkpt>
      <trkpt lat="46.04612" lon="6.0837">
        <ele>674.5</ele>
        <time>2012-07-27T08:18:24Z</time>
      </trkpt>
      <trkpt lat="46.04621" lon="6.08419">
        <ele>678.35</ele>
        <time>2012-07-27T08:18:27Z</time>
      </trkpt>
      <trkpt lat="46.04727" lon="6.08473">
        <ele>685.56</ele>
        <time>2012-07-27T08:18:35Z</time>
      </trkpt>
      <trkpt lat="46.04772" lon="6.08457">
        <ele>688.92</ele>
        <time>2012-07-27T08:18:38Z</time>
      </trkpt>
      <trkpt lat="46.04823" lon="6.08433">
        <ele>689.4</ele>
        <time>2012-07-27T08:18:42Z</time>
      </trkpt>
      <trkpt lat="46.0485" lon="6.08458">
        <ele>691.81</ele>
        <time>2012-07-27T08:18:45Z</time>
      </trkpt>
      <trkpt lat="46.0485" lon="6.08507">
        <ele>694.69</ele>
        <time>2012-07-27T08:18:48Z</time>
      </trkpt>
      <trkpt lat="46.04812" lon="6.08591">
        <ele>701.9</ele>
        <time>2012-07-27T08:18:53Z</time>
      </trkpt>
      <trkpt lat="46.04763" lon="6.08828">
        <ele>714.4</ele>
        <time>2012-07-27T08:19:04Z</time>
      </trkpt>
      <trkpt lat="46.04695" lon="6.08941">
        <ele>720.16</ele>
        <time>2012-07-27T08:19:12Z</time>
      </trkpt>
      <trkpt lat="46.04706" lon="6.09059">
        <ele>722.57</ele>
        <time>2012-07-27T08:19:21Z</time>
      </trkpt>
      <trkpt lat="46.04424" lon="6.09522">
        <ele>736.51</ele>
        <time>2012-07-27T08:19:47Z</time>
      </trkpt>
      <trkpt lat="46.04268" lon="6.09748">
        <ele>739.87</ele>
        <time>2012-07-27T08:19:59Z</time>
      </trkpt>
      <trkpt lat="46.04102" lon="6.09886">
        <ele>743.72</ele>
        <time>2012-07-27T08:20:09Z</time>
      </trkpt>
      <trkpt lat="46.03866" lon="6.10266">
        <ele>750.93</ele>
        <time>2012-07-27T08:20:27Z</time>
      </trkpt>
      <trkpt lat="46.03824" lon="6.10362">
        <ele>753.33</ele>
        <time>2012-07-27T08:20:31Z</time>
      </trkpt>
      <trkpt lat="46.03773" lon="6.1056">
        <ele>754.77</ele>
        <time>2012-07-27T08:20:39Z</time>
      </trkpt>
      <trkpt lat="46.03731" lon="6.10634">
        <ele>756.21</ele>
        <time>2012-07-27T08:20:43Z</time>
      </trkpt>
      <trkpt lat="46.03636" lon="6.10758">
        <ele>757.66</ele>
        <time>2012-07-27T08:20:52Z</time>
      </trkpt>
      <trkpt lat="46.03508" lon="6.10883">
        <ele>758.62</ele>
        <time>2012-07-27T08:21:17Z</time>
      </trkpt>
      <trkpt lat="46.03501" lon="6.11022">
        <ele>761.98</ele>
        <time>2012-07-27T08:21:29Z</time>
      </trkpt>
      <trkpt lat="46.03556" lon="6.11215">
        <ele>765.83</ele>
        <time>2012-07-27T08:21:41Z</time>
      </trkpt>
      <trkpt lat="46.03624" lon="6.11488">
        <ele>767.75</ele>
        <time>2012-07-27T08:21:55Z</time>
      </trkpt>
      <trkpt lat="46.03693" lon="6.11725">
        <ele>767.75</ele>
        <time>2012-07-27T08:22:08Z</time>
      </trkpt>
      <trkpt lat="46.03768" lon="6.11908">
        <ele>769.19</ele>
        <time>2012-07-27T08:22:18Z</time>
      </trkpt>
      <trkpt lat="46.03867" lon="6.12038">
        <ele>771.11</ele>
        <time>2012-07-27T08:22:27Z</time>
      </trkpt>
      <trkpt lat="46.04079" lon="6.12161">
        <ele>773.04</ele>
        <time>2012-07-27T08:22:45Z</time>
      </trkpt>
      <trkpt lat="46.04121" lon="6.12166">
        <ele>775.44</ele>
        <time>2012-07-27T08:22:50Z</time>
      </trkpt>
      <trkpt lat="46.04142" lon="6.12208">
        <ele>778.32</ele>
        <time>2012-07-27T08:22:53Z</time>
      </trkpt>
      <trkpt lat="46.04166" lon="6.12325">
        <ele>784.09</ele>
        <time>2012-07-27T08:22:59Z</time>
      </trkpt>
      <trkpt lat="46.04185" lon="6.12359">
        <ele>785.05</ele>
        <time>2012-07-27T08:23:01Z</time>
      </trkpt>
      <trkpt lat="46.04212" lon="6.12381">
        <ele>786.5</ele>
        <time>2012-07-27T08:23:03Z</time>
      </trkpt>
      <trkpt lat="46.04365" lon="6.12369">
        <ele>795.63</ele>
        <time>2012-07-27T08:23:12Z</time>
      </trkpt>
      <trkpt lat="46.04499" lon="6.12392">
        <ele>799.95</ele>
        <time>2012-07-27T08:23:20Z</time>
      </trkpt>
      <trkpt lat="46.04547" lon="6.12448">
        <ele>804.76</ele>
        <time>2012-07-27T08:23:24Z</time>
      </trkpt>
      <trkpt lat="46.04614" lon="6.12556">
        <ele>809.57</ele>
        <time>2012-07-27T08:23:30Z</time>
      </trkpt>
      <trkpt lat="46.0469" lon="6.12602">
        <ele>813.41</ele>
        <time>2012-07-27T08:23:35Z</time>
      </trkpt>
      <trkpt lat="46.04776" lon="6.12604">
        <ele>818.7</ele>
        <time>2012-07-27T08:23:40Z</time>
      </trkpt>
      <trkpt lat="46.04974" lon="6.1252">
        <ele>828.79</ele>
        <time>2012-07-27T08:23:52Z</time>
      </trkpt>
      <trkpt lat="46.05025" lon="6.12521">
        <ele>831.68</ele>
        <time>2012-07-27T08:23:55Z</time>
      </trkpt>
      <trkpt lat="46.05074" lon="6.12551">
        <ele>835.52</ele>
        <time>2012-07-27T08:23:58Z</time>
      </trkpt>
      <trkpt lat="46.05252" lon="6.12704">
        <ele>837.45</ele>
        <time>2012-07-27T08:24:09Z</time>
      </trkpt>
      <trkpt lat="46.05401" lon="6.12808">
        <ele>843.21</ele>
        <time>2012-07-27T08:24:18Z</time>
      </trkpt>
      <trkpt lat="46.05481" lon="6.12912">
        <ele>849.94</ele>
        <time>2012-07-27T08:24:24Z</time>
      </trkpt>
      <trkpt lat="46.05514" lon="6.12933">
        <ele>851.38</ele>
        <time>2012-07-27T08:24:26Z</time>
      </trkpt>
      <trkpt lat="46.05666" lon="6.12995">
        <ele>853.31</ele>
        <time>2012-07-27T08:24:35Z</time>
      </trkpt>
      <trkpt lat="46.057" lon="6.12991">
        <ele>854.75</ele>
        <time>2012-07-27T08:24:37Z</time>
      </trkpt>
      <trkpt lat="46.05755" lon="6.12989">
        <ele>853.79</ele>
        <time>2012-07-27T08:24:41Z</time>
      </trkpt>
      <trkpt lat="46.05776" lon="6.13009">
        <ele>855.23</ele>
        <time>2012-07-27T08:24:43Z</time>
      </trkpt>
      <trkpt lat="46.05787" lon="6.13046">
        <ele>856.67</ele>
        <time>2012-07-27T08:24:45Z</time>
      </trkpt>
      <trkpt lat="46.05825" lon="6.13134">
        <ele>859.56</ele>
        <time>2012-07-27T08:24:50Z</time>
      </trkpt>
      <trkpt lat="46.05954" lon="6.13165">
        <ele>864.84</ele>
        <time>2012-07-27T08:24:59Z</time>
      </trkpt>
      <trkpt lat="46.06" lon="6.13188">
        <ele>863.88</ele>
        <time>2012-07-27T08:25:02Z</time>
      </trkpt>
      <trkpt lat="46.06047" lon="6.13182">
        <ele>865.32</ele>
        <time>2012-07-27T08:25:05Z</time>
      </trkpt>
      <trkpt lat="46.06103" lon="6.13154">
        <ele>865.32</ele>
        <time>2012-07-27T08:25:09Z</time>
      </trkpt>
      <trkpt lat="46.06156" lon="6.13161">
        <ele>864.36</ele>
        <time>2012-07-27T08:25:13Z</time>
      </trkpt>
      <trkpt lat="46.06179" lon="6.13186">
        <ele>865.32</ele>
        <time>2012-07-27T08:25:15Z</time>
      </trkpt>
      <trkpt lat="46.06207" lon="6.13257">
        <ele>865.32</ele>
        <time>2012-07-27T08:25:19Z</time>
      </trkpt>
      <trkpt lat="46.06248" lon="6.13287">
        <ele>865.8</ele>
        <time>2012-07-27T08:25:22Z</time>
      </trkpt>
      <trkpt lat="46.06299" lon="6.13319">
        <ele>864.36</ele>
        <time>2012-07-27T08:25:26Z</time>
      </trkpt>
      <trkpt lat="46.0635" lon="6.1344">
        <ele>866.77</ele>
        <time>2012-07-27T08:25:33Z</time>
      </trkpt>
      <trkpt lat="46.0641" lon="6.13509">
        <ele>864.84</ele>
        <time>2012-07-27T08:25:38Z</time>
      </trkpt>
      <trkpt lat="46.0642" lon="6.1357">
        <ele>865.8</ele>
        <time>2012-07-27T08:25:41Z</time>
      </trkpt>
      <trkpt lat="46.06407" lon="6.13692">
        <ele>866.77</ele>
        <time>2012-07-27T08:25:47Z</time>
      </trkpt>
      <trkpt lat="46.06438" lon="6.13769">
        <ele>867.25</ele>
        <time>2012-07-27T08:25:51Z</time>
      </trkpt>
      <trkpt lat="46.06502" lon="6.13861">
        <ele>866.29</ele>
        <time>2012-07-27T08:25:57Z</time>
      </trkpt>
      <trkpt lat="46.06547" lon="6.13985">
        <ele>866.77</ele>
        <time>2012-07-27T08:26:04Z</time>
      </trkpt>
      <trkpt lat="46.06599" lon="6.14023">
        <ele>867.25</ele>
        <time>2012-07-27T08:26:08Z</time>
      </trkpt>
      <trkpt lat="46.06681" lon="6.14047">
        <ele>865.8</ele>
        <time>2012-07-27T08:26:14Z</time>
      </trkpt>
      <trkpt lat="46.06704" lon="6.14093">
        <ele>865.8</ele>
        <time>2012-07-27T08:26:17Z</time>
      </trkpt>
      <trkpt lat="46.06711" lon="6.1416">
        <ele>864.84</ele>
        <time>2012-07-27T08:26:22Z</time>
      </trkpt>
      <trkpt lat="46.06746" lon="6.1426">
        <ele>866.29</ele>
        <time>2012-07-27T08:26:29Z</time>
      </trkpt>
      <trkpt lat="46.06846" lon="6.14357">
        <ele>868.21</ele>
        <time>2012-07-27T08:26:37Z</time>
      </trkpt>
      <trkpt lat="46.06952" lon="6.14512">
        <ele>867.73</ele>
        <time>2012-07-27T08:26:50Z</time>
      </trkpt>
      <trkpt lat="46.07064" lon="6.14629">
        <ele>868.69</ele>
        <time>2012-07-27T08:26:59Z</time>
      </trkpt>
      <trkpt lat="46.07113" lon="6.1467">
        <ele>866.77</ele>
        <time>2012-07-27T08:27:03Z</time>
      </trkpt>
      <trkpt lat="46.07157" lon="6.14675">
        <ele>865.8</ele>
        <time>2012-07-27T08:27:06Z</time>
      </trkpt>
      <trkpt lat="46.0722" lon="6.14641">
        <ele>860.04</ele>
        <time>2012-07-27T08:27:11Z</time>
      </trkpt>
      <trkpt lat="46.07249" lon="6.1465">
        <ele>860.52</ele>
        <time>2012-07-27T08:27:13Z</time>
      </trkpt>
      <trkpt lat="46.07314" lon="6.14681">
        <ele>854.75</ele>
        <time>2012-07-27T08:27:18Z</time>
      </trkpt>
      <trkpt lat="46.07428" lon="6.14634">
        <ele>851.87</ele>
        <time>2012-07-27T08:27:27Z</time>
      </trkpt>
      <trkpt lat="46.07504" lon="6.14641">
        <ele>849.94</ele>
        <time>2012-07-27T08:27:33Z</time>
      </trkpt>
      <trkpt lat="46.07512" lon="6.14648">
        <ele>849.46</ele>
        <time>2012-07-27T08:27:34Z</time>
      </trkpt>
      <trkpt lat="46.07515" lon="6.14729">
        <ele>851.38</ele>
        <time>2012-07-27T08:27:39Z</time>
      </trkpt>
      <trkpt lat="46.07498" lon="6.1479">
        <ele>852.35</ele>
        <time>2012-07-27T08:27:42Z</time>
      </trkpt>
      <trkpt lat="46.07474" lon="6.14879">
        <ele>850.9</ele>
        <time>2012-07-27T08:27:47Z</time>
      </trkpt>
      <trkpt lat="46.07496" lon="6.1503">
        <ele>850.9</ele>
        <time>2012-07-27T08:27:54Z</time>
      </trkpt>
      <trkpt lat="46.07492" lon="6.15108">
        <ele>850.9</ele>
        <time>2012-07-27T08:27:58Z</time>
      </trkpt>
      <trkpt lat="46.07517" lon="6.15194">
        <ele>852.35</ele>
        <time>2012-07-27T08:28:02Z</time>
      </trkpt>
      <trkpt lat="46.07603" lon="6.15382">
        <ele>850.9</ele>
        <time>2012-07-27T08:28:11Z</time>
      </trkpt>
      <trkpt lat="46.07643" lon="6.1543">
        <ele>850.42</ele>
        <time>2012-07-27T08:28:14Z</time>
      </trkpt>
      <trkpt lat="46.07707" lon="6.15471">
        <ele>850.42</ele>
        <time>2012-07-27T08:28:18Z</time>
      </trkpt>
      <trkpt lat="46.0795" lon="6.15545">
        <ele>844.66</ele>
        <time>2012-07-27T08:28:34Z</time>
      </trkpt>
      <trkpt lat="46.08018" lon="6.15596">
        <ele>841.29</ele>
        <time>2012-07-27T08:28:40Z</time>
      </trkpt>
      <trkpt lat="46.08134" lon="6.15584">
        <ele>836.96</ele>
        <time>2012-07-27T08:28:49Z</time>
      </trkpt>
      <trkpt lat="46.08203" lon="6.15617">
        <ele>836.48</ele>
        <time>2012-07-27T08:28:55Z</time>
      </trkpt>
      <trkpt lat="46.08262" lon="6.15771">
        <ele>838.41</ele>
        <time>2012-07-27T08:29:05Z</time>
      </trkpt>
      <trkpt lat="46.08371" lon="6.15946">
        <ele>837.45</ele>
        <time>2012-07-27T08:29:18Z</time>
      </trkpt>
      <trkpt lat="46.08405" lon="6.16173">
        <ele>839.37</ele>
        <time>2012-07-27T08:29:29Z</time>
      </trkpt>
      <trkpt lat="46.08389" lon="6.16295">
        <ele>837.45</ele>
        <time>2012-07-27T08:29:35Z</time>
      </trkpt>
      <trkpt lat="46.08429" lon="6.16399">
        <ele>837.93</ele>
        <time>2012-07-27T08:29:41Z</time>
      </trkpt>
      <trkpt lat="46.08435" lon="6.16479">
        <ele>838.89</ele>
        <time>2012-07-27T08:29:45Z</time>
      </trkpt>
      <trkpt lat="46.08439" lon="6.16551">
        <ele>836.96</ele>
        <time>2012-07-27T08:29:49Z</time>
      </trkpt>
      <trkpt lat="46.08479" lon="6.16602">
        <ele>838.41</ele>
        <time>2012-07-27T08:29:53Z</time>
      </trkpt>
      <trkpt lat="46.08536" lon="6.16659">
        <ele>838.41</ele>
        <time>2012-07-27T08:29:58Z</time>
      </trkpt>
      <trkpt lat="46.08581" lon="6.16792">
        <ele>838.89</ele>
        <time>2012-07-27T08:30:05Z</time>
      </trkpt>
      <trkpt lat="46.08589" lon="6.16857">
        <ele>839.85</ele>
        <time>2012-07-27T08:30:08Z</time>
      </trkpt>
      <trkpt lat="46.08594" lon="6.16942">
        <ele>839.37</ele>
        <time>2012-07-27T08:30:12Z</time>
      </trkpt>
      <trkpt lat="46.08639" lon="6.17035">
        <ele>840.33</ele>
        <time>2012-07-27T08:30:17Z</time>
      </trkpt>
      <trkpt lat="46.08667" lon="6.17117">
        <ele>839.37</ele>
        <time>2012-07-27T08:30:21Z</time>
      </trkpt>
      <trkpt lat="46.08699" lon="6.1716">
        <ele>838.89</ele>
        <time>2012-07-27T08:30:24Z</time>
      </trkpt>
      <trkpt lat="46.08762" lon="6.17177">
        <ele>840.81</ele>
        <time>2012-07-27T08:30:28Z</time>
      </trkpt>
      <trkpt lat="46.08841" lon="6.17195">
        <ele>839.37</ele>
        <time>2012-07-27T08:30:33Z</time>
      </trkpt>
      <trkpt lat="46.08914" lon="6.17317">
        <ele>840.33</ele>
        <time>2012-07-27T08:30:40Z</time>
      </trkpt>
      <trkpt lat="46.08988" lon="6.17365">
        <ele>841.29</ele>
        <time>2012-07-27T08:30:45Z</time>
      </trkpt>
      <trkpt lat="46.0907" lon="6.1737">
        <ele>837.93</ele>
        <time>2012-07-27T08:30:51Z</time>
      </trkpt>
      <trkpt lat="46.09093" lon="6.17413">
        <ele>838.89</ele>
        <time>2012-07-27T08:30:54Z</time>
      </trkpt>
      <trkpt lat="46.09084" lon="6.17495">
        <ele>840.33</ele>
        <time>2012-07-27T08:30:58Z</time>
      </trkpt>
      <trkpt lat="46.09078" lon="6.17592">
        <ele>839.37</ele>
        <time>2012-07-27T08:31:03Z</time>
      </trkpt>
      <trkpt lat="46.09108" lon="6.17635">
        <ele>839.85</ele>
        <time>2012-07-27T08:31:06Z</time>
      </trkpt>
      <trkpt lat="46.09155" lon="6.17649">
        <ele>840.81</ele>
        <time>2012-07-27T08:31:09Z</time>
      </trkpt>
      <trkpt lat="46.09267" lon="6.17683">
        <ele>839.85</ele>
        <time>2012-07-27T08:31:16Z</time>
      </trkpt>
      <trkpt lat="46.09329" lon="6.17741">
        <ele>836</ele>
        <time>2012-07-27T08:31:21Z</time>
      </trkpt>
      <trkpt lat="46.0934" lon="6.17789">
        <ele>835.52</ele>
        <time>2012-07-27T08:31:24Z</time>
      </trkpt>
      <trkpt lat="46.09327" lon="6.17846">
        <ele>836.96</ele>
        <time>2012-07-27T08:31:27Z</time>
      </trkpt>
      <trkpt lat="46.09323" lon="6.17946">
        <ele>837.45</ele>
        <time>2012-07-27T08:31:32Z</time>
      </trkpt>
      <trkpt lat="46.09373" lon="6.18104">
        <ele>836.48</ele>
        <time>2012-07-27T08:31:39Z</time>
      </trkpt>
      <trkpt lat="46.09429" lon="6.18227">
        <ele>833.6</ele>
        <time>2012-07-27T08:31:45Z</time>
      </trkpt>
      <trkpt lat="46.09432" lon="6.18251">
        <ele>833.12</ele>
        <time>2012-07-27T08:31:46Z</time>
      </trkpt>
      <trkpt lat="46.09446" lon="6.18336">
        <ele>829.76</ele>
        <time>2012-07-27T08:31:50Z</time>
      </trkpt>
      <trkpt lat="46.09475" lon="6.18385">
        <ele>827.83</ele>
        <time>2012-07-27T08:31:53Z</time>
      </trkpt>
      <trkpt lat="46.09523" lon="6.18446">
        <ele>823.99</ele>
        <time>2012-07-27T08:31:57Z</time>
      </trkpt>
      <trkpt lat="46.09548" lon="6.18486">
        <ele>820.14</ele>
        <time>2012-07-27T08:32:00Z</time>
      </trkpt>
      <trkpt lat="46.09567" lon="6.18608">
        <ele>816.3</ele>
        <time>2012-07-27T08:32:07Z</time>
      </trkpt>
      <trkpt lat="46.09608" lon="6.187">
        <ele>814.37</ele>
        <time>2012-07-27T08:32:12Z</time>
      </trkpt>
      <trkpt lat="46.09697" lon="6.18817">
        <ele>808.13</ele>
        <time>2012-07-27T08:32:19Z</time>
      </trkpt>
      <trkpt lat="46.09759" lon="6.18846">
        <ele>806.2</ele>
        <time>2012-07-27T08:32:23Z</time>
      </trkpt>
      <trkpt lat="46.09863" lon="6.18835">
        <ele>798.51</ele>
        <time>2012-07-27T08:32:30Z</time>
      </trkpt>
      <trkpt lat="46.09894" lon="6.18794">
        <ele>797.55</ele>
        <time>2012-07-27T08:32:33Z</time>
      </trkpt>
      <trkpt lat="46.09917" lon="6.1875">
        <ele>793.71</ele>
        <time>2012-07-27T08:32:36Z</time>
      </trkpt>
      <trkpt lat="46.09976" lon="6.18746">
        <ele>792.74</ele>
        <time>2012-07-27T08:32:41Z</time>
      </trkpt>
      <trkpt lat="46.10006" lon="6.18804">
        <ele>790.34</ele>
        <time>2012-07-27T08:32:45Z</time>
      </trkpt>
      <trkpt lat="46.10001" lon="6.18911">
        <ele>787.46</ele>
        <time>2012-07-27T08:32:51Z</time>
      </trkpt>
      <trkpt lat="46.10026" lon="6.1898">
        <ele>787.94</ele>
        <time>2012-07-27T08:32:55Z</time>
      </trkpt>
      <trkpt lat="46.10122" lon="6.19133">
        <ele>782.65</ele>
        <time>2012-07-27T08:33:04Z</time>
      </trkpt>
      <trkpt lat="46.10184" lon="6.19186">
        <ele>781.21</ele>
        <time>2012-07-27T08:33:08Z</time>
      </trkpt>
      <trkpt lat="46.10279" lon="6.19284">
        <ele>775.92</ele>
        <time>2012-07-27T08:33:14Z</time>
      </trkpt>
      <trkpt lat="46.10343" lon="6.19377">
        <ele>770.15</ele>
        <time>2012-07-27T08:33:19Z</time>
      </trkpt>
      <trkpt lat="46.10433" lon="6.19478">
        <ele>761.02</ele>
        <time>2012-07-27T08:33:26Z</time>
      </trkpt>
      <trkpt lat="46.1046" lon="6.19487">
        <ele>759.58</ele>
        <time>2012-07-27T08:33:28Z</time>
      </trkpt>
      <trkpt lat="46.10505" lon="6.19465">
        <ele>758.62</ele>
        <time>2012-07-27T08:33:31Z</time>
      </trkpt>
      <trkpt lat="46.10581" lon="6.19411">
        <ele>752.37</ele>
        <time>2012-07-27T08:33:37Z</time>
      </trkpt>
      <trkpt lat="46.10625" lon="6.19426">
        <ele>750.93</ele>
        <time>2012-07-27T08:33:41Z</time>
      </trkpt>
      <trkpt lat="46.10643" lon="6.19474">
        <ele>749.97</ele>
        <time>2012-07-27T08:33:45Z</time>
      </trkpt>
      <trkpt lat="46.10635" lon="6.19541">
        <ele>751.41</ele>
        <time>2012-07-27T08:33:49Z</time>
      </trkpt>
      <trkpt lat="46.10652" lon="6.19638">
        <ele>751.41</ele>
        <time>2012-07-27T08:33:54Z</time>
      </trkpt>
      <trkpt lat="46.10685" lon="6.19738">
        <ele>748.04</ele>
        <time>2012-07-27T08:33:59Z</time>
      </trkpt>
      <trkpt lat="46.10713" lon="6.19781">
        <ele>745.16</ele>
        <time>2012-07-27T08:34:02Z</time>
      </trkpt>
      <trkpt lat="46.10753" lon="6.19805">
        <ele>743.72</ele>
        <time>2012-07-27T08:34:05Z</time>
      </trkpt>
      <trkpt lat="46.10855" lon="6.19843">
        <ele>734.58</ele>
        <time>2012-07-27T08:34:13Z</time>
      </trkpt>
      <trkpt lat="46.10895" lon="6.19903">
        <ele>733.14</ele>
        <time>2012-07-27T08:34:18Z</time>
      </trkpt>
      <trkpt lat="46.10919" lon="6.19923">
        <ele>732.18</ele>
        <time>2012-07-27T08:34:20Z</time>
      </trkpt>
      <trkpt lat="46.10969" lon="6.19961">
        <ele>728.34</ele>
        <time>2012-07-27T08:34:24Z</time>
      </trkpt>
      <trkpt lat="46.11084" lon="6.20005">
        <ele>720.65</ele>
        <time>2012-07-27T08:34:33Z</time>
      </trkpt>
      <trkpt lat="46.11126" lon="6.20044">
        <ele>720.16</ele>
        <time>2012-07-27T08:34:37Z</time>
      </trkpt>
      <trkpt lat="46.11306" lon="6.2014">
        <ele>717.28</ele>
        <time>2012-07-27T08:34:49Z</time>
      </trkpt>
      <trkpt lat="46.11489" lon="6.2016">
        <ele>697.09</ele>
        <time>2012-07-27T08:35:01Z</time>
      </trkpt>
      <trkpt lat="46.11622" lon="6.20225">
        <ele>695.65</ele>
        <time>2012-07-27T08:35:10Z</time>
      </trkpt>
      <trkpt lat="46.11773" lon="6.2025">
        <ele>689.4</ele>
        <time>2012-07-27T08:35:20Z</time>
      </trkpt>
      <trkpt lat="46.11853" lon="6.20328">
        <ele>680.75</ele>
        <time>2012-07-27T08:35:26Z</time>
      </trkpt>
      <trkpt lat="46.11866" lon="6.20341">
        <ele>674.5</ele>
        <time>2012-07-27T08:35:27Z</time>
      </trkpt>
      <trkpt lat="46.11904" lon="6.20374">
        <ele>669.22</ele>
        <time>2012-07-27T08:35:30Z</time>
      </trkpt>
      <trkpt lat="46.11917" lon="6.20381">
        <ele>670.66</ele>
        <time>2012-07-27T08:35:31Z</time>
      </trkpt>
      <trkpt lat="46.1193" lon="6.20387">
        <ele>668.73</ele>
        <time>2012-07-27T08:35:32Z</time>
      </trkpt>
      <trkpt lat="46.12023" lon="6.20412">
        <ele>662.01</ele>
        <time>2012-07-27T08:35:39Z</time>
      </trkpt>
      <trkpt lat="46.12057" lon="6.20431">
        <ele>660.08</ele>
        <time>2012-07-27T08:35:42Z</time>
      </trkpt>
      <trkpt lat="46.12159" lon="6.20551">
        <ele>652.87</ele>
        <time>2012-07-27T08:35:53Z</time>
      </trkpt>
      <trkpt lat="46.1225" lon="6.20602">
        <ele>647.1</ele>
        <time>2012-07-27T08:36:01Z</time>
      </trkpt>
      <trkpt lat="46.12325" lon="6.20589">
        <ele>645.18</ele>
        <time>2012-07-27T08:36:09Z</time>
      </trkpt>
      <trkpt lat="46.1237" lon="6.2058">
        <ele>641.34</ele>
        <time>2012-07-27T08:36:22Z</time>
      </trkpt>
      <trkpt lat="46.12367" lon="6.20565">
        <ele>641.34</ele>
        <time>2012-07-27T08:38:21Z</time>
      </trkpt>
      <trkpt lat="46.12347" lon="6.20573">
        <ele>643.26</ele>
        <time>2012-07-27T08:38:24Z</time>
      </trkpt>
      <trkpt lat="46.12316" lon="6.20577">
        <ele>644.22</ele>
        <time>2012-07-27T08:38:34Z</time>
      </trkpt>
      <trkpt lat="46.12313" lon="6.20496">
        <ele>649.03</ele>
        <time>2012-07-27T08:38:41Z</time>
      </trkpt>
      <trkpt lat="46.12333" lon="6.20392">
        <ele>652.87</ele>
        <time>2012-07-27T08:38:48Z</time>
      </trkpt>
      <trkpt lat="46.12403" lon="6.20247">
        <ele>660.08</ele>
        <time>2012-07-27T08:38:58Z</time>
      </trkpt>
      <trkpt lat="46.12404" lon="6.2018">
        <ele>662.97</ele>
        <time>2012-07-27T08:39:02Z</time>
      </trkpt>
      <trkpt lat="46.12379" lon="6.20122">
        <ele>666.33</ele>
        <time>2012-07-27T08:39:07Z</time>
      </trkpt>
      <trkpt lat="46.12388" lon="6.20079">
        <ele>669.7</ele>
        <time>2012-07-27T08:39:10Z</time>
      </trkpt>
      <trkpt lat="46.12402" lon="6.2006">
        <ele>670.66</ele>
        <time>2012-07-27T08:39:12Z</time>
      </trkpt>
      <trkpt lat="46.12442" lon="6.20079">
        <ele>675.94</ele>
        <time>2012-07-27T08:39:17Z</time>
      </trkpt>
      <trkpt lat="46.12454" lon="6.20106">
        <ele>677.87</ele>
        <time>2012-07-27T08:39:19Z</time>
      </trkpt>
      <trkpt lat="46.12491" lon="6.20186">
        <ele>683.15</ele>
        <time>2012-07-27T08:39:24Z</time>
      </trkpt>
      <trkpt lat="46.12524" lon="6.20231">
        <ele>685.56</ele>
        <time>2012-07-27T08:39:27Z</time>
      </trkpt>
      <trkpt lat="46.12581" lon="6.20266">
        <ele>689.4</ele>
        <time>2012-07-27T08:39:32Z</time>
      </trkpt>
      <trkpt lat="46.12648" lon="6.20221">
        <ele>692.29</ele>
        <time>2012-07-27T08:39:39Z</time>
      </trkpt>
      <trkpt lat="46.12649" lon="6.20202">
        <ele>693.25</ele>
        <time>2012-07-27T08:39:41Z</time>
      </trkpt>
      <trkpt lat="46.12624" lon="6.2018">
        <ele>697.09</ele>
        <time>2012-07-27T08:39:44Z</time>
      </trkpt>
      <trkpt lat="46.12613" lon="6.20174">
        <ele>698.05</ele>
        <time>2012-07-27T08:39:45Z</time>
      </trkpt>
      <trkpt lat="46.12544" lon="6.20053">
        <ele>705.26</ele>
        <time>2012-07-27T08:39:54Z</time>
      </trkpt>
      <trkpt lat="46.12561" lon="6.19959">
        <ele>709.59</ele>
        <time>2012-07-27T08:40:01Z</time>
      </trkpt>
      <trkpt lat="46.12603" lon="6.1994">
        <ele>713.44</ele>
        <time>2012-07-27T08:40:08Z</time>
      </trkpt>
      <trkpt lat="46.12622" lon="6.19886">
        <ele>718.24</ele>
        <time>2012-07-27T08:40:12Z</time>
      </trkpt>
      <trkpt lat="46.12629" lon="6.198">
        <ele>722.09</ele>
        <time>2012-07-27T08:40:17Z</time>
      </trkpt>
      <trkpt lat="46.12591" lon="6.19751">
        <ele>727.86</ele>
        <time>2012-07-27T08:40:21Z</time>
      </trkpt>
      <trkpt lat="46.12531" lon="6.19694">
        <ele>732.66</ele>
        <time>2012-07-27T08:40:26Z</time>
      </trkpt>
      <trkpt lat="46.12503" lon="6.19648">
        <ele>735.55</ele>
        <time>2012-07-27T08:40:29Z</time>
      </trkpt>
      <trkpt lat="46.12475" lon="6.19557">
        <ele>741.31</ele>
        <time>2012-07-27T08:40:34Z</time>
      </trkpt>
      <trkpt lat="46.12432" lon="6.19511">
        <ele>746.12</ele>
        <time>2012-07-27T08:40:38Z</time>
      </trkpt>
      <trkpt lat="46.12373" lon="6.19468">
        <ele>749</ele>
        <time>2012-07-27T08:40:44Z</time>
      </trkpt>
      <trkpt lat="46.12381" lon="6.19433">
        <ele>752.37</ele>
        <time>2012-07-27T08:40:48Z</time>
      </trkpt>
      <trkpt lat="46.12406" lon="6.19448">
        <ele>754.29</ele>
        <time>2012-07-27T08:40:51Z</time>
      </trkpt>
      <trkpt lat="46.12428" lon="6.19467">
        <ele>754.77</ele>
        <time>2012-07-27T08:40:54Z</time>
      </trkpt>
      <trkpt lat="46.12443" lon="6.19434">
        <ele>758.62</ele>
        <time>2012-07-27T08:40:58Z</time>
      </trkpt>
      <trkpt lat="46.12346" lon="6.19255">
        <ele>771.6</ele>
        <time>2012-07-27T08:41:12Z</time>
      </trkpt>
      <trkpt lat="46.12332" lon="6.19217">
        <ele>772.08</ele>
        <time>2012-07-27T08:41:15Z</time>
      </trkpt>
      <trkpt lat="46.12289" lon="6.19221">
        <ele>775.92</ele>
        <time>2012-07-27T08:41:19Z</time>
      </trkpt>
      <trkpt lat="46.12235" lon="6.19288">
        <ele>782.65</ele>
        <time>2012-07-27T08:41:24Z</time>
      </trkpt>
      <trkpt lat="46.12184" lon="6.19333">
        <ele>786.02</ele>
        <time>2012-07-27T08:41:29Z</time>
      </trkpt>
      <trkpt lat="46.12152" lon="6.19341">
        <ele>786.98</ele>
        <time>2012-07-27T08:41:32Z</time>
      </trkpt>
      <trkpt lat="46.12134" lon="6.19493">
        <ele>793.71</ele>
        <time>2012-07-27T08:41:41Z</time>
      </trkpt>
      <trkpt lat="46.12116" lon="6.19516">
        <ele>795.15</ele>
        <time>2012-07-27T08:41:44Z</time>
      </trkpt>
      <trkpt lat="46.12094" lon="6.19513">
        <ele>797.55</ele>
        <time>2012-07-27T08:41:46Z</time>
      </trkpt>
      <trkpt lat="46.11988" lon="6.19466">
        <ele>803.32</ele>
        <time>2012-07-27T08:41:54Z</time>
      </trkpt>
      <trkpt lat="46.11941" lon="6.19513">
        <ele>807.64</ele>
        <time>2012-07-27T08:41:58Z</time>
      </trkpt>
      <trkpt lat="46.11879" lon="6.19599">
        <ele>811.01</ele>
        <time>2012-07-27T08:42:04Z</time>
      </trkpt>
      <trkpt lat="46.11809" lon="6.1959">
        <ele>815.82</ele>
        <time>2012-07-27T08:42:09Z</time>
      </trkpt>
      <trkpt lat="46.11686" lon="6.19531">
        <ele>820.14</ele>
        <time>2012-07-27T08:42:18Z</time>
      </trkpt>
      <trkpt lat="46.11577" lon="6.19398">
        <ele>832.64</ele>
        <time>2012-07-27T08:42:28Z</time>
      </trkpt>
      <trkpt lat="46.11477" lon="6.19357">
        <ele>840.33</ele>
        <time>2012-07-27T08:42:35Z</time>
      </trkpt>
      <trkpt lat="46.11429" lon="6.19385">
        <ele>842.25</ele>
        <time>2012-07-27T08:42:40Z</time>
      </trkpt>
      <trkpt lat="46.11412" lon="6.19376">
        <ele>843.69</ele>
        <time>2012-07-27T08:42:43Z</time>
      </trkpt>
      <trkpt lat="46.11443" lon="6.19296">
        <ele>854.27</ele>
        <time>2012-07-27T08:42:51Z</time>
      </trkpt>
      <trkpt lat="46.11454" lon="6.19284">
        <ele>854.27</ele>
        <time>2012-07-27T08:42:52Z</time>
      </trkpt>
      <trkpt lat="46.11574" lon="6.19261">
        <ele>860.04</ele>
        <time>2012-07-27T08:43:01Z</time>
      </trkpt>
      <trkpt lat="46.11567" lon="6.19227">
        <ele>863.88</ele>
        <time>2012-07-27T08:43:05Z</time>
      </trkpt>
      <trkpt lat="46.11559" lon="6.1922">
        <ele>864.84</ele>
        <time>2012-07-27T08:43:06Z</time>
      </trkpt>
      <trkpt lat="46.11429" lon="6.19198">
        <ele>876.86</ele>
        <time>2012-07-27T08:43:15Z</time>
      </trkpt>
      <trkpt lat="46.11354" lon="6.19242">
        <ele>879.74</ele>
        <time>2012-07-27T08:43:21Z</time>
      </trkpt>
      <trkpt lat="46.11329" lon="6.19226">
        <ele>881.19</ele>
        <time>2012-07-27T08:43:24Z</time>
      </trkpt>
      <trkpt lat="46.1133" lon="6.19173">
        <ele>883.11</ele>
        <time>2012-07-27T08:43:28Z</time>
      </trkpt>
      <trkpt lat="46.11489" lon="6.19072">
        <ele>891.28</ele>
        <time>2012-07-27T08:43:42Z</time>
      </trkpt>
      <trkpt lat="46.11578" lon="6.18967">
        <ele>901.37</ele>
        <time>2012-07-27T08:43:50Z</time>
      </trkpt>
      <trkpt lat="46.11679" lon="6.18803">
        <ele>911.95</ele>
        <time>2012-07-27T08:44:01Z</time>
      </trkpt>
      <trkpt lat="46.11683" lon="6.18668">
        <ele>918.68</ele>
        <time>2012-07-27T08:44:08Z</time>
      </trkpt>
      <trkpt lat="46.11624" lon="6.18537">
        <ele>920.12</ele>
        <time>2012-07-27T08:44:16Z</time>
      </trkpt>
      <trkpt lat="46.11631" lon="6.18411">
        <ele>923.48</ele>
        <time>2012-07-27T08:44:23Z</time>
      </trkpt>
      <trkpt lat="46.11628" lon="6.18384">
        <ele>923.96</ele>
        <time>2012-07-27T08:44:25Z</time>
      </trkpt>
      <trkpt lat="46.11598" lon="6.18349">
        <ele>927.81</ele>
        <time>2012-07-27T08:44:29Z</time>
      </trkpt>
      <trkpt lat="46.11567" lon="6.18336">
        <ele>930.69</ele>
        <time>2012-07-27T08:44:33Z</time>
      </trkpt>
      <trkpt lat="46.11565" lon="6.183">
        <ele>933.1</ele>
        <time>2012-07-27T08:44:37Z</time>
      </trkpt>
      <trkpt lat="46.11647" lon="6.18293">
        <ele>938.86</ele>
        <time>2012-07-27T08:44:45Z</time>
      </trkpt>
      <trkpt lat="46.11697" lon="6.18334">
        <ele>944.63</ele>
        <time>2012-07-27T08:44:50Z</time>
      </trkpt>
      <trkpt lat="46.11748" lon="6.18349">
        <ele>949.92</ele>
        <time>2012-07-27T08:44:54Z</time>
      </trkpt>
      <trkpt lat="46.12031" lon="6.18254">
        <ele>975.88</ele>
        <time>2012-07-27T08:45:14Z</time>
      </trkpt>
      <trkpt lat="46.12136" lon="6.18234">
        <ele>980.2</ele>
        <time>2012-07-27T08:45:24Z</time>
      </trkpt>
      <trkpt lat="46.12126" lon="6.18203">
        <ele>989.33</ele>
        <time>2012-07-27T08:45:30Z</time>
      </trkpt>
      <trkpt lat="46.12109" lon="6.18179">
        <ele>993.66</ele>
        <time>2012-07-27T08:45:33Z</time>
      </trkpt>
      <trkpt lat="46.12022" lon="6.18142">
        <ele>1000.39</ele>
        <time>2012-07-27T08:45:38Z</time>
      </trkpt>
      <trkpt lat="46.11968" lon="6.18093">
        <ele>1005.68</ele>
        <time>2012-07-27T08:45:42Z</time>
      </trkpt>
      <trkpt lat="46.1192" lon="6.1795">
        <ele>1016.73</ele>
        <time>2012-07-27T08:45:50Z</time>
      </trkpt>
      <trkpt lat="46.11893" lon="6.17893">
        <ele>1020.1</ele>
        <time>2012-07-27T08:45:54Z</time>
      </trkpt>
      <trkpt lat="46.11855" lon="6.17881">
        <ele>1024.9</ele>
        <time>2012-07-27T08:45:57Z</time>
      </trkpt>
      <trkpt lat="46.11814" lon="6.17897">
        <ele>1029.71</ele>
        <time>2012-07-27T08:46:00Z</time>
      </trkpt>
      <trkpt lat="46.11782" lon="6.17904">
        <ele>1030.67</ele>
        <time>2012-07-27T08:46:03Z</time>
      </trkpt>
      <trkpt lat="46.11748" lon="6.17882">
        <ele>1032.11</ele>
        <time>2012-07-27T08:46:08Z</time>
      </trkpt>
      <trkpt lat="46.11759" lon="6.17866">
        <ele>1035.96</ele>
        <time>2012-07-27T08:46:12Z</time>
      </trkpt>
      <trkpt lat="46.11786" lon="6.17863">
        <ele>1038.84</ele>
        <time>2012-07-27T08:46:15Z</time>
      </trkpt>
      <trkpt lat="46.11829" lon="6.17815">
        <ele>1045.09</ele>
        <time>2012-07-27T08:46:20Z</time>
      </trkpt>
      <trkpt lat="46.11876" lon="6.178">
        <ele>1051.34</ele>
        <time>2012-07-27T08:46:24Z</time>
      </trkpt>
      <trkpt lat="46.11987" lon="6.17866">
        <ele>1063.84</ele>
        <time>2012-07-27T08:46:33Z</time>
      </trkpt>
      <trkpt lat="46.12019" lon="6.17921">
        <ele>1067.2</ele>
        <time>2012-07-27T08:46:38Z</time>
      </trkpt>
      <trkpt lat="46.1204" lon="6.17919">
        <ele>1069.12</ele>
        <time>2012-07-27T08:46:41Z</time>
      </trkpt>
      <trkpt lat="46.12024" lon="6.17836">
        <ele>1076.81</ele>
        <time>2012-07-27T08:46:47Z</time>
      </trkpt>
      <trkpt lat="46.12006" lon="6.17805">
        <ele>1080.18</ele>
        <time>2012-07-27T08:46:49Z</time>
      </trkpt>
      <trkpt lat="46.11975" lon="6.17761">
        <ele>1084.99</ele>
        <time>2012-07-27T08:46:52Z</time>
      </trkpt>
      <trkpt lat="46.11936" lon="6.17717">
        <ele>1086.91</ele>
        <time>2012-07-27T08:46:56Z</time>
      </trkpt>
      <trkpt lat="46.11892" lon="6.17631">
        <ele>1095.56</ele>
        <time>2012-07-27T08:47:03Z</time>
      </trkpt>
      <trkpt lat="46.11848" lon="6.17451">
        <ele>1107.58</ele>
        <time>2012-07-27T08:47:13Z</time>
      </trkpt>
      <trkpt lat="46.11832" lon="6.17413">
        <ele>1108.06</ele>
        <time>2012-07-27T08:47:17Z</time>
      </trkpt>
      <trkpt lat="46.11843" lon="6.17403">
        <ele>1109.98</ele>
        <time>2012-07-27T08:47:20Z</time>
      </trkpt>
      <trkpt lat="46.11872" lon="6.17441">
        <ele>1114.31</ele>
        <time>2012-07-27T08:47:24Z</time>
      </trkpt>
      <trkpt lat="46.11923" lon="6.17487">
        <ele>1120.55</ele>
        <time>2012-07-27T08:47:28Z</time>
      </trkpt>
      <trkpt lat="46.12002" lon="6.17535">
        <ele>1125.84</ele>
        <time>2012-07-27T08:47:34Z</time>
      </trkpt>
      <trkpt lat="46.12048" lon="6.17544">
        <ele>1128.24</ele>
        <time>2012-07-27T08:47:40Z</time>
      </trkpt>
      <trkpt lat="46.12014" lon="6.17514">
        <ele>1135.45</ele>
        <time>2012-07-27T08:47:48Z</time>
      </trkpt>
      <trkpt lat="46.1197" lon="6.17317">
        <ele>1144.59</ele>
        <time>2012-07-27T08:47:57Z</time>
      </trkpt>
      <trkpt lat="46.11969" lon="6.17186">
        <ele>1151.32</ele>
        <time>2012-07-27T08:48:52Z</time>
      </trkpt>
      <trkpt lat="46.12052" lon="6.17185">
        <ele>1156.6</ele>
        <time>2012-07-27T08:49:06Z</time>
      </trkpt>
      <trkpt lat="46.12108" lon="6.17141">
        <ele>1160.93</ele>
        <time>2012-07-27T08:49:14Z</time>
      </trkpt>
      <trkpt lat="46.12201" lon="6.17103">
        <ele>1170.06</ele>
        <time>2012-07-27T08:50:55Z</time>
      </trkpt>
      <trkpt lat="46.12255" lon="6.17055">
        <ele>1173.91</ele>
        <time>2012-07-27T08:51:00Z</time>
      </trkpt>
      <trkpt lat="46.1229" lon="6.17053">
        <ele>1175.35</ele>
        <time>2012-07-27T08:51:03Z</time>
      </trkpt>
      <trkpt lat="46.12463" lon="6.17167">
        <ele>1188.33</ele>
        <time>2012-07-27T08:51:17Z</time>
      </trkpt>
      <trkpt lat="46.12557" lon="6.17241">
        <ele>1192.17</ele>
        <time>2012-07-27T08:51:25Z</time>
      </trkpt>
      <trkpt lat="46.12599" lon="6.17376">
        <ele>1200.34</ele>
        <time>2012-07-27T08:51:34Z</time>
      </trkpt>
      <trkpt lat="46.12631" lon="6.17435">
        <ele>1203.71</ele>
        <time>2012-07-27T08:51:38Z</time>
      </trkpt>
      <trkpt lat="46.12663" lon="6.17493">
        <ele>1205.15</ele>
        <time>2012-07-27T08:51:43Z</time>
      </trkpt>
      <trkpt lat="46.12689" lon="6.17505">
        <ele>1205.63</ele>
        <time>2012-07-27T08:51:55Z</time>
      </trkpt>
      <trkpt lat="46.12649" lon="6.17474">
        <ele>1204.67</ele>
        <time>2012-07-27T08:52:07Z</time>
      </trkpt>
      <trkpt lat="46.12596" lon="6.17369">
        <ele>1199.86</ele>
        <time>2012-07-27T08:52:17Z</time>
      </trkpt>
      <trkpt lat="46.12567" lon="6.17239">
        <ele>1191.69</ele>
        <time>2012-07-27T08:52:31Z</time>
      </trkpt>
      <trkpt lat="46.12632" lon="6.17203">
        <ele>1202.75</ele>
        <time>2012-07-27T08:52:41Z</time>
      </trkpt>
      <trkpt lat="46.12659" lon="6.17181">
        <ele>1206.11</ele>
        <time>2012-07-27T08:52:46Z</time>
      </trkpt>
      <trkpt lat="46.12644" lon="6.17244">
        <ele>1213.32</ele>
        <time>2012-07-27T08:52:54Z</time>
      </trkpt>
      <trkpt lat="46.12639" lon="6.17273">
        <ele>1213.8</ele>
        <time>2012-07-27T08:52:56Z</time>
      </trkpt>
      <trkpt lat="46.12662" lon="6.17343">
        <ele>1216.69</ele>
        <time>2012-07-27T08:53:02Z</time>
      </trkpt>
      <trkpt lat="46.127" lon="6.1738">
        <ele>1222.45</ele>
        <time>2012-07-27T08:53:06Z</time>
      </trkpt>
      <trkpt lat="46.1275" lon="6.17418">
        <ele>1227.26</ele>
        <time>2012-07-27T08:53:11Z</time>
      </trkpt>
      <trkpt lat="46.12812" lon="6.1743">
        <ele>1234.47</ele>
        <time>2012-07-27T08:53:42Z</time>
      </trkpt>
      <trkpt lat="46.12752" lon="6.17418">
        <ele>1228.7</ele>
        <time>2012-07-27T08:53:54Z</time>
      </trkpt>
      <trkpt lat="46.12667" lon="6.17347">
        <ele>1220.05</ele>
        <time>2012-07-27T08:54:04Z</time>
      </trkpt>
      <trkpt lat="46.1264" lon="6.17303">
        <ele>1214.76</ele>
        <time>2012-07-27T08:54:09Z</time>
      </trkpt>
      <trkpt lat="46.12643" lon="6.17253">
        <ele>1214.28</ele>
        <time>2012-07-27T08:54:13Z</time>
      </trkpt>
      <trkpt lat="46.12666" lon="6.17192">
        <ele>1209.48</ele>
        <time>2012-07-27T08:54:20Z</time>
      </trkpt>
      <trkpt lat="46.12655" lon="6.17181">
        <ele>1207.55</ele>
        <time>2012-07-27T08:54:25Z</time>
      </trkpt>
      <trkpt lat="46.12609" lon="6.17227">
        <ele>1202.27</ele>
        <time>2012-07-27T08:54:31Z</time>
      </trkpt>
      <trkpt lat="46.12601" lon="6.17233">
        <ele>1200.82</ele>
        <time>2012-07-27T08:54:32Z</time>
      </trkpt>
      <trkpt lat="46.12561" lon="6.17242">
        <ele>1193.61</ele>
        <time>2012-07-27T08:54:41Z</time>
      </trkpt>
      <trkpt lat="46.12594" lon="6.17366">
        <ele>1204.19</ele>
        <time>2012-07-27T08:54:49Z</time>
      </trkpt>
      <trkpt lat="46.12662" lon="6.17492">
        <ele>1209</ele>
        <time>2012-07-27T08:54:57Z</time>
      </trkpt>
      <trkpt lat="46.12884" lon="6.17536">
        <ele>1224.86</ele>
        <time>2012-07-27T08:55:12Z</time>
      </trkpt>
      <trkpt lat="46.1312" lon="6.17547">
        <ele>1238.8</ele>
        <time>2012-07-27T08:55:27Z</time>
      </trkpt>
      <trkpt lat="46.13285" lon="6.17603">
        <ele>1247.93</ele>
        <time>2012-07-27T08:55:40Z</time>
      </trkpt>
      <trkpt lat="46.13312" lon="6.17659">
        <ele>1255.62</ele>
        <time>2012-07-27T08:55:44Z</time>
      </trkpt>
      <trkpt lat="46.13341" lon="6.17754">
        <ele>1257.54</ele>
        <time>2012-07-27T08:55:49Z</time>
      </trkpt>
      <trkpt lat="46.13346" lon="6.18019">
        <ele>1269.56</ele>
        <time>2012-07-27T08:56:02Z</time>
      </trkpt>
      <trkpt lat="46.13346" lon="6.18128">
        <ele>1271.48</ele>
        <time>2012-07-27T08:56:09Z</time>
      </trkpt>
      <trkpt lat="46.13368" lon="6.18175">
        <ele>1270.52</ele>
        <time>2012-07-27T08:56:13Z</time>
      </trkpt>
      <trkpt lat="46.13429" lon="6.1822">
        <ele>1283.5</ele>
        <time>2012-07-27T09:13:30Z</time>
      </trkpt>
      <trkpt lat="46.13438" lon="6.1824">
        <ele>1284.46</ele>
        <time>2012-07-27T09:13:36Z</time>
      </trkpt>
      <trkpt lat="46.13471" lon="6.1825">
        <ele>1285.42</ele>
        <time>2012-07-27T09:13:41Z</time>
      </trkpt>
      <trkpt lat="46.13525" lon="6.18195">
        <ele>1283.98</ele>
        <time>2012-07-27T09:13:49Z</time>
      </trkpt>
      <trkpt lat="46.13606" lon="6.18158">
        <ele>1282.06</ele>
        <time>2012-07-27T09:13:57Z</time>
      </trkpt>
      <trkpt lat="46.13694" lon="6.18019">
        <ele>1279.65</ele>
        <time>2012-07-27T09:14:06Z</time>
      </trkpt>
      <trkpt lat="46.13736" lon="6.17981">
        <ele>1276.77</ele>
        <time>2012-07-27T09:14:10Z</time>
      </trkpt>
      <trkpt lat="46.13918" lon="6.18023">
        <ele>1275.33</ele>
        <time>2012-07-27T09:14:23Z</time>
      </trkpt>
      <trkpt lat="46.13935" lon="6.18051">
        <ele>1276.77</ele>
        <time>2012-07-27T09:14:26Z</time>
      </trkpt>
      <trkpt lat="46.13936" lon="6.18081">
        <ele>1277.25</ele>
        <time>2012-07-27T09:14:28Z</time>
      </trkpt>
      <trkpt lat="46.13928" lon="6.18126">
        <ele>1275.33</ele>
        <time>2012-07-27T09:14:31Z</time>
      </trkpt>
      <trkpt lat="46.13903" lon="6.18149">
        <ele>1274.85</ele>
        <time>2012-07-27T09:14:34Z</time>
      </trkpt>
      <trkpt lat="46.13866" lon="6.18159">
        <ele>1271.48</ele>
        <time>2012-07-27T09:14:38Z</time>
      </trkpt>
      <trkpt lat="46.13859" lon="6.1818">
        <ele>1270.04</ele>
        <time>2012-07-27T09:14:40Z</time>
      </trkpt>
      <trkpt lat="46.13867" lon="6.18205">
        <ele>1268.12</ele>
        <time>2012-07-27T09:14:42Z</time>
      </trkpt>
      <trkpt lat="46.13889" lon="6.18223">
        <ele>1268.12</ele>
        <time>2012-07-27T09:14:44Z</time>
      </trkpt>
      <trkpt lat="46.13911" lon="6.18248">
        <ele>1266.19</ele>
        <time>2012-07-27T09:14:46Z</time>
      </trkpt>
      <trkpt lat="46.13934" lon="6.18328">
        <ele>1264.27</ele>
        <time>2012-07-27T09:14:50Z</time>
      </trkpt>
      <trkpt lat="46.13946" lon="6.184">
        <ele>1261.39</ele>
        <time>2012-07-27T09:14:53Z</time>
      </trkpt>
      <trkpt lat="46.13965" lon="6.18487">
        <ele>1254.66</ele>
        <time>2012-07-27T09:14:58Z</time>
      </trkpt>
      <trkpt lat="46.13995" lon="6.18506">
        <ele>1251.77</ele>
        <time>2012-07-27T09:15:01Z</time>
      </trkpt>
      <trkpt lat="46.14167" lon="6.18457">
        <ele>1246.97</ele>
        <time>2012-07-27T09:15:12Z</time>
      </trkpt>
      <trkpt lat="46.14207" lon="6.18479">
        <ele>1247.93</ele>
        <time>2012-07-27T09:15:15Z</time>
      </trkpt>
      <trkpt lat="46.14351" lon="6.18587">
        <ele>1244.08</ele>
        <time>2012-07-27T09:15:25Z</time>
      </trkpt>
      <trkpt lat="46.14387" lon="6.18673">
        <ele>1241.68</ele>
        <time>2012-07-27T09:15:30Z</time>
      </trkpt>
      <trkpt lat="46.14441" lon="6.18883">
        <ele>1234.47</ele>
        <time>2012-07-27T09:15:40Z</time>
      </trkpt>
      <trkpt lat="46.14482" lon="6.18946">
        <ele>1230.14</ele>
        <time>2012-07-27T09:15:44Z</time>
      </trkpt>
      <trkpt lat="46.14508" lon="6.18963">
        <ele>1226.78</ele>
        <time>2012-07-27T09:15:46Z</time>
      </trkpt>
      <trkpt lat="46.14585" lon="6.18951">
        <ele>1225.34</ele>
        <time>2012-07-27T09:15:51Z</time>
      </trkpt>
      <trkpt lat="46.14636" lon="6.18943">
        <ele>1221.49</ele>
        <time>2012-07-27T09:15:54Z</time>
      </trkpt>
      <trkpt lat="46.1471" lon="6.18929">
        <ele>1214.28</ele>
        <time>2012-07-27T09:15:59Z</time>
      </trkpt>
      <trkpt lat="46.14736" lon="6.18899">
        <ele>1212.84</ele>
        <time>2012-07-27T09:16:02Z</time>
      </trkpt>
      <trkpt lat="46.14757" lon="6.18866">
        <ele>1209</ele>
        <time>2012-07-27T09:16:06Z</time>
      </trkpt>
      <trkpt lat="46.14784" lon="6.18948">
        <ele>1207.07</ele>
        <time>2012-07-27T09:16:12Z</time>
      </trkpt>
      <trkpt lat="46.14833" lon="6.18994">
        <ele>1205.63</ele>
        <time>2012-07-27T09:16:16Z</time>
      </trkpt>
      <trkpt lat="46.14898" lon="6.19039">
        <ele>1200.82</ele>
        <time>2012-07-27T09:16:20Z</time>
      </trkpt>
      <trkpt lat="46.14961" lon="6.19075">
        <ele>1190.25</ele>
        <time>2012-07-27T09:16:27Z</time>
      </trkpt>
      <trkpt lat="46.14957" lon="6.19096">
        <ele>1188.81</ele>
        <time>2012-07-27T09:16:29Z</time>
      </trkpt>
      <trkpt lat="46.14892" lon="6.19147">
        <ele>1187.37</ele>
        <time>2012-07-27T09:16:35Z</time>
      </trkpt>
      <trkpt lat="46.14809" lon="6.19249">
        <ele>1177.75</ele>
        <time>2012-07-27T09:16:42Z</time>
      </trkpt>
      <trkpt lat="46.14764" lon="6.19274">
        <ele>1171.98</ele>
        <time>2012-07-27T09:16:47Z</time>
      </trkpt>
      <trkpt lat="46.14768" lon="6.19311">
        <ele>1170.54</ele>
        <time>2012-07-27T09:16:51Z</time>
      </trkpt>
      <trkpt lat="46.14815" lon="6.19326">
        <ele>1170.06</ele>
        <time>2012-07-27T09:16:55Z</time>
      </trkpt>
      <trkpt lat="46.1494" lon="6.19385">
        <ele>1162.37</ele>
        <time>2012-07-27T09:17:02Z</time>
      </trkpt>
      <trkpt lat="46.15021" lon="6.19408">
        <ele>1153.24</ele>
        <time>2012-07-27T09:17:07Z</time>
      </trkpt>
      <trkpt lat="46.15254" lon="6.1935">
        <ele>1135.94</ele>
        <time>2012-07-27T09:17:24Z</time>
      </trkpt>
      <trkpt lat="46.15273" lon="6.19296">
        <ele>1131.61</ele>
        <time>2012-07-27T09:17:28Z</time>
      </trkpt>
      <trkpt lat="46.15259" lon="6.19209">
        <ele>1126.32</ele>
        <time>2012-07-27T09:17:36Z</time>
      </trkpt>
      <trkpt lat="46.15279" lon="6.192">
        <ele>1125.36</ele>
        <time>2012-07-27T09:17:39Z</time>
      </trkpt>
      <trkpt lat="46.1532" lon="6.19302">
        <ele>1123.44</ele>
        <time>2012-07-27T09:17:46Z</time>
      </trkpt>
      <trkpt lat="46.15338" lon="6.19392">
        <ele>1117.19</ele>
        <time>2012-07-27T09:17:51Z</time>
      </trkpt>
      <trkpt lat="46.15324" lon="6.19455">
        <ele>1113.34</ele>
        <time>2012-07-27T09:17:55Z</time>
      </trkpt>
      <trkpt lat="46.15285" lon="6.19489">
        <ele>1109.02</ele>
        <time>2012-07-27T09:18:00Z</time>
      </trkpt>
      <trkpt lat="46.15288" lon="6.19517">
        <ele>1107.58</ele>
        <time>2012-07-27T09:18:03Z</time>
      </trkpt>
      <trkpt lat="46.15349" lon="6.1949">
        <ele>1107.1</ele>
        <time>2012-07-27T09:18:09Z</time>
      </trkpt>
      <trkpt lat="46.15406" lon="6.19434">
        <ele>1099.4</ele>
        <time>2012-07-27T09:18:16Z</time>
      </trkpt>
      <trkpt lat="46.15422" lon="6.19444">
        <ele>1098.44</ele>
        <time>2012-07-27T09:18:19Z</time>
      </trkpt>
      <trkpt lat="46.15423" lon="6.19464">
        <ele>1097.96</ele>
        <time>2012-07-27T09:18:21Z</time>
      </trkpt>
      <trkpt lat="46.1539" lon="6.19526">
        <ele>1097</ele>
        <time>2012-07-27T09:18:26Z</time>
      </trkpt>
      <trkpt lat="46.1536" lon="6.1963">
        <ele>1089.79</ele>
        <time>2012-07-27T09:18:32Z</time>
      </trkpt>
      <trkpt lat="46.15288" lon="6.19726">
        <ele>1083.54</ele>
        <time>2012-07-27T09:18:39Z</time>
      </trkpt>
      <trkpt lat="46.15237" lon="6.19878">
        <ele>1073.45</ele>
        <time>2012-07-27T09:18:47Z</time>
      </trkpt>
      <trkpt lat="46.15214" lon="6.19908">
        <ele>1072.01</ele>
        <time>2012-07-27T09:18:49Z</time>
      </trkpt>
      <trkpt lat="46.15188" lon="6.19937">
        <ele>1066.24</ele>
        <time>2012-07-27T09:18:52Z</time>
      </trkpt>
      <trkpt lat="46.15183" lon="6.19946">
        <ele>1065.76</ele>
        <time>2012-07-27T09:18:53Z</time>
      </trkpt>
      <trkpt lat="46.15184" lon="6.19977">
        <ele>1063.84</ele>
        <time>2012-07-27T09:18:56Z</time>
      </trkpt>
      <trkpt lat="46.15199" lon="6.19987">
        <ele>1063.36</ele>
        <time>2012-07-27T09:18:58Z</time>
      </trkpt>
      <trkpt lat="46.15288" lon="6.19979">
        <ele>1058.07</ele>
        <time>2012-07-27T09:19:05Z</time>
      </trkpt>
      <trkpt lat="46.15383" lon="6.20016">
        <ele>1051.34</ele>
        <time>2012-07-27T09:19:12Z</time>
      </trkpt>
      <trkpt lat="46.15428" lon="6.20016">
        <ele>1044.61</ele>
        <time>2012-07-27T09:19:15Z</time>
      </trkpt>
      <trkpt lat="46.15477" lon="6.19988">
        <ele>1039.8</ele>
        <time>2012-07-27T09:19:19Z</time>
      </trkpt>
      <trkpt lat="46.15507" lon="6.1995">
        <ele>1033.55</ele>
        <time>2012-07-27T09:19:23Z</time>
      </trkpt>
      <trkpt lat="46.1552" lon="6.19964">
        <ele>1031.15</ele>
        <time>2012-07-27T09:19:26Z</time>
      </trkpt>
      <trkpt lat="46.15504" lon="6.20006">
        <ele>1032.11</ele>
        <time>2012-07-27T09:19:29Z</time>
      </trkpt>
      <trkpt lat="46.15477" lon="6.2007">
        <ele>1027.31</ele>
        <time>2012-07-27T09:19:33Z</time>
      </trkpt>
      <trkpt lat="46.15429" lon="6.20109">
        <ele>1024.42</ele>
        <time>2012-07-27T09:19:37Z</time>
      </trkpt>
      <trkpt lat="46.15387" lon="6.20161">
        <ele>1016.73</ele>
        <time>2012-07-27T09:19:42Z</time>
      </trkpt>
      <trkpt lat="46.15368" lon="6.20288">
        <ele>1013.85</ele>
        <time>2012-07-27T09:19:49Z</time>
      </trkpt>
      <trkpt lat="46.15335" lon="6.20439">
        <ele>999.91</ele>
        <time>2012-07-27T09:19:58Z</time>
      </trkpt>
      <trkpt lat="46.15348" lon="6.20482">
        <ele>998.47</ele>
        <time>2012-07-27T09:20:01Z</time>
      </trkpt>
      <trkpt lat="46.1537" lon="6.20503">
        <ele>995.1</ele>
        <time>2012-07-27T09:20:03Z</time>
      </trkpt>
      <trkpt lat="46.15402" lon="6.20507">
        <ele>990.78</ele>
        <time>2012-07-27T09:20:06Z</time>
      </trkpt>
      <trkpt lat="46.15435" lon="6.20461">
        <ele>986.93</ele>
        <time>2012-07-27T09:20:10Z</time>
      </trkpt>
      <trkpt lat="46.15478" lon="6.20323">
        <ele>974.43</ele>
        <time>2012-07-27T09:20:20Z</time>
      </trkpt>
      <trkpt lat="46.15503" lon="6.20281">
        <ele>969.15</ele>
        <time>2012-07-27T09:20:23Z</time>
      </trkpt>
      <trkpt lat="46.15589" lon="6.20214">
        <ele>959.05</ele>
        <time>2012-07-27T09:20:30Z</time>
      </trkpt>
      <trkpt lat="46.1564" lon="6.2015">
        <ele>953.28</ele>
        <time>2012-07-27T09:20:34Z</time>
      </trkpt>
      <trkpt lat="46.15685" lon="6.20075">
        <ele>945.59</ele>
        <time>2012-07-27T09:20:39Z</time>
      </trkpt>
      <trkpt lat="46.15727" lon="6.20042">
        <ele>940.79</ele>
        <time>2012-07-27T09:20:43Z</time>
      </trkpt>
      <trkpt lat="46.15758" lon="6.20001">
        <ele>936.46</ele>
        <time>2012-07-27T09:20:46Z</time>
      </trkpt>
      <trkpt lat="46.15787" lon="6.19946">
        <ele>930.69</ele>
        <time>2012-07-27T09:20:50Z</time>
      </trkpt>
      <trkpt lat="46.15844" lon="6.19916">
        <ele>925.41</ele>
        <time>2012-07-27T09:20:54Z</time>
      </trkpt>
      <trkpt lat="46.1595" lon="6.19844">
        <ele>910.51</ele>
        <time>2012-07-27T09:21:02Z</time>
      </trkpt>
      <trkpt lat="46.16015" lon="6.19818">
        <ele>899.45</ele>
        <time>2012-07-27T09:21:10Z</time>
      </trkpt>
      <trkpt lat="46.16014" lon="6.19843">
        <ele>898.01</ele>
        <time>2012-07-27T09:21:14Z</time>
      </trkpt>
      <trkpt lat="46.15961" lon="6.19873">
        <ele>894.64</ele>
        <time>2012-07-27T09:21:21Z</time>
      </trkpt>
      <trkpt lat="46.15904" lon="6.19961">
        <ele>891.28</ele>
        <time>2012-07-27T09:21:28Z</time>
      </trkpt>
      <trkpt lat="46.15863" lon="6.20003">
        <ele>885.51</ele>
        <time>2012-07-27T09:21:33Z</time>
      </trkpt>
      <trkpt lat="46.15848" lon="6.20065">
        <ele>883.59</ele>
        <time>2012-07-27T09:21:37Z</time>
      </trkpt>
      <trkpt lat="46.15759" lon="6.20381">
        <ele>859.56</ele>
        <time>2012-07-27T09:21:53Z</time>
      </trkpt>
      <trkpt lat="46.15724" lon="6.20504">
        <ele>846.1</ele>
        <time>2012-07-27T09:22:00Z</time>
      </trkpt>
      <trkpt lat="46.15708" lon="6.20652">
        <ele>837.93</ele>
        <time>2012-07-27T09:22:06Z</time>
      </trkpt>
      <trkpt lat="46.15704" lon="6.20727">
        <ele>831.68</ele>
        <time>2012-07-27T09:22:09Z</time>
      </trkpt>
      <trkpt lat="46.15701" lon="6.20847">
        <ele>819.18</ele>
        <time>2012-07-27T09:22:14Z</time>
      </trkpt>
      <trkpt lat="46.15667" lon="6.20932">
        <ele>811.97</ele>
        <time>2012-07-27T09:22:18Z</time>
      </trkpt>
      <trkpt lat="46.1563" lon="6.21023">
        <ele>799.47</ele>
        <time>2012-07-27T09:22:25Z</time>
      </trkpt>
      <trkpt lat="46.15672" lon="6.20923">
        <ele>790.82</ele>
        <time>2012-07-27T09:22:36Z</time>
      </trkpt>
      <trkpt lat="46.15737" lon="6.20813">
        <ele>781.69</ele>
        <time>2012-07-27T09:22:43Z</time>
      </trkpt>
      <trkpt lat="46.15762" lon="6.20769">
        <ele>775.92</ele>
        <time>2012-07-27T09:22:46Z</time>
      </trkpt>
      <trkpt lat="46.15967" lon="6.20497">
        <ele>747.08</ele>
        <time>2012-07-27T09:23:08Z</time>
      </trkpt>
      <trkpt lat="46.16003" lon="6.20408">
        <ele>741.31</ele>
        <time>2012-07-27T09:23:13Z</time>
      </trkpt>
      <trkpt lat="46.16019" lon="6.20367">
        <ele>736.51</ele>
        <time>2012-07-27T09:23:16Z</time>
      </trkpt>
      <trkpt lat="46.16039" lon="6.20359">
        <ele>734.58</ele>
        <time>2012-07-27T09:23:19Z</time>
      </trkpt>
      <trkpt lat="46.16044" lon="6.20365">
        <ele>733.62</ele>
        <time>2012-07-27T09:23:20Z</time>
      </trkpt>
      <trkpt lat="46.16019" lon="6.20479">
        <ele>728.34</ele>
        <time>2012-07-27T09:23:29Z</time>
      </trkpt>
      <trkpt lat="46.16025" lon="6.20584">
        <ele>721.61</ele>
        <time>2012-07-27T09:23:40Z</time>
      </trkpt>
      <trkpt lat="46.15962" lon="6.20691">
        <ele>722.57</ele>
        <time>2012-07-27T09:24:05Z</time>
      </trkpt>
      <trkpt lat="46.15912" lon="6.20858">
        <ele>720.16</ele>
        <time>2012-07-27T09:24:16Z</time>
      </trkpt>
      <trkpt lat="46.15852" lon="6.21078">
        <ele>710.07</ele>
        <time>2012-07-27T09:24:29Z</time>
      </trkpt>
      <trkpt lat="46.15884" lon="6.2143">
        <ele>694.69</ele>
        <time>2012-07-27T09:24:50Z</time>
      </trkpt>
      <trkpt lat="46.15849" lon="6.21565">
        <ele>692.29</ele>
        <time>2012-07-27T09:24:59Z</time>
      </trkpt>
      <trkpt lat="46.15755" lon="6.2193">
        <ele>674.02</ele>
        <time>2012-07-27T09:25:22Z</time>
      </trkpt>
      <trkpt lat="46.15863" lon="6.22227">
        <ele>659.6</ele>
        <time>2012-07-27T09:25:46Z</time>
      </trkpt>
      <trkpt lat="46.15855" lon="6.2225">
        <ele>657.68</ele>
        <time>2012-07-27T09:25:48Z</time>
      </trkpt>
      <trkpt lat="46.15835" lon="6.22261">
        <ele>657.2</ele>
        <time>2012-07-27T09:25:50Z</time>
      </trkpt>
      <trkpt lat="46.15797" lon="6.2225">
        <ele>652.39</ele>
        <time>2012-07-27T09:25:54Z</time>
      </trkpt>
      <trkpt lat="46.15784" lon="6.22282">
        <ele>650.47</ele>
        <time>2012-07-27T09:25:58Z</time>
      </trkpt>
      <trkpt lat="46.15801" lon="6.22299">
        <ele>649.99</ele>
        <time>2012-07-27T09:26:01Z</time>
      </trkpt>
      <trkpt lat="46.15842" lon="6.22302">
        <ele>644.7</ele>
        <time>2012-07-27T09:26:05Z</time>
      </trkpt>
      <trkpt lat="46.15944" lon="6.22394">
        <ele>641.34</ele>
        <time>2012-07-27T09:26:12Z</time>
      </trkpt>
      <trkpt lat="46.16043" lon="6.22491">
        <ele>630.28</ele>
        <time>2012-07-27T09:26:19Z</time>
      </trkpt>
      <trkpt lat="46.16093" lon="6.22569">
        <ele>624.03</ele>
        <time>2012-07-27T09:26:24Z</time>
      </trkpt>
      <trkpt lat="46.16137" lon="6.22593">
        <ele>621.15</ele>
        <time>2012-07-27T09:26:27Z</time>
      </trkpt>
      <trkpt lat="46.1627" lon="6.22702">
        <ele>606.25</ele>
        <time>2012-07-27T09:26:39Z</time>
      </trkpt>
      <trkpt lat="46.16307" lon="6.22759">
        <ele>600.48</ele>
        <time>2012-07-27T09:26:44Z</time>
      </trkpt>
      <trkpt lat="46.16336" lon="6.22879">
        <ele>591.35</ele>
        <time>2012-07-27T09:26:57Z</time>
      </trkpt>
      <trkpt lat="46.163" lon="6.22843">
        <ele>591.83</ele>
        <time>2012-07-27T09:27:02Z</time>
      </trkpt>
      <trkpt lat="46.16243" lon="6.22794">
        <ele>587.5</ele>
        <time>2012-07-27T09:27:07Z</time>
      </trkpt>
      <trkpt lat="46.1618" lon="6.22779">
        <ele>584.62</ele>
        <time>2012-07-27T09:27:12Z</time>
      </trkpt>
      <trkpt lat="46.16094" lon="6.22721">
        <ele>576.45</ele>
        <time>2012-07-27T09:27:21Z</time>
      </trkpt>
      <trkpt lat="46.16072" lon="6.22729">
        <ele>574.04</ele>
        <time>2012-07-27T09:27:26Z</time>
      </trkpt>
      <trkpt lat="46.16116" lon="6.22819">
        <ele>572.6</ele>
        <time>2012-07-27T09:27:36Z</time>
      </trkpt>
      <trkpt lat="46.16136" lon="6.22901">
        <ele>568.28</ele>
        <time>2012-07-27T09:27:43Z</time>
      </trkpt>
      <trkpt lat="46.16132" lon="6.23056">
        <ele>565.39</ele>
        <time>2012-07-27T09:27:55Z</time>
      </trkpt>
      <trkpt lat="46.16157" lon="6.23147">
        <ele>561.07</ele>
        <time>2012-07-27T09:28:01Z</time>
      </trkpt>
      <trkpt lat="46.1615" lon="6.23241">
        <ele>558.66</ele>
        <time>2012-07-27T09:28:08Z</time>
      </trkpt>
      <trkpt lat="46.16152" lon="6.23283">
        <ele>556.26</ele>
        <time>2012-07-27T09:28:11Z</time>
      </trkpt>
      <trkpt lat="46.16305" lon="6.23579">
        <ele>543.28</ele>
        <time>2012-07-27T09:28:42Z</time>
      </trkpt>
      <trkpt lat="46.1637" lon="6.23662">
        <ele>537.99</ele>
        <time>2012-07-27T09:28:50Z</time>
      </trkpt>
      <trkpt lat="46.16499" lon="6.23736">
        <ele>533.19</ele>
        <time>2012-07-27T09:29:03Z</time>
      </trkpt>
      <trkpt lat="46.16651" lon="6.23855">
        <ele>524.06</ele>
        <time>2012-07-27T09:29:20Z</time>
      </trkpt>
      <trkpt lat="46.17137" lon="6.23869">
        <ele>500.98</ele>
        <time>2012-07-27T09:30:02Z</time>
      </trkpt>
      <trkpt lat="46.17305" lon="6.23788">
        <ele>486.08</ele>
        <time>2012-07-27T09:30:16Z</time>
      </trkpt>
      <trkpt lat="46.17413" lon="6.23713">
        <ele>476.95</ele>
        <time>2012-07-27T09:30:25Z</time>
      </trkpt>
      <trkpt lat="46.17474" lon="6.23667">
        <ele>467.34</ele>
        <time>2012-07-27T09:30:31Z</time>
      </trkpt>
      <trkpt lat="46.17562" lon="6.23583">
        <ele>464.45</ele>
        <time>2012-07-27T09:30:42Z</time>
      </trkpt>
      <trkpt lat="46.17608" lon="6.23538">
        <ele>459.17</ele>
        <time>2012-07-27T09:30:48Z</time>
      </trkpt>
      <trkpt lat="46.17684" lon="6.2354">
        <ele>457.72</ele>
        <time>2012-07-27T09:31:12Z</time>
      </trkpt>
      <trkpt lat="46.17818" lon="6.23432">
        <ele>451</ele>
        <time>2012-07-27T09:31:24Z</time>
      </trkpt>
      <trkpt lat="46.17885" lon="6.23333">
        <ele>446.19</ele>
        <time>2012-07-27T09:31:32Z</time>
      </trkpt>
      <trkpt lat="46.18007" lon="6.23044">
        <ele>438.5</ele>
        <time>2012-07-27T09:31:56Z</time>
      </trkpt>
      <trkpt lat="46.1804" lon="6.22994">
        <ele>436.58</ele>
        <time>2012-07-27T09:32:01Z</time>
      </trkpt>
      <trkpt lat="46.18074" lon="6.22976">
        <ele>438.98</ele>
        <time>2012-07-27T09:32:05Z</time>
      </trkpt>
      <trkpt lat="46.18129" lon="6.22981">
        <ele>441.86</ele>
        <time>2012-07-27T09:32:10Z</time>
      </trkpt>
      <trkpt lat="46.18194" lon="6.22993">
        <ele>440.9</ele>
        <time>2012-07-27T09:32:16Z</time>
      </trkpt>
      <trkpt lat="46.18278" lon="6.23057">
        <ele>439.94</ele>
        <time>2012-07-27T09:32:24Z</time>
      </trkpt>
      <trkpt lat="46.18381" lon="6.23096">
        <ele>441.86</ele>
        <time>2012-07-27T09:32:33Z</time>
      </trkpt>
      <trkpt lat="46.18508" lon="6.23049">
        <ele>444.75</ele>
        <time>2012-07-27T09:32:44Z</time>
      </trkpt>
      <trkpt lat="46.18557" lon="6.23055">
        <ele>446.67</ele>
        <time>2012-07-27T09:32:48Z</time>
      </trkpt>
      <trkpt lat="46.18601" lon="6.2309">
        <ele>449.55</ele>
        <time>2012-07-27T09:32:52Z</time>
      </trkpt>
      <trkpt lat="46.18713" lon="6.23217">
        <ele>452.44</ele>
        <time>2012-07-27T09:33:04Z</time>
      </trkpt>
      <trkpt lat="46.18895" lon="6.2329">
        <ele>461.57</ele>
        <time>2012-07-27T09:33:20Z</time>
      </trkpt>
      <trkpt lat="46.19012" lon="6.23334">
        <ele>461.57</ele>
        <time>2012-07-27T09:33:33Z</time>
      </trkpt>
      <trkpt lat="46.19043" lon="6.23453">
        <ele>461.57</ele>
        <time>2012-07-27T09:33:49Z</time>
      </trkpt>
      <trkpt lat="46.1915" lon="6.23412">
        <ele>461.57</ele>
        <time>2012-07-27T09:34:10Z</time>
      </trkpt>
      <trkpt lat="46.19177" lon="6.23337">
        <ele>462.05</ele>
        <time>2012-07-27T09:34:18Z</time>
      </trkpt>
      <trkpt lat="46.19273" lon="6.23178">
        <ele>459.65</ele>
        <time>2012-07-27T09:34:43Z</time>
      </trkpt>
      <trkpt lat="46.1929" lon="6.23217">
        <ele>460.61</ele>
        <time>2012-07-27T09:34:49Z</time>
      </trkpt>
      <trkpt lat="46.19301" lon="6.2333">
        <ele>461.09</ele>
        <time>2012-07-27T09:35:01Z</time>
      </trkpt>
      <trkpt lat="46.19317" lon="6.23341">
        <ele>461.57</ele>
        <time>2012-07-27T09:35:04Z</time>
      </trkpt>
      <trkpt lat="46.19484" lon="6.23394">
        <ele>461.09</ele>
        <time>2012-07-27T09:35:44Z</time>
      </trkpt>
      <trkpt lat="46.19573" lon="6.23461">
        <ele>460.61</ele>
        <time>2012-07-27T09:35:59Z</time>
      </trkpt>
      <trkpt lat="46.1957" lon="6.23501">
        <ele>462.53</ele>
        <time>2012-07-27T09:36:04Z</time>
      </trkpt>
      <trkpt lat="46.19515" lon="6.23579">
        <ele>461.09</ele>
        <time>2012-07-27T09:36:22Z</time>
      </trkpt>
      <trkpt lat="46.19512" lon="6.23603">
        <ele>462.05</ele>
        <time>2012-07-27T09:36:26Z</time>
      </trkpt>
      <trkpt lat="46.19716" lon="6.23802">
        <ele>462.05</ele>
        <time>2012-07-27T09:38:13Z</time>
      </trkpt>
      <trkpt lat="46.19731" lon="6.23839">
        <ele>462.53</ele>
        <time>2012-07-27T09:38:19Z</time>
      </trkpt>
      <trkpt lat="46.19499" lon="6.23988">
        <ele>465.9</ele>
        <time>2012-07-27T09:38:46Z</time>
      </trkpt>
      <trkpt lat="46.19443" lon="6.24021">
        <ele>463.01</ele>
        <time>2012-07-27T09:38:53Z</time>
      </trkpt>
      <trkpt lat="46.19429" lon="6.24035">
        <ele>463.49</ele>
        <time>2012-07-27T09:39:01Z</time>
      </trkpt>
      <trkpt lat="46.19234" lon="6.24145">
        <ele>466.86</ele>
        <time>2012-07-27T09:39:44Z</time>
      </trkpt>
      <trkpt lat="46.19178" lon="6.24178">
        <ele>464.93</ele>
        <time>2012-07-27T09:39:51Z</time>
      </trkpt>
      <trkpt lat="46.19143" lon="6.24209">
        <ele>465.9</ele>
        <time>2012-07-27T09:40:52Z</time>
      </trkpt>
      <trkpt lat="46.19031" lon="6.24905">
        <ele>480.8</ele>
        <time>2012-07-27T09:41:36Z</time>
      </trkpt>
      <trkpt lat="46.19026" lon="6.25094">
        <ele>480.8</ele>
        <time>2012-07-27T09:41:57Z</time>
      </trkpt>
      <trkpt lat="46.19157" lon="6.25127">
        <ele>484.16</ele>
        <time>2012-07-27T09:42:53Z</time>
      </trkpt>
      <trkpt lat="46.19248" lon="6.25327">
        <ele>486.08</ele>
        <time>2012-07-27T09:43:14Z</time>
      </trkpt>
      <trkpt lat="46.1994" lon="6.27227">
        <ele>522.61</ele>
        <time>2012-07-27T09:46:04Z</time>
      </trkpt>
      <trkpt lat="46.20026" lon="6.27474">
        <ele>525.02</ele>
        <time>2012-07-27T09:46:24Z</time>
      </trkpt>
      <trkpt lat="46.20028" lon="6.27534">
        <ele>525.98</ele>
        <time>2012-07-27T09:46:41Z</time>
      </trkpt>
      <trkpt lat="46.20068" lon="6.2759">
        <ele>528.38</ele>
        <time>2012-07-27T09:46:47Z</time>
      </trkpt>
      <trkpt lat="46.20092" lon="6.27651">
        <ele>529.34</ele>
        <time>2012-07-27T09:46:51Z</time>
      </trkpt>
      <trkpt lat="46.20359" lon="6.28382">
        <ele>544.24</ele>
        <time>2012-07-27T09:47:40Z</time>
      </trkpt>
      <trkpt lat="46.20641" lon="6.29161">
        <ele>555.3</ele>
        <time>2012-07-27T09:48:21Z</time>
      </trkpt>
      <trkpt lat="46.20708" lon="6.29313">
        <ele>556.74</ele>
        <time>2012-07-27T09:48:28Z</time>
      </trkpt>
      <trkpt lat="46.20751" lon="6.29361">
        <ele>558.18</ele>
        <time>2012-07-27T09:48:31Z</time>
      </trkpt>
      <trkpt lat="46.20786" lon="6.29387">
        <ele>558.66</ele>
        <time>2012-07-27T09:48:33Z</time>
      </trkpt>
      <trkpt lat="46.21043" lon="6.29549">
        <ele>560.11</ele>
        <time>2012-07-27T09:48:47Z</time>
      </trkpt>
      <trkpt lat="46.21159" lon="6.29659">
        <ele>559.62</ele>
        <time>2012-07-27T09:48:54Z</time>
      </trkpt>
      <trkpt lat="46.21275" lon="6.29858">
        <ele>560.11</ele>
        <time>2012-07-27T09:49:03Z</time>
      </trkpt>
      <trkpt lat="46.21474" lon="6.30268">
        <ele>556.74</ele>
        <time>2012-07-27T09:49:21Z</time>
      </trkpt>
      <trkpt lat="46.21566" lon="6.30411">
        <ele>556.26</ele>
        <time>2012-07-27T09:49:28Z</time>
      </trkpt>
      <trkpt lat="46.21899" lon="6.30825">
        <ele>556.74</ele>
        <time>2012-07-27T09:49:51Z</time>
      </trkpt>
      <trkpt lat="46.22038" lon="6.30966">
        <ele>558.18</ele>
        <time>2012-07-27T09:50:00Z</time>
      </trkpt>
      <trkpt lat="46.22941" lon="6.31395">
        <ele>565.39</ele>
        <time>2012-07-27T09:50:49Z</time>
      </trkpt>
      <trkpt lat="46.23288" lon="6.31631">
        <ele>575.01</ele>
        <time>2012-07-27T09:51:04Z</time>
      </trkpt>
      <trkpt lat="46.23785" lon="6.32">
        <ele>565.87</ele>
        <time>2012-07-27T09:51:27Z</time>
      </trkpt>
      <trkpt lat="46.23961" lon="6.32185">
        <ele>571.16</ele>
        <time>2012-07-27T09:51:37Z</time>
      </trkpt>
      <trkpt lat="46.24242" lon="6.32477">
        <ele>572.6</ele>
        <time>2012-07-27T09:51:53Z</time>
      </trkpt>
      <trkpt lat="46.24422" lon="6.32594">
        <ele>570.2</ele>
        <time>2012-07-27T09:52:02Z</time>
      </trkpt>
      <trkpt lat="46.24487" lon="6.32622">
        <ele>566.83</ele>
        <time>2012-07-27T09:52:05Z</time>
      </trkpt>
      <trkpt lat="46.24625" lon="6.32658">
        <ele>562.51</ele>
        <time>2012-07-27T09:52:11Z</time>
      </trkpt>
      <trkpt lat="46.24843" lon="6.32648">
        <ele>556.74</ele>
        <time>2012-07-27T09:52:20Z</time>
      </trkpt>
      <trkpt lat="46.25386" lon="6.32483">
        <ele>565.87</ele>
        <time>2012-07-27T09:52:43Z</time>
      </trkpt>
      <trkpt lat="46.25617" lon="6.32362">
        <ele>564.91</ele>
        <time>2012-07-27T09:52:53Z</time>
      </trkpt>
      <trkpt lat="46.26149" lon="6.31971">
        <ele>558.66</ele>
        <time>2012-07-27T09:53:18Z</time>
      </trkpt>
      <trkpt lat="46.26671" lon="6.31572">
        <ele>547.61</ele>
        <time>2012-07-27T09:53:49Z</time>
      </trkpt>
      <trkpt lat="46.26855" lon="6.31439">
        <ele>539.44</ele>
        <time>2012-07-27T09:54:02Z</time>
      </trkpt>
      <trkpt lat="46.26958" lon="6.31382">
        <ele>534.15</ele>
        <time>2012-07-27T09:54:09Z</time>
      </trkpt>
      <trkpt lat="46.27042" lon="6.31336">
        <ele>526.94</ele>
        <time>2012-07-27T09:54:17Z</time>
      </trkpt>
      <trkpt lat="46.2712" lon="6.3131">
        <ele>524.06</ele>
        <time>2012-07-27T09:54:27Z</time>
      </trkpt>
      <trkpt lat="46.27255" lon="6.31325">
        <ele>522.61</ele>
        <time>2012-07-27T09:54:38Z</time>
      </trkpt>
      <trkpt lat="46.27783" lon="6.31157">
        <ele>517.81</ele>
        <time>2012-07-27T09:55:13Z</time>
      </trkpt>
      <trkpt lat="46.27953" lon="6.31108">
        <ele>510.12</ele>
        <time>2012-07-27T09:55:24Z</time>
      </trkpt>
      <trkpt lat="46.28064" lon="6.31065">
        <ele>506.27</ele>
        <time>2012-07-27T09:55:31Z</time>
      </trkpt>
      <trkpt lat="46.2828" lon="6.30943">
        <ele>503.39</ele>
        <time>2012-07-27T09:55:47Z</time>
      </trkpt>
      <trkpt lat="46.28593" lon="6.30927">
        <ele>497.14</ele>
        <time>2012-07-27T09:56:06Z</time>
      </trkpt>
      <trkpt lat="46.28871" lon="6.30968">
        <ele>489.45</ele>
        <time>2012-07-27T09:56:30Z</time>
      </trkpt>
      <trkpt lat="46.29058" lon="6.30934">
        <ele>488.01</ele>
        <time>2012-07-27T09:56:48Z</time>
      </trkpt>
      <trkpt lat="46.29147" lon="6.30921">
        <ele>482.72</ele>
        <time>2012-07-27T09:56:56Z</time>
      </trkpt>
      <trkpt lat="46.29218" lon="6.30971">
        <ele>481.76</ele>
        <time>2012-07-27T09:57:03Z</time>
      </trkpt>
      <trkpt lat="46.29266" lon="6.30971">
        <ele>482.72</ele>
        <time>2012-07-27T09:57:07Z</time>
      </trkpt>
      <trkpt lat="46.29468" lon="6.3085">
        <ele>472.14</ele>
        <time>2012-07-27T09:57:24Z</time>
      </trkpt>
      <trkpt lat="46.29605" lon="6.30676">
        <ele>462.53</ele>
        <time>2012-07-27T09:58:12Z</time>
      </trkpt>
      <trkpt lat="46.29673" lon="6.30621">
        <ele>463.01</ele>
        <time>2012-07-27T09:58:24Z</time>
      </trkpt>
      <trkpt lat="46.2986" lon="6.30521">
        <ele>461.09</ele>
        <time>2012-07-27T09:58:38Z</time>
      </trkpt>
      <trkpt lat="46.29927" lon="6.30488">
        <ele>457.72</ele>
        <time>2012-07-27T09:58:43Z</time>
      </trkpt>
      <trkpt lat="46.30287" lon="6.30292">
        <ele>449.07</ele>
        <time>2012-07-27T09:59:14Z</time>
      </trkpt>
      <trkpt lat="46.30308" lon="6.30283">
        <ele>448.59</ele>
        <time>2012-07-27T09:59:28Z</time>
      </trkpt>
      <trkpt lat="46.30353" lon="6.30281">
        <ele>446.67</ele>
        <time>2012-07-27T09:59:52Z</time>
      </trkpt>
      <trkpt lat="46.30429" lon="6.30534">
        <ele>450.03</ele>
        <time>2012-07-27T10:00:19Z</time>
      </trkpt>
      <trkpt lat="46.30478" lon="6.30711">
        <ele>447.63</ele>
        <time>2012-07-27T10:00:35Z</time>
      </trkpt>
      <trkpt lat="46.30528" lon="6.30686">
        <ele>452.92</ele>
        <time>2012-07-27T10:00:40Z</time>
      </trkpt>
      <trkpt lat="46.30585" lon="6.30665">
        <ele>447.63</ele>
        <time>2012-07-27T10:00:45Z</time>
      </trkpt>
      <trkpt lat="46.30596" lon="6.30678">
        <ele>447.63</ele>
        <time>2012-07-27T10:00:47Z</time>
      </trkpt>
      <trkpt lat="46.30592" lon="6.30913">
        <ele>454.36</ele>
        <time>2012-07-27T10:01:05Z</time>
      </trkpt>
      <trkpt lat="46.30564" lon="6.3181">
        <ele>456.28</ele>
        <time>2012-07-27T10:01:49Z</time>
      </trkpt>
      <trkpt lat="46.30548" lon="6.31913">
        <ele>454.84</ele>
        <time>2012-07-27T10:01:58Z</time>
      </trkpt>
      <trkpt lat="46.30573" lon="6.31976">
        <ele>453.88</ele>
        <time>2012-07-27T10:04:48Z</time>
      </trkpt>
      <trkpt lat="46.30656" lon="6.32075">
        <ele>454.84</ele>
        <time>2012-07-27T10:05:24Z</time>
      </trkpt>
      <trkpt lat="46.30783" lon="6.32185">
        <ele>457.24</ele>
        <time>2012-07-27T10:05:41Z</time>
      </trkpt>
      <trkpt lat="46.30839" lon="6.3228">
        <ele>460.13</ele>
        <time>2012-07-27T10:05:48Z</time>
      </trkpt>
      <trkpt lat="46.30925" lon="6.32438">
        <ele>459.65</ele>
        <time>2012-07-27T10:05:57Z</time>
      </trkpt>
      <trkpt lat="46.30984" lon="6.32559">
        <ele>460.61</ele>
        <time>2012-07-27T10:06:04Z</time>
      </trkpt>
      <trkpt lat="46.3101" lon="6.32661">
        <ele>460.61</ele>
        <time>2012-07-27T10:06:10Z</time>
      </trkpt>
      <trkpt lat="46.31042" lon="6.32728">
        <ele>463.97</ele>
        <time>2012-07-27T10:06:14Z</time>
      </trkpt>
      <trkpt lat="46.31144" lon="6.32963">
        <ele>461.57</ele>
        <time>2012-07-27T10:06:26Z</time>
      </trkpt>
      <trkpt lat="46.31169" lon="6.33021">
        <ele>457.72</ele>
        <time>2012-07-27T10:06:29Z</time>
      </trkpt>
      <trkpt lat="46.31203" lon="6.3315">
        <ele>456.76</ele>
        <time>2012-07-27T10:06:36Z</time>
      </trkpt>
      <trkpt lat="46.31302" lon="6.33343">
        <ele>452.92</ele>
        <time>2012-07-27T10:06:47Z</time>
      </trkpt>
      <trkpt lat="46.31319" lon="6.33453">
        <ele>452.92</ele>
        <time>2012-07-27T10:06:53Z</time>
      </trkpt>
      <trkpt lat="46.31336" lon="6.3353">
        <ele>450.52</ele>
        <time>2012-07-27T10:06:58Z</time>
      </trkpt>
      <trkpt lat="46.3135" lon="6.33547">
        <ele>452.44</ele>
        <time>2012-07-27T10:07:00Z</time>
      </trkpt>
      <trkpt lat="46.31466" lon="6.33602">
        <ele>451.48</ele>
        <time>2012-07-27T10:07:17Z</time>
      </trkpt>
      <trkpt lat="46.31662" lon="6.33319">
        <ele>453.4</ele>
        <time>2012-07-27T10:07:46Z</time>
      </trkpt>
      <trkpt lat="46.31737" lon="6.33211">
        <ele>451.96</ele>
        <time>2012-07-27T10:07:57Z</time>
      </trkpt>
      <trkpt lat="46.31776" lon="6.33151">
        <ele>448.59</ele>
        <time>2012-07-27T10:08:02Z</time>
      </trkpt>
      <trkpt lat="46.31837" lon="6.3308">
        <ele>443.79</ele>
        <time>2012-07-27T10:08:46Z</time>
      </trkpt>
      <trkpt lat="46.31854" lon="6.33083">
        <ele>445.71</ele>
        <time>2012-07-27T10:09:02Z</time>
      </trkpt>
      <trkpt lat="46.31875" lon="6.33132">
        <ele>447.63</ele>
        <time>2012-07-27T10:09:06Z</time>
      </trkpt>
      <trkpt lat="46.31951" lon="6.33378">
        <ele>454.36</ele>
        <time>2012-07-27T10:09:21Z</time>
      </trkpt>
      <trkpt lat="46.31994" lon="6.33517">
        <ele>451.48</ele>
        <time>2012-07-27T10:09:27Z</time>
      </trkpt>
      <trkpt lat="46.32277" lon="6.34462">
        <ele>446.67</ele>
        <time>2012-07-27T10:10:02Z</time>
      </trkpt>
      <trkpt lat="46.32928" lon="6.36594">
        <ele>415.43</ele>
        <time>2012-07-27T10:11:26Z</time>
      </trkpt>
      <trkpt lat="46.33186" lon="6.37463">
        <ele>414.95</ele>
        <time>2012-07-27T10:13:57Z</time>
      </trkpt>
      <trkpt lat="46.33217" lon="6.376">
        <ele>415.91</ele>
        <time>2012-07-27T10:14:07Z</time>
      </trkpt>
      <trkpt lat="46.3321" lon="6.37749">
        <ele>416.87</ele>
        <time>2012-07-27T10:14:14Z</time>
      </trkpt>
      <trkpt lat="46.3317" lon="6.37968">
        <ele>410.14</ele>
        <time>2012-07-27T10:14:23Z</time>
      </trkpt>
      <trkpt lat="46.33185" lon="6.38122">
        <ele>408.7</ele>
        <time>2012-07-27T10:14:29Z</time>
      </trkpt>
      <trkpt lat="46.33289" lon="6.38521">
        <ele>415.91</ele>
        <time>2012-07-27T10:20:24Z</time>
      </trkpt>
      <trkpt lat="46.33399" lon="6.39049">
        <ele>415.43</ele>
        <time>2012-07-27T10:21:21Z</time>
      </trkpt>
      <trkpt lat="46.33325" lon="6.38659">
        <ele>413.98</ele>
        <time>2012-07-27T10:30:51Z</time>
      </trkpt>
      <trkpt lat="46.33399" lon="6.38612">
        <ele>412.54</ele>
        <time>2012-07-27T10:31:00Z</time>
      </trkpt>
      <trkpt lat="46.33419" lon="6.38555">
        <ele>412.54</ele>
        <time>2012-07-27T10:31:04Z</time>
      </trkpt>
      <trkpt lat="46.33481" lon="6.38205">
        <ele>406.29</ele>
        <time>2012-07-27T10:31:27Z</time>
      </trkpt>
      <trkpt lat="46.33505" lon="6.38136">
        <ele>404.85</ele>
        <time>2012-07-27T10:31:32Z</time>
      </trkpt>
      <trkpt lat="46.3355" lon="6.38087">
        <ele>399.57</ele>
        <time>2012-07-27T10:31:37Z</time>
      </trkpt>
      <trkpt lat="46.33581" lon="6.3808">
        <ele>396.68</ele>
        <time>2012-07-27T10:31:40Z</time>
      </trkpt>
      <trkpt lat="46.33784" lon="6.38189">
        <ele>388.03</ele>
        <time>2012-07-27T10:32:11Z</time>
      </trkpt>
      <trkpt lat="46.33583" lon="6.38078">
        <ele>395.72</ele>
        <time>2012-07-27T10:33:17Z</time>
      </trkpt>
      <trkpt lat="46.33548" lon="6.38085">
        <ele>399.08</ele>
        <time>2012-07-27T10:33:20Z</time>
      </trkpt>
      <trkpt lat="46.33489" lon="6.38167">
        <ele>405.33</ele>
        <time>2012-07-27T10:33:26Z</time>
      </trkpt>
      <trkpt lat="46.33434" lon="6.38458">
        <ele>413.02</ele>
        <time>2012-07-27T10:33:42Z</time>
      </trkpt>
      <trkpt lat="46.33405" lon="6.38597">
        <ele>411.58</ele>
        <time>2012-07-27T10:33:49Z</time>
      </trkpt>
      <trkpt lat="46.33317" lon="6.38659">
        <ele>413.02</ele>
        <time>2012-07-27T10:34:22Z</time>
      </trkpt>
      <trkpt lat="46.3356" lon="6.39848">
        <ele>429.37</ele>
        <time>2012-07-27T10:35:25Z</time>
      </trkpt>
      <trkpt lat="46.3363" lon="6.40052">
        <ele>426.96</ele>
        <time>2012-07-27T10:35:33Z</time>
      </trkpt>
      <trkpt lat="46.33678" lon="6.40144">
        <ele>428.89</ele>
        <time>2012-07-27T10:35:37Z</time>
      </trkpt>
      <trkpt lat="46.3397" lon="6.4059">
        <ele>441.38</ele>
        <time>2012-07-27T10:35:57Z</time>
      </trkpt>
      <trkpt lat="46.3448" lon="6.41773">
        <ele>442.82</ele>
        <time>2012-07-27T10:36:41Z</time>
      </trkpt>
      <trkpt lat="46.34697" lon="6.42409">
        <ele>445.71</ele>
        <time>2012-07-27T10:37:06Z</time>
      </trkpt>
      <trkpt lat="46.34787" lon="6.42668">
        <ele>445.23</ele>
        <time>2012-07-27T10:37:17Z</time>
      </trkpt>
      <trkpt lat="46.34802" lon="6.42713">
        <ele>442.82</ele>
        <time>2012-07-27T10:37:20Z</time>
      </trkpt>
      <trkpt lat="46.34766" lon="6.42863">
        <ele>447.15</ele>
        <time>2012-07-27T10:37:31Z</time>
      </trkpt>
      <trkpt lat="46.34699" lon="6.43003">
        <ele>450.03</ele>
        <time>2012-07-27T10:37:38Z</time>
      </trkpt>
      <trkpt lat="46.34682" lon="6.43078">
        <ele>451.96</ele>
        <time>2012-07-27T10:37:41Z</time>
      </trkpt>
      <trkpt lat="46.34679" lon="6.43183">
        <ele>453.88</ele>
        <time>2012-07-27T10:37:45Z</time>
      </trkpt>
      <trkpt lat="46.34702" lon="6.43343">
        <ele>457.24</ele>
        <time>2012-07-27T10:37:51Z</time>
      </trkpt>
      <trkpt lat="46.34831" lon="6.44298">
        <ele>455.8</ele>
        <time>2012-07-27T10:38:24Z</time>
      </trkpt>
      <trkpt lat="46.34806" lon="6.44481">
        <ele>456.28</ele>
        <time>2012-07-27T10:38:30Z</time>
      </trkpt>
      <trkpt lat="46.34655" lon="6.44903">
        <ele>464.93</ele>
        <time>2012-07-27T10:38:46Z</time>
      </trkpt>
      <trkpt lat="46.34642" lon="6.4498">
        <ele>468.78</ele>
        <time>2012-07-27T10:38:49Z</time>
      </trkpt>
      <trkpt lat="46.3464" lon="6.4506">
        <ele>470.7</ele>
        <time>2012-07-27T10:38:52Z</time>
      </trkpt>
      <trkpt lat="46.34666" lon="6.45212">
        <ele>470.7</ele>
        <time>2012-07-27T10:38:58Z</time>
      </trkpt>
      <trkpt lat="46.34743" lon="6.45362">
        <ele>471.66</ele>
        <time>2012-07-27T10:39:06Z</time>
      </trkpt>
      <trkpt lat="46.34974" lon="6.45681">
        <ele>477.43</ele>
        <time>2012-07-27T10:39:25Z</time>
      </trkpt>
      <trkpt lat="46.35153" lon="6.45848">
        <ele>478.39</ele>
        <time>2012-07-27T10:39:35Z</time>
      </trkpt>
      <trkpt lat="46.35288" lon="6.46046">
        <ele>477.91</ele>
        <time>2012-07-27T10:39:44Z</time>
      </trkpt>
      <trkpt lat="46.35392" lon="6.46301">
        <ele>477.43</ele>
        <time>2012-07-27T10:39:53Z</time>
      </trkpt>
      <trkpt lat="46.35449" lon="6.46588">
        <ele>476.47</ele>
        <time>2012-07-27T10:40:02Z</time>
      </trkpt>
      <trkpt lat="46.35459" lon="6.46789">
        <ele>473.11</ele>
        <time>2012-07-27T10:40:08Z</time>
      </trkpt>
      <trkpt lat="46.35428" lon="6.47084">
        <ele>472.14</ele>
        <time>2012-07-27T10:40:17Z</time>
      </trkpt>
      <trkpt lat="46.35325" lon="6.47436">
        <ele>480.32</ele>
        <time>2012-07-27T10:40:29Z</time>
      </trkpt>
      <trkpt lat="46.35304" lon="6.47596">
        <ele>487.53</ele>
        <time>2012-07-27T10:40:34Z</time>
      </trkpt>
      <trkpt lat="46.35309" lon="6.47727">
        <ele>491.85</ele>
        <time>2012-07-27T10:40:38Z</time>
      </trkpt>
      <trkpt lat="46.35313" lon="6.47759">
        <ele>490.41</ele>
        <time>2012-07-27T10:40:39Z</time>
      </trkpt>
      <trkpt lat="46.35356" lon="6.47915">
        <ele>495.7</ele>
        <time>2012-07-27T10:40:44Z</time>
      </trkpt>
      <trkpt lat="46.35473" lon="6.48108">
        <ele>495.22</ele>
        <time>2012-07-27T10:40:51Z</time>
      </trkpt>
      <trkpt lat="46.35655" lon="6.48365">
        <ele>499.06</ele>
        <time>2012-07-27T10:41:01Z</time>
      </trkpt>
      <trkpt lat="46.35796" lon="6.48639">
        <ele>502.43</ele>
        <time>2012-07-27T10:41:10Z</time>
      </trkpt>
      <trkpt lat="46.36135" lon="6.49031">
        <ele>497.62</ele>
        <time>2012-07-27T10:41:27Z</time>
      </trkpt>
      <trkpt lat="46.36239" lon="6.49239">
        <ele>496.18</ele>
        <time>2012-07-27T10:41:34Z</time>
      </trkpt>
      <trkpt lat="46.36344" lon="6.49541">
        <ele>488.97</ele>
        <time>2012-07-27T10:41:43Z</time>
      </trkpt>
      <trkpt lat="46.36394" lon="6.49627">
        <ele>485.12</ele>
        <time>2012-07-27T10:41:46Z</time>
      </trkpt>
      <trkpt lat="46.36544" lon="6.49847">
        <ele>473.11</ele>
        <time>2012-07-27T10:41:54Z</time>
      </trkpt>
      <trkpt lat="46.3665" lon="6.50003">
        <ele>462.05</ele>
        <time>2012-07-27T10:42:00Z</time>
      </trkpt>
      <trkpt lat="46.3677" lon="6.50137">
        <ele>459.65</ele>
        <time>2012-07-27T10:42:06Z</time>
      </trkpt>
      <trkpt lat="46.36861" lon="6.50196">
        <ele>454.36</ele>
        <time>2012-07-27T10:42:10Z</time>
      </trkpt>
      <trkpt lat="46.36955" lon="6.50228">
        <ele>451</ele>
        <time>2012-07-27T10:42:14Z</time>
      </trkpt>
      <trkpt lat="46.375" lon="6.50195">
        <ele>427.44</ele>
        <time>2012-07-27T10:42:36Z</time>
      </trkpt>
      <trkpt lat="46.37636" lon="6.50233">
        <ele>425.04</ele>
        <time>2012-07-27T10:42:42Z</time>
      </trkpt>
      <trkpt lat="46.37733" lon="6.50319">
        <ele>420.71</ele>
        <time>2012-07-27T10:42:47Z</time>
      </trkpt>
      <trkpt lat="46.37805" lon="6.5042">
        <ele>414.95</ele>
        <time>2012-07-27T10:42:53Z</time>
      </trkpt>
      <trkpt lat="46.37897" lon="6.50488">
        <ele>412.06</ele>
        <time>2012-07-27T10:43:04Z</time>
      </trkpt>
      <trkpt lat="46.38073" lon="6.50894">
        <ele>417.35</ele>
        <time>2012-07-27T10:43:30Z</time>
      </trkpt>
      <trkpt lat="46.38173" lon="6.51055">
        <ele>417.35</ele>
        <time>2012-07-27T10:43:38Z</time>
      </trkpt>
      <trkpt lat="46.38312" lon="6.51237">
        <ele>413.98</ele>
        <time>2012-07-27T10:43:47Z</time>
      </trkpt>
      <trkpt lat="46.38465" lon="6.51466">
        <ele>412.54</ele>
        <time>2012-07-27T10:43:58Z</time>
      </trkpt>
      <trkpt lat="46.38591" lon="6.51749">
        <ele>410.14</ele>
        <time>2012-07-27T10:44:09Z</time>
      </trkpt>
      <trkpt lat="46.38653" lon="6.51977">
        <ele>413.5</ele>
        <time>2012-07-27T10:44:17Z</time>
      </trkpt>
      <trkpt lat="46.38672" lon="6.52128">
        <ele>416.39</ele>
        <time>2012-07-27T10:44:22Z</time>
      </trkpt>
      <trkpt lat="46.38716" lon="6.52238">
        <ele>412.54</ele>
        <time>2012-07-27T10:44:27Z</time>
      </trkpt>
      <trkpt lat="46.388" lon="6.52337">
        <ele>413.02</ele>
        <time>2012-07-27T10:44:34Z</time>
      </trkpt>
      <trkpt lat="46.38882" lon="6.52421">
        <ele>410.14</ele>
        <time>2012-07-27T10:44:40Z</time>
      </trkpt>
      <trkpt lat="46.38987" lon="6.52586">
        <ele>403.89</ele>
        <time>2012-07-27T10:44:49Z</time>
      </trkpt>
      <trkpt lat="46.39032" lon="6.52697">
        <ele>401.01</ele>
        <time>2012-07-27T10:44:54Z</time>
      </trkpt>
      <trkpt lat="46.39083" lon="6.52896">
        <ele>397.64</ele>
        <time>2012-07-27T10:45:03Z</time>
      </trkpt>
      <trkpt lat="46.39131" lon="6.53157">
        <ele>397.64</ele>
        <time>2012-07-27T10:45:17Z</time>
      </trkpt>
      <trkpt lat="46.39243" lon="6.53401">
        <ele>392.84</ele>
        <time>2012-07-27T10:45:32Z</time>
      </trkpt>
      <trkpt lat="46.39273" lon="6.53514">
        <ele>391.39</ele>
        <time>2012-07-27T10:45:41Z</time>
      </trkpt>
      <trkpt lat="46.39273" lon="6.53536">
        <ele>390.43</ele>
        <time>2012-07-27T10:45:43Z</time>
      </trkpt>
      <trkpt lat="46.39308" lon="6.53592">
        <ele>391.39</ele>
        <time>2012-07-27T10:45:49Z</time>
      </trkpt>
      <trkpt lat="46.39372" lon="6.53766">
        <ele>390.43</ele>
        <time>2012-07-27T10:46:01Z</time>
      </trkpt>
      <trkpt lat="46.39413" lon="6.53879">
        <ele>387.55</ele>
        <time>2012-07-27T10:46:18Z</time>
      </trkpt>
      <trkpt lat="46.39428" lon="6.53892">
        <ele>387.55</ele>
        <time>2012-07-27T10:46:36Z</time>
      </trkpt>
      <trkpt lat="46.39517" lon="6.53865">
        <ele>387.55</ele>
        <time>2012-07-27T10:46:49Z</time>
      </trkpt>
      <trkpt lat="46.39623" lon="6.5384">
        <ele>384.18</ele>
        <time>2012-07-27T10:47:17Z</time>
      </trkpt>
      <trkpt lat="46.39545" lon="6.54089">
        <ele>384.66</ele>
        <time>2012-07-27T10:47:53Z</time>
      </trkpt>
      <trkpt lat="46.39504" lon="6.54128">
        <ele>386.11</ele>
        <time>2012-07-27T10:48:19Z</time>
      </trkpt>
      <trkpt lat="46.39463" lon="6.54587">
        <ele>387.07</ele>
        <time>2012-07-27T10:48:47Z</time>
      </trkpt>
      <trkpt lat="46.39507" lon="6.55248">
        <ele>395.72</ele>
        <time>2012-07-27T10:49:21Z</time>
      </trkpt>
      <trkpt lat="46.39631" lon="6.56019">
        <ele>405.33</ele>
        <time>2012-07-27T10:50:02Z</time>
      </trkpt>
      <trkpt lat="46.39683" lon="6.56365">
        <ele>407.26</ele>
        <time>2012-07-27T10:50:16Z</time>
      </trkpt>
      <trkpt lat="46.39718" lon="6.56603">
        <ele>404.85</ele>
        <time>2012-07-27T10:50:26Z</time>
      </trkpt>
      <trkpt lat="46.39763" lon="6.56919">
        <ele>402.93</ele>
        <time>2012-07-27T10:50:42Z</time>
      </trkpt>
      <trkpt lat="46.39809" lon="6.57281">
        <ele>401.49</ele>
        <time>2012-07-27T10:51:09Z</time>
      </trkpt>
      <trkpt lat="46.39852" lon="6.57513">
        <ele>403.89</ele>
        <time>2012-07-27T10:51:30Z</time>
      </trkpt>
      <trkpt lat="46.3987" lon="6.57626">
        <ele>402.45</ele>
        <time>2012-07-27T10:51:39Z</time>
      </trkpt>
      <trkpt lat="46.39886" lon="6.57676">
        <ele>402.45</ele>
        <time>2012-07-27T10:51:46Z</time>
      </trkpt>
      <trkpt lat="46.39878" lon="6.57716">
        <ele>402.45</ele>
        <time>2012-07-27T10:51:53Z</time>
      </trkpt>
      <trkpt lat="46.39894" lon="6.57721">
        <ele>402.93</ele>
        <time>2012-07-27T10:51:57Z</time>
      </trkpt>
      <trkpt lat="46.39909" lon="6.57698">
        <ele>400.53</ele>
        <time>2012-07-27T10:52:03Z</time>
      </trkpt>
      <trkpt lat="46.39885" lon="6.57608">
        <ele>400.05</ele>
        <time>2012-07-27T10:52:33Z</time>
      </trkpt>
      <trkpt lat="46.39907" lon="6.57699">
        <ele>400.05</ele>
        <time>2012-07-27T10:52:43Z</time>
      </trkpt>
      <trkpt lat="46.39906" lon="6.57712">
        <ele>401.01</ele>
        <time>2012-07-27T10:52:45Z</time>
      </trkpt>
      <trkpt lat="46.39895" lon="6.57711">
        <ele>401.97</ele>
        <time>2012-07-27T10:52:48Z</time>
      </trkpt>
      <trkpt lat="46.39884" lon="6.57707">
        <ele>402.45</ele>
        <time>2012-07-27T10:52:50Z</time>
      </trkpt>
      <trkpt lat="46.39876" lon="6.57729">
        <ele>402.93</ele>
        <time>2012-07-27T10:52:53Z</time>
      </trkpt>
      <trkpt lat="46.39888" lon="6.5779">
        <ele>401.01</ele>
        <time>2012-07-27T10:53:05Z</time>
      </trkpt>
      <trkpt lat="46.39931" lon="6.57772">
        <ele>396.68</ele>
        <time>2012-07-27T10:53:17Z</time>
      </trkpt>
      <trkpt lat="46.39942" lon="6.57719">
        <ele>393.8</ele>
        <time>2012-07-27T10:53:30Z</time>
      </trkpt>
      <trkpt lat="46.39996" lon="6.57755">
        <ele>384.66</ele>
        <time>2012-07-27T10:54:59Z</time>
      </trkpt>
      <trkpt lat="46.39982" lon="6.57746">
        <ele>388.03</ele>
        <time>2012-07-27T10:55:18Z</time>
      </trkpt>
      <trkpt lat="46.40027" lon="6.5773">
        <ele>384.18</ele>
        <time>2012-07-27T11:19:43Z</time>
      </trkpt>
      <trkpt lat="46.39955" lon="6.5772">
        <ele>385.15</ele>
        <time>2012-07-27T11:39:32Z</time>
      </trkpt>
      <trkpt lat="46.39969" lon="6.57731">
        <ele>404.85</ele>
        <time>2012-07-27T11:40:11Z</time>
      </trkpt>
      <trkpt lat="46.3998" lon="6.57736">
        <ele>405.33</ele>
        <time>2012-07-27T11:40:44Z</time>
      </trkpt>
      <trkpt lat="46.39987" lon="6.57744">
        <ele>405.33</ele>
        <time>2012-07-27T11:43:41Z</time>
      </trkpt>
      <trkpt lat="46.39934" lon="6.57729">
        <ele>411.58</ele>
        <time>2012-07-27T11:43:57Z</time>
      </trkpt>
      <trkpt lat="46.39925" lon="6.57703">
        <ele>413.98</ele>
        <time>2012-07-27T11:44:01Z</time>
      </trkpt>
      <trkpt lat="46.39921" lon="6.57697">
        <ele>414.47</ele>
        <time>2012-07-27T11:44:02Z</time>
      </trkpt>
      <trkpt lat="46.39907" lon="6.57714">
        <ele>417.35</ele>
        <time>2012-07-27T11:44:07Z</time>
      </trkpt>
      <trkpt lat="46.39896" lon="6.5771">
        <ele>418.31</ele>
        <time>2012-07-27T11:44:26Z</time>
      </trkpt>
      <trkpt lat="46.3988" lon="6.5772">
        <ele>417.83</ele>
        <time>2012-07-27T11:44:31Z</time>
      </trkpt>
      <trkpt lat="46.39904" lon="6.5786">
        <ele>417.83</ele>
        <time>2012-07-27T11:44:44Z</time>
      </trkpt>
      <trkpt lat="46.39944" lon="6.58142">
        <ele>413.5</ele>
        <time>2012-07-27T11:45:07Z</time>
      </trkpt>
      <trkpt lat="46.40158" lon="6.58601">
        <ele>400.05</ele>
        <time>2012-07-27T11:46:04Z</time>
      </trkpt>
      <trkpt lat="46.4017" lon="6.5872">
        <ele>398.6</ele>
        <time>2012-07-27T11:46:16Z</time>
      </trkpt>
      <trkpt lat="46.40194" lon="6.58779">
        <ele>399.57</ele>
        <time>2012-07-27T11:46:23Z</time>
      </trkpt>
      <trkpt lat="46.402" lon="6.59037">
        <ele>400.05</ele>
        <time>2012-07-27T11:46:43Z</time>
      </trkpt>
      <trkpt lat="46.40179" lon="6.59179">
        <ele>399.57</ele>
        <time>2012-07-27T11:46:54Z</time>
      </trkpt>
      <trkpt lat="46.40151" lon="6.59265">
        <ele>398.6</ele>
        <time>2012-07-27T11:47:03Z</time>
      </trkpt>
      <trkpt lat="46.40132" lon="6.59458">
        <ele>400.05</ele>
        <time>2012-07-27T11:47:17Z</time>
      </trkpt>
      <trkpt lat="46.40151" lon="6.59607">
        <ele>398.6</ele>
        <time>2012-07-27T11:47:29Z</time>
      </trkpt>
      <trkpt lat="46.40143" lon="6.59991">
        <ele>398.12</ele>
        <time>2012-07-27T11:48:04Z</time>
      </trkpt>
      <trkpt lat="46.40208" lon="6.60742">
        <ele>398.12</ele>
        <time>2012-07-27T11:48:58Z</time>
      </trkpt>
      <trkpt lat="46.4029" lon="6.61162">
        <ele>398.6</ele>
        <time>2012-07-27T11:49:28Z</time>
      </trkpt>
      <trkpt lat="46.40292" lon="6.61354">
        <ele>398.12</ele>
        <time>2012-07-27T11:49:41Z</time>
      </trkpt>
      <trkpt lat="46.4033" lon="6.61608">
        <ele>397.16</ele>
        <time>2012-07-27T11:50:12Z</time>
      </trkpt>
      <trkpt lat="46.40334" lon="6.61921">
        <ele>397.64</ele>
        <time>2012-07-27T11:50:37Z</time>
      </trkpt>
      <trkpt lat="46.40397" lon="6.62318">
        <ele>398.6</ele>
        <time>2012-07-27T11:51:02Z</time>
      </trkpt>
      <trkpt lat="46.40423" lon="6.62814">
        <ele>398.12</ele>
        <time>2012-07-27T11:51:30Z</time>
      </trkpt>
      <trkpt lat="46.40543" lon="6.6364">
        <ele>399.08</ele>
        <time>2012-07-27T11:52:14Z</time>
      </trkpt>
      <trkpt lat="46.40509" lon="6.63962">
        <ele>398.12</ele>
        <time>2012-07-27T11:52:31Z</time>
      </trkpt>
      <trkpt lat="46.40556" lon="6.64407">
        <ele>397.64</ele>
        <time>2012-07-27T11:52:54Z</time>
      </trkpt>
      <trkpt lat="46.40578" lon="6.64869">
        <ele>396.2</ele>
        <time>2012-07-27T11:53:18Z</time>
      </trkpt>
      <trkpt lat="46.40498" lon="6.6536">
        <ele>396.2</ele>
        <time>2012-07-27T11:53:45Z</time>
      </trkpt>
      <trkpt lat="46.40478" lon="6.65575">
        <ele>396.2</ele>
        <time>2012-07-27T11:53:57Z</time>
      </trkpt>
      <trkpt lat="46.40436" lon="6.66225">
        <ele>397.64</ele>
        <time>2012-07-27T11:54:36Z</time>
      </trkpt>
      <trkpt lat="46.40424" lon="6.66684">
        <ele>399.08</ele>
        <time>2012-07-27T11:55:02Z</time>
      </trkpt>
      <trkpt lat="46.40487" lon="6.67093">
        <ele>403.89</ele>
        <time>2012-07-27T11:55:31Z</time>
      </trkpt>
      <trkpt lat="46.40605" lon="6.6748">
        <ele>409.66</ele>
        <time>2012-07-27T11:55:48Z</time>
      </trkpt>
      <trkpt lat="46.40696" lon="6.67821">
        <ele>404.85</ele>
        <time>2012-07-27T11:56:04Z</time>
      </trkpt>
      <trkpt lat="46.40661" lon="6.68457">
        <ele>411.58</ele>
        <time>2012-07-27T11:56:37Z</time>
      </trkpt>
      <trkpt lat="46.40751" lon="6.68827">
        <ele>410.14</ele>
        <time>2012-07-27T11:56:51Z</time>
      </trkpt>
      <trkpt lat="46.40771" lon="6.69133">
        <ele>412.54</ele>
        <time>2012-07-27T11:57:04Z</time>
      </trkpt>
      <trkpt lat="46.40801" lon="6.69716">
        <ele>409.66</ele>
        <time>2012-07-27T11:57:26Z</time>
      </trkpt>
      <trkpt lat="46.4079" lon="6.69819">
        <ele>411.58</ele>
        <time>2012-07-27T11:57:30Z</time>
      </trkpt>
      <trkpt lat="46.40766" lon="6.7014">
        <ele>410.14</ele>
        <time>2012-07-27T11:57:42Z</time>
      </trkpt>
      <trkpt lat="46.4076" lon="6.70515">
        <ele>410.14</ele>
        <time>2012-07-27T11:57:56Z</time>
      </trkpt>
      <trkpt lat="46.40781" lon="6.7067">
        <ele>409.18</ele>
        <time>2012-07-27T11:58:02Z</time>
      </trkpt>
      <trkpt lat="46.40774" lon="6.70934">
        <ele>410.14</ele>
        <time>2012-07-27T11:58:12Z</time>
      </trkpt>
      <trkpt lat="46.40749" lon="6.71173">
        <ele>408.22</ele>
        <time>2012-07-27T11:58:21Z</time>
      </trkpt>
      <trkpt lat="46.40763" lon="6.713">
        <ele>409.18</ele>
        <time>2012-07-27T11:58:26Z</time>
      </trkpt>
      <trkpt lat="46.40731" lon="6.71535">
        <ele>405.33</ele>
        <time>2012-07-27T11:58:38Z</time>
      </trkpt>
      <trkpt lat="46.40745" lon="6.7169">
        <ele>405.81</ele>
        <time>2012-07-27T11:58:46Z</time>
      </trkpt>
      <trkpt lat="46.40749" lon="6.71833">
        <ele>404.37</ele>
        <time>2012-07-27T11:58:54Z</time>
      </trkpt>
      <trkpt lat="46.4071" lon="6.72063">
        <ele>404.85</ele>
        <time>2012-07-27T11:59:08Z</time>
      </trkpt>
      <trkpt lat="46.40711" lon="6.72158">
        <ele>404.85</ele>
        <time>2012-07-27T11:59:14Z</time>
      </trkpt>
      <trkpt lat="46.40746" lon="6.72347">
        <ele>405.33</ele>
        <time>2012-07-27T11:59:25Z</time>
      </trkpt>
      <trkpt lat="46.40746" lon="6.72365">
        <ele>405.33</ele>
        <time>2012-07-27T11:59:26Z</time>
      </trkpt>
      <trkpt lat="46.40698" lon="6.72545">
        <ele>405.33</ele>
        <time>2012-07-27T11:59:36Z</time>
      </trkpt>
      <trkpt lat="46.40639" lon="6.72679">
        <ele>403.41</ele>
        <time>2012-07-27T11:59:45Z</time>
      </trkpt>
      <trkpt lat="46.40622" lon="6.7291">
        <ele>404.85</ele>
        <time>2012-07-27T11:59:58Z</time>
      </trkpt>
      <trkpt lat="46.40473" lon="6.73549">
        <ele>415.91</ele>
        <time>2012-07-27T12:00:23Z</time>
      </trkpt>
      <trkpt lat="46.40466" lon="6.73605">
        <ele>415.91</ele>
        <time>2012-07-27T12:00:25Z</time>
      </trkpt>
      <trkpt lat="46.40461" lon="6.73838">
        <ele>412.54</ele>
        <time>2012-07-27T12:00:33Z</time>
      </trkpt>
      <trkpt lat="46.40439" lon="6.7404">
        <ele>409.18</ele>
        <time>2012-07-27T12:00:40Z</time>
      </trkpt>
      <trkpt lat="46.40388" lon="6.74304">
        <ele>406.29</ele>
        <time>2012-07-27T12:00:50Z</time>
      </trkpt>
      <trkpt lat="46.40386" lon="6.74327">
        <ele>405.33</ele>
        <time>2012-07-27T12:00:51Z</time>
      </trkpt>
      <trkpt lat="46.40399" lon="6.7444">
        <ele>405.81</ele>
        <time>2012-07-27T12:00:56Z</time>
      </trkpt>
      <trkpt lat="46.40384" lon="6.74543">
        <ele>408.22</ele>
        <time>2012-07-27T12:01:00Z</time>
      </trkpt>
      <trkpt lat="46.40377" lon="6.74863">
        <ele>409.18</ele>
        <time>2012-07-27T12:01:11Z</time>
      </trkpt>
      <trkpt lat="46.40327" lon="6.75086">
        <ele>409.18</ele>
        <time>2012-07-27T12:01:19Z</time>
      </trkpt>
      <trkpt lat="46.40257" lon="6.75363">
        <ele>403.41</ele>
        <time>2012-07-27T12:01:33Z</time>
      </trkpt>
      <trkpt lat="46.40255" lon="6.75416">
        <ele>404.85</ele>
        <time>2012-07-27T12:01:36Z</time>
      </trkpt>
      <trkpt lat="46.40269" lon="6.75517">
        <ele>403.41</ele>
        <time>2012-07-27T12:01:43Z</time>
      </trkpt>
      <trkpt lat="46.40167" lon="6.75772">
        <ele>405.81</ele>
        <time>2012-07-27T12:01:58Z</time>
      </trkpt>
      <trkpt lat="46.40047" lon="6.75887">
        <ele>409.66</ele>
        <time>2012-07-27T12:02:07Z</time>
      </trkpt>
      <trkpt lat="46.40035" lon="6.75909">
        <ele>410.14</ele>
        <time>2012-07-27T12:02:08Z</time>
      </trkpt>
      <trkpt lat="46.40018" lon="6.75958">
        <ele>409.18</ele>
        <time>2012-07-27T12:02:10Z</time>
      </trkpt>
      <trkpt lat="46.39983" lon="6.76289">
        <ele>409.66</ele>
        <time>2012-07-27T12:02:22Z</time>
      </trkpt>
      <trkpt lat="46.39952" lon="6.76437">
        <ele>405.81</ele>
        <time>2012-07-27T12:02:28Z</time>
      </trkpt>
      <trkpt lat="46.39897" lon="6.76594">
        <ele>405.33</ele>
        <time>2012-07-27T12:02:37Z</time>
      </trkpt>
      <trkpt lat="46.39828" lon="6.76878">
        <ele>403.89</ele>
        <time>2012-07-27T12:02:52Z</time>
      </trkpt>
      <trkpt lat="46.39744" lon="6.77078">
        <ele>404.85</ele>
        <time>2012-07-27T12:03:03Z</time>
      </trkpt>
      <trkpt lat="46.39702" lon="6.77224">
        <ele>404.85</ele>
        <time>2012-07-27T12:03:10Z</time>
      </trkpt>
      <trkpt lat="46.397" lon="6.77588">
        <ele>403.89</ele>
        <time>2012-07-27T12:03:26Z</time>
      </trkpt>
      <trkpt lat="46.3957" lon="6.7792">
        <ele>407.26</ele>
        <time>2012-07-27T12:03:43Z</time>
      </trkpt>
      <trkpt lat="46.39494" lon="6.78154">
        <ele>402.45</ele>
        <time>2012-07-27T12:03:56Z</time>
      </trkpt>
      <trkpt lat="46.39486" lon="6.78202">
        <ele>399.57</ele>
        <time>2012-07-27T12:04:08Z</time>
      </trkpt>
      <trkpt lat="46.39499" lon="6.78136">
        <ele>403.89</ele>
        <time>2012-07-27T12:04:23Z</time>
      </trkpt>
      <trkpt lat="46.39536" lon="6.78024">
        <ele>400.05</ele>
        <time>2012-07-27T12:04:33Z</time>
      </trkpt>
      <trkpt lat="46.39507" lon="6.77999">
        <ele>404.37</ele>
        <time>2012-07-27T12:04:49Z</time>
      </trkpt>
      <trkpt lat="46.3953" lon="6.78033">
        <ele>400.53</ele>
        <time>2012-07-27T12:05:15Z</time>
      </trkpt>
      <trkpt lat="46.3946" lon="6.78248">
        <ele>404.37</ele>
        <time>2012-07-27T12:05:28Z</time>
      </trkpt>
      <trkpt lat="46.39395" lon="6.78617">
        <ele>405.33</ele>
        <time>2012-07-27T12:05:46Z</time>
      </trkpt>
      <trkpt lat="46.39374" lon="6.7878">
        <ele>403.41</ele>
        <time>2012-07-27T12:05:54Z</time>
      </trkpt>
      <trkpt lat="46.39258" lon="6.79047">
        <ele>406.29</ele>
        <time>2012-07-27T12:06:08Z</time>
      </trkpt>
      <trkpt lat="46.39253" lon="6.79069">
        <ele>405.81</ele>
        <time>2012-07-27T12:06:09Z</time>
      </trkpt>
      <trkpt lat="46.39232" lon="6.79482">
        <ele>404.85</ele>
        <time>2012-07-27T12:06:28Z</time>
      </trkpt>
      <trkpt lat="46.39306" lon="6.79754">
        <ele>406.29</ele>
        <time>2012-07-27T12:06:41Z</time>
      </trkpt>
      <trkpt lat="46.39373" lon="6.80366">
        <ele>401.49</ele>
        <time>2012-07-27T12:07:19Z</time>
      </trkpt>
      <trkpt lat="46.39233" lon="6.80624">
        <ele>401.97</ele>
        <time>2012-07-27T12:07:54Z</time>
      </trkpt>
      <trkpt lat="46.39163" lon="6.80826">
        <ele>401.01</ele>
        <time>2012-07-27T12:08:11Z</time>
      </trkpt>
      <trkpt lat="46.39076" lon="6.8097">
        <ele>402.45</ele>
        <time>2012-07-27T12:08:25Z</time>
      </trkpt>
      <trkpt lat="46.39005" lon="6.81339">
        <ele>403.41</ele>
        <time>2012-07-27T12:08:48Z</time>
      </trkpt>
      <trkpt lat="46.39001" lon="6.81561">
        <ele>402.45</ele>
        <time>2012-07-27T12:09:00Z</time>
      </trkpt>
      <trkpt lat="46.38964" lon="6.81613">
        <ele>403.41</ele>
        <time>2012-07-27T12:09:04Z</time>
      </trkpt>
      <trkpt lat="46.38896" lon="6.81678">
        <ele>404.37</ele>
        <time>2012-07-27T12:09:10Z</time>
      </trkpt>
      <trkpt lat="46.38866" lon="6.81748">
        <ele>405.33</ele>
        <time>2012-07-27T12:09:14Z</time>
      </trkpt>
      <trkpt lat="46.38739" lon="6.82206">
        <ele>404.37</ele>
        <time>2012-07-27T12:09:38Z</time>
      </trkpt>
      <trkpt lat="46.38679" lon="6.82319">
        <ele>405.33</ele>
        <time>2012-07-27T12:09:45Z</time>
      </trkpt>
      <trkpt lat="46.38672" lon="6.82338">
        <ele>404.85</ele>
        <time>2012-07-27T12:09:46Z</time>
      </trkpt>
      <trkpt lat="46.38535" lon="6.83017">
        <ele>404.85</ele>
        <time>2012-07-27T12:10:19Z</time>
      </trkpt>
      <trkpt lat="46.38686" lon="6.84099">
        <ele>405.33</ele>
        <time>2012-07-27T12:11:07Z</time>
      </trkpt>
      <trkpt lat="46.3875" lon="6.84546">
        <ele>402.45</ele>
        <time>2012-07-27T12:11:31Z</time>
      </trkpt>
      <trkpt lat="46.3875" lon="6.84878">
        <ele>401.97</ele>
        <time>2012-07-27T12:11:50Z</time>
      </trkpt>
      <trkpt lat="46.38697" lon="6.84995">
        <ele>401.97</ele>
        <time>2012-07-27T12:11:58Z</time>
      </trkpt>
      <trkpt lat="46.38669" lon="6.85098">
        <ele>400.53</ele>
        <time>2012-07-27T12:12:05Z</time>
      </trkpt>
      <trkpt lat="46.38555" lon="6.85226">
        <ele>400.05</ele>
        <time>2012-07-27T12:12:20Z</time>
      </trkpt>
      <trkpt lat="46.38498" lon="6.85326">
        <ele>399.57</ele>
        <time>2012-07-27T12:12:31Z</time>
      </trkpt>
      <trkpt lat="46.38279" lon="6.85469">
        <ele>402.93</ele>
        <time>2012-07-27T12:12:56Z</time>
      </trkpt>
      <trkpt lat="46.38147" lon="6.85505">
        <ele>404.37</ele>
        <time>2012-07-27T12:13:07Z</time>
      </trkpt>
      <trkpt lat="46.38067" lon="6.85527">
        <ele>403.41</ele>
        <time>2012-07-27T12:13:14Z</time>
      </trkpt>
      <trkpt lat="46.38032" lon="6.85571">
        <ele>402.93</ele>
        <time>2012-07-27T12:13:20Z</time>
      </trkpt>
      <trkpt lat="46.37998" lon="6.85702">
        <ele>404.85</ele>
        <time>2012-07-27T12:13:29Z</time>
      </trkpt>
      <trkpt lat="46.37981" lon="6.85731">
        <ele>404.37</ele>
        <time>2012-07-27T12:13:31Z</time>
      </trkpt>
      <trkpt lat="46.37808" lon="6.85786">
        <ele>407.74</ele>
        <time>2012-07-27T12:13:43Z</time>
      </trkpt>
      <trkpt lat="46.37742" lon="6.85861">
        <ele>407.74</ele>
        <time>2012-07-27T12:13:48Z</time>
      </trkpt>
      <trkpt lat="46.37608" lon="6.86039">
        <ele>405.33</ele>
        <time>2012-07-27T12:13:59Z</time>
      </trkpt>
      <trkpt lat="46.37544" lon="6.86086">
        <ele>403.89</ele>
        <time>2012-07-27T12:14:05Z</time>
      </trkpt>
      <trkpt lat="46.37403" lon="6.86237">
        <ele>407.26</ele>
        <time>2012-07-27T12:14:17Z</time>
      </trkpt>
      <trkpt lat="46.37307" lon="6.86394">
        <ele>408.22</ele>
        <time>2012-07-27T12:14:26Z</time>
      </trkpt>
      <trkpt lat="46.37237" lon="6.86613">
        <ele>407.74</ele>
        <time>2012-07-27T12:14:36Z</time>
      </trkpt>
      <trkpt lat="46.37166" lon="6.86762">
        <ele>408.22</ele>
        <time>2012-07-27T12:14:43Z</time>
      </trkpt>
      <trkpt lat="46.37123" lon="6.86814">
        <ele>406.77</ele>
        <time>2012-07-27T12:14:46Z</time>
      </trkpt>
      <trkpt lat="46.36946" lon="6.86919">
        <ele>402.93</ele>
        <time>2012-07-27T12:14:56Z</time>
      </trkpt>
      <trkpt lat="46.36835" lon="6.87018">
        <ele>401.01</ele>
        <time>2012-07-27T12:15:03Z</time>
      </trkpt>
      <trkpt lat="46.36601" lon="6.87401">
        <ele>398.12</ele>
        <time>2012-07-27T12:15:26Z</time>
      </trkpt>
      <trkpt lat="46.36492" lon="6.87529">
        <ele>399.08</ele>
        <time>2012-07-27T12:15:37Z</time>
      </trkpt>
      <trkpt lat="46.36307" lon="6.87664">
        <ele>397.16</ele>
        <time>2012-07-27T12:15:54Z</time>
      </trkpt>
      <trkpt lat="46.36021" lon="6.87851">
        <ele>400.53</ele>
        <time>2012-07-27T12:16:21Z</time>
      </trkpt>
      <trkpt lat="46.35898" lon="6.87878">
        <ele>401.97</ele>
        <time>2012-07-27T12:16:31Z</time>
      </trkpt>
      <trkpt lat="46.35772" lon="6.87916">
        <ele>398.6</ele>
        <time>2012-07-27T12:16:41Z</time>
      </trkpt>
      <trkpt lat="46.35667" lon="6.87845">
        <ele>401.01</ele>
        <time>2012-07-27T12:16:53Z</time>
      </trkpt>
      <trkpt lat="46.35622" lon="6.87883">
        <ele>400.05</ele>
        <time>2012-07-27T12:16:59Z</time>
      </trkpt>
      <trkpt lat="46.35394" lon="6.87905">
        <ele>401.49</ele>
        <time>2012-07-27T12:17:14Z</time>
      </trkpt>
      <trkpt lat="46.35282" lon="6.87971">
        <ele>400.05</ele>
        <time>2012-07-27T12:17:21Z</time>
      </trkpt>
      <trkpt lat="46.35196" lon="6.88096">
        <ele>398.12</ele>
        <time>2012-07-27T12:17:28Z</time>
      </trkpt>
      <trkpt lat="46.35065" lon="6.88349">
        <ele>398.6</ele>
        <time>2012-07-27T12:17:40Z</time>
      </trkpt>
      <trkpt lat="46.34913" lon="6.88645">
        <ele>393.8</ele>
        <time>2012-07-27T12:17:57Z</time>
      </trkpt>
      <trkpt lat="46.34868" lon="6.88682">
        <ele>394.28</ele>
        <time>2012-07-27T12:18:01Z</time>
      </trkpt>
      <trkpt lat="46.34398" lon="6.88885">
        <ele>394.28</ele>
        <time>2012-07-27T12:18:35Z</time>
      </trkpt>
      <trkpt lat="46.34277" lon="6.88903">
        <ele>397.16</ele>
        <time>2012-07-27T12:18:45Z</time>
      </trkpt>
      <trkpt lat="46.33954" lon="6.89074">
        <ele>404.85</ele>
        <time>2012-07-27T12:19:16Z</time>
      </trkpt>
      <trkpt lat="46.33792" lon="6.89161">
        <ele>403.41</ele>
        <time>2012-07-27T12:19:32Z</time>
      </trkpt>
      <trkpt lat="46.33745" lon="6.89158">
        <ele>400.53</ele>
        <time>2012-07-27T12:19:37Z</time>
      </trkpt>
      <trkpt lat="46.33727" lon="6.8915">
        <ele>401.97</ele>
        <time>2012-07-27T12:19:39Z</time>
      </trkpt>
      <trkpt lat="46.33661" lon="6.89113">
        <ele>401.01</ele>
        <time>2012-07-27T12:19:49Z</time>
      </trkpt>
      <trkpt lat="46.33646" lon="6.89102">
        <ele>401.01</ele>
        <time>2012-07-27T12:19:52Z</time>
      </trkpt>
      <trkpt lat="46.33619" lon="6.89071">
        <ele>399.57</ele>
        <time>2012-07-27T12:23:43Z</time>
      </trkpt>
      <trkpt lat="46.33598" lon="6.89084">
        <ele>400.53</ele>
        <time>2012-07-27T12:52:31Z</time>
      </trkpt>
      <trkpt lat="46.33617" lon="6.89065">
        <ele>400.53</ele>
        <time>2012-07-27T12:53:06Z</time>
      </trkpt>
      <trkpt lat="46.33004" lon="6.89098">
        <ele>397.64</ele>
        <time>2012-07-27T12:58:09Z</time>
      </trkpt>
      <trkpt lat="46.3282" lon="6.89129">
        <ele>400.05</ele>
        <time>2012-07-27T12:58:20Z</time>
      </trkpt>
      <trkpt lat="46.32615" lon="6.89251">
        <ele>404.85</ele>
        <time>2012-07-27T12:58:32Z</time>
      </trkpt>
      <trkpt lat="46.3241" lon="6.89487">
        <ele>412.54</ele>
        <time>2012-07-27T12:58:46Z</time>
      </trkpt>
      <trkpt lat="46.3233" lon="6.89561">
        <ele>415.43</ele>
        <time>2012-07-27T12:58:51Z</time>
      </trkpt>
      <trkpt lat="46.32201" lon="6.89616">
        <ele>416.87</ele>
        <time>2012-07-27T12:58:58Z</time>
      </trkpt>
      <trkpt lat="46.3212" lon="6.89623">
        <ele>416.39</ele>
        <time>2012-07-27T12:59:02Z</time>
      </trkpt>
      <trkpt lat="46.31938" lon="6.89625">
        <ele>407.26</ele>
        <time>2012-07-27T12:59:12Z</time>
      </trkpt>
      <trkpt lat="46.31809" lon="6.89681">
        <ele>406.29</ele>
        <time>2012-07-27T12:59:21Z</time>
      </trkpt>
      <trkpt lat="46.31677" lon="6.89801">
        <ele>405.33</ele>
        <time>2012-07-27T12:59:32Z</time>
      </trkpt>
      <trkpt lat="46.31556" lon="6.89878">
        <ele>406.29</ele>
        <time>2012-07-27T12:59:43Z</time>
      </trkpt>
      <trkpt lat="46.31147" lon="6.89947">
        <ele>406.29</ele>
        <time>2012-07-27T13:00:18Z</time>
      </trkpt>
      <trkpt lat="46.31117" lon="6.89973">
        <ele>406.29</ele>
        <time>2012-07-27T13:00:21Z</time>
      </trkpt>
      <trkpt lat="46.31101" lon="6.90012">
        <ele>407.26</ele>
        <time>2012-07-27T13:00:24Z</time>
      </trkpt>
      <trkpt lat="46.31058" lon="6.9017">
        <ele>407.26</ele>
        <time>2012-07-27T13:00:35Z</time>
      </trkpt>
      <trkpt lat="46.31023" lon="6.90276">
        <ele>406.29</ele>
        <time>2012-07-27T13:00:46Z</time>
      </trkpt>
      <trkpt lat="46.3105" lon="6.90326">
        <ele>408.7</ele>
        <time>2012-07-27T13:00:51Z</time>
      </trkpt>
      <trkpt lat="46.31076" lon="6.90395">
        <ele>406.29</ele>
        <time>2012-07-27T13:00:55Z</time>
      </trkpt>
      <trkpt lat="46.31488" lon="6.91552">
        <ele>407.26</ele>
        <time>2012-07-27T13:01:51Z</time>
      </trkpt>
      <trkpt lat="46.31596" lon="6.9185">
        <ele>403.41</ele>
        <time>2012-07-27T13:02:04Z</time>
      </trkpt>
      <trkpt lat="46.31613" lon="6.91898">
        <ele>400.53</ele>
        <time>2012-07-27T13:02:06Z</time>
      </trkpt>
      <trkpt lat="46.31754" lon="6.92348">
        <ele>399.08</ele>
        <time>2012-07-27T13:02:24Z</time>
      </trkpt>
      <trkpt lat="46.31808" lon="6.92665">
        <ele>395.72</ele>
        <time>2012-07-27T13:02:42Z</time>
      </trkpt>
      <trkpt lat="46.31934" lon="6.93106">
        <ele>408.7</ele>
        <time>2012-07-27T13:03:04Z</time>
      </trkpt>
      <trkpt lat="46.31941" lon="6.9313">
        <ele>408.7</ele>
        <time>2012-07-27T13:03:05Z</time>
      </trkpt>
      <trkpt lat="46.32022" lon="6.93434">
        <ele>405.81</ele>
        <time>2012-07-27T13:03:18Z</time>
      </trkpt>
      <trkpt lat="46.32072" lon="6.93664">
        <ele>400.53</ele>
        <time>2012-07-27T13:03:32Z</time>
      </trkpt>
      <trkpt lat="46.32087" lon="6.93736">
        <ele>396.68</ele>
        <time>2012-07-27T13:03:37Z</time>
      </trkpt>
      <trkpt lat="46.32266" lon="6.94885">
        <ele>409.66</ele>
        <time>2012-07-27T13:05:08Z</time>
      </trkpt>
      <trkpt lat="46.32307" lon="6.95152">
        <ele>403.89</ele>
        <time>2012-07-27T13:05:23Z</time>
      </trkpt>
      <trkpt lat="46.32344" lon="6.95257">
        <ele>407.74</ele>
        <time>2012-07-27T13:05:31Z</time>
      </trkpt>
      <trkpt lat="46.32454" lon="6.95445">
        <ele>418.31</ele>
        <time>2012-07-27T13:05:43Z</time>
      </trkpt>
      <trkpt lat="46.32493" lon="6.95517">
        <ele>421.68</ele>
        <time>2012-07-27T13:05:47Z</time>
      </trkpt>
      <trkpt lat="46.32596" lon="6.95699">
        <ele>425.52</ele>
        <time>2012-07-27T13:05:57Z</time>
      </trkpt>
      <trkpt lat="46.32722" lon="6.95922">
        <ele>419.27</ele>
        <time>2012-07-27T13:06:12Z</time>
      </trkpt>
      <trkpt lat="46.32728" lon="6.95943">
        <ele>416.87</ele>
        <time>2012-07-27T13:06:15Z</time>
      </trkpt>
      <trkpt lat="46.3272" lon="6.95985">
        <ele>417.35</ele>
        <time>2012-07-27T13:06:20Z</time>
      </trkpt>
      <trkpt lat="46.32667" lon="6.96096">
        <ele>417.35</ele>
        <time>2012-07-27T13:06:28Z</time>
      </trkpt>
      <trkpt lat="46.32554" lon="6.96259">
        <ele>417.35</ele>
        <time>2012-07-27T13:06:39Z</time>
      </trkpt>
      <trkpt lat="46.32269" lon="6.96585">
        <ele>422.64</ele>
        <time>2012-07-27T13:07:06Z</time>
      </trkpt>
      <trkpt lat="46.32162" lon="6.96764">
        <ele>425.04</ele>
        <time>2012-07-27T13:07:18Z</time>
      </trkpt>
      <trkpt lat="46.32109" lon="6.96806">
        <ele>427.44</ele>
        <time>2012-07-27T13:07:23Z</time>
      </trkpt>
      <trkpt lat="46.32041" lon="6.96846">
        <ele>425.52</ele>
        <time>2012-07-27T13:07:29Z</time>
      </trkpt>
      <trkpt lat="46.3194" lon="6.97004">
        <ele>426.48</ele>
        <time>2012-07-27T13:07:42Z</time>
      </trkpt>
      <trkpt lat="46.31903" lon="6.97037">
        <ele>426.48</ele>
        <time>2012-07-27T13:07:48Z</time>
      </trkpt>
      <trkpt lat="46.31816" lon="6.97273">
        <ele>433.21</ele>
        <time>2012-07-27T13:08:05Z</time>
      </trkpt>
      <trkpt lat="46.31758" lon="6.97407">
        <ele>432.73</ele>
        <time>2012-07-27T13:08:20Z</time>
      </trkpt>
      <trkpt lat="46.31757" lon="6.97485">
        <ele>435.13</ele>
        <time>2012-07-27T13:08:26Z</time>
      </trkpt>
      <trkpt lat="46.3178" lon="6.97535">
        <ele>437.54</ele>
        <time>2012-07-27T13:08:30Z</time>
      </trkpt>
      <trkpt lat="46.31822" lon="6.97577">
        <ele>437.54</ele>
        <time>2012-07-27T13:08:35Z</time>
      </trkpt>
      <trkpt lat="46.31836" lon="6.9764">
        <ele>438.98</ele>
        <time>2012-07-27T13:08:39Z</time>
      </trkpt>
      <trkpt lat="46.31802" lon="6.97914">
        <ele>446.67</ele>
        <time>2012-07-27T13:08:52Z</time>
      </trkpt>
      <trkpt lat="46.31743" lon="6.98033">
        <ele>454.84</ele>
        <time>2012-07-27T13:08:59Z</time>
      </trkpt>
      <trkpt lat="46.31728" lon="6.98107">
        <ele>458.21</ele>
        <time>2012-07-27T13:09:03Z</time>
      </trkpt>
      <trkpt lat="46.31744" lon="6.98272">
        <ele>470.22</ele>
        <time>2012-07-27T13:09:11Z</time>
      </trkpt>
      <trkpt lat="46.31755" lon="6.98424">
        <ele>477.43</ele>
        <time>2012-07-27T13:09:18Z</time>
      </trkpt>
      <trkpt lat="46.31798" lon="6.98658">
        <ele>489.45</ele>
        <time>2012-07-27T13:09:30Z</time>
      </trkpt>
      <trkpt lat="46.31803" lon="6.98784">
        <ele>495.22</ele>
        <time>2012-07-27T13:09:37Z</time>
      </trkpt>
      <trkpt lat="46.31784" lon="6.98864">
        <ele>498.1</ele>
        <time>2012-07-27T13:09:44Z</time>
      </trkpt>
      <trkpt lat="46.318" lon="6.98862">
        <ele>499.06</ele>
        <time>2012-07-27T13:09:47Z</time>
      </trkpt>
      <trkpt lat="46.3182" lon="6.98797">
        <ele>503.87</ele>
        <time>2012-07-27T13:09:52Z</time>
      </trkpt>
      <trkpt lat="46.31819" lon="6.98685">
        <ele>510.6</ele>
        <time>2012-07-27T13:09:58Z</time>
      </trkpt>
      <trkpt lat="46.31819" lon="6.98623">
        <ele>514.44</ele>
        <time>2012-07-27T13:10:01Z</time>
      </trkpt>
      <trkpt lat="46.31818" lon="6.98567">
        <ele>516.37</ele>
        <time>2012-07-27T13:10:04Z</time>
      </trkpt>
      <trkpt lat="46.31817" lon="6.98544">
        <ele>514.92</ele>
        <time>2012-07-27T13:10:06Z</time>
      </trkpt>
      <trkpt lat="46.31823" lon="6.98533">
        <ele>514.92</ele>
        <time>2012-07-27T13:10:08Z</time>
      </trkpt>
      <trkpt lat="46.31831" lon="6.98621">
        <ele>521.65</ele>
        <time>2012-07-27T13:10:16Z</time>
      </trkpt>
      <trkpt lat="46.31856" lon="6.98733">
        <ele>526.94</ele>
        <time>2012-07-27T13:10:37Z</time>
      </trkpt>
      <trkpt lat="46.3186" lon="6.98869">
        <ele>537.51</ele>
        <time>2012-07-27T13:10:47Z</time>
      </trkpt>
      <trkpt lat="46.31883" lon="6.98993">
        <ele>545.69</ele>
        <time>2012-07-27T13:10:54Z</time>
      </trkpt>
      <trkpt lat="46.31897" lon="6.99177">
        <ele>557.22</ele>
        <time>2012-07-27T13:11:04Z</time>
      </trkpt>
      <trkpt lat="46.31963" lon="6.99393">
        <ele>568.76</ele>
        <time>2012-07-27T13:11:16Z</time>
      </trkpt>
      <trkpt lat="46.31991" lon="6.99465">
        <ele>570.68</ele>
        <time>2012-07-27T13:11:21Z</time>
      </trkpt>
      <trkpt lat="46.31974" lon="6.99603">
        <ele>580.29</ele>
        <time>2012-07-27T13:11:30Z</time>
      </trkpt>
      <trkpt lat="46.32001" lon="6.99749">
        <ele>587.5</ele>
        <time>2012-07-27T13:11:37Z</time>
      </trkpt>
      <trkpt lat="46.32047" lon="6.99883">
        <ele>591.35</ele>
        <time>2012-07-27T13:11:44Z</time>
      </trkpt>
      <trkpt lat="46.3206" lon="6.99968">
        <ele>595.19</ele>
        <time>2012-07-27T13:11:48Z</time>
      </trkpt>
      <trkpt lat="46.32074" lon="7.00019">
        <ele>595.67</ele>
        <time>2012-07-27T13:11:51Z</time>
      </trkpt>
      <trkpt lat="46.32103" lon="7.00053">
        <ele>599.52</ele>
        <time>2012-07-27T13:11:54Z</time>
      </trkpt>
      <trkpt lat="46.32177" lon="7.00097">
        <ele>601.92</ele>
        <time>2012-07-27T13:12:03Z</time>
      </trkpt>
      <trkpt lat="46.3211" lon="7.00042">
        <ele>606.73</ele>
        <time>2012-07-27T13:12:11Z</time>
      </trkpt>
      <trkpt lat="46.32086" lon="6.99999">
        <ele>609.61</ele>
        <time>2012-07-27T13:12:14Z</time>
      </trkpt>
      <trkpt lat="46.32095" lon="6.99867">
        <ele>615.86</ele>
        <time>2012-07-27T13:12:20Z</time>
      </trkpt>
      <trkpt lat="46.32113" lon="6.99759">
        <ele>617.78</ele>
        <time>2012-07-27T13:12:27Z</time>
      </trkpt>
      <trkpt lat="46.32142" lon="6.99767">
        <ele>619.71</ele>
        <time>2012-07-27T13:12:31Z</time>
      </trkpt>
      <trkpt lat="46.32141" lon="6.99811">
        <ele>622.59</ele>
        <time>2012-07-27T13:12:34Z</time>
      </trkpt>
      <trkpt lat="46.32138" lon="6.99915">
        <ele>629.32</ele>
        <time>2012-07-27T13:12:41Z</time>
      </trkpt>
      <trkpt lat="46.32153" lon="6.99939">
        <ele>631.24</ele>
        <time>2012-07-27T13:12:43Z</time>
      </trkpt>
      <trkpt lat="46.32202" lon="7.00001">
        <ele>637.01</ele>
        <time>2012-07-27T13:12:48Z</time>
      </trkpt>
      <trkpt lat="46.3222" lon="7.0008">
        <ele>642.78</ele>
        <time>2012-07-27T13:12:52Z</time>
      </trkpt>
      <trkpt lat="46.32237" lon="7.00165">
        <ele>647.1</ele>
        <time>2012-07-27T13:12:56Z</time>
      </trkpt>
      <trkpt lat="46.32315" lon="7.00369">
        <ele>656.24</ele>
        <time>2012-07-27T13:13:06Z</time>
      </trkpt>
      <trkpt lat="46.32394" lon="7.00496">
        <ele>665.37</ele>
        <time>2012-07-27T13:13:13Z</time>
      </trkpt>
      <trkpt lat="46.32445" lon="7.00581">
        <ele>669.7</ele>
        <time>2012-07-27T13:13:18Z</time>
      </trkpt>
      <trkpt lat="46.32466" lon="7.00644">
        <ele>673.54</ele>
        <time>2012-07-27T13:13:21Z</time>
      </trkpt>
      <trkpt lat="46.32485" lon="7.00748">
        <ele>674.02</ele>
        <time>2012-07-27T13:13:26Z</time>
      </trkpt>
      <trkpt lat="46.32549" lon="7.00892">
        <ele>678.35</ele>
        <time>2012-07-27T13:13:33Z</time>
      </trkpt>
      <trkpt lat="46.326" lon="7.0102">
        <ele>679.79</ele>
        <time>2012-07-27T13:13:39Z</time>
      </trkpt>
      <trkpt lat="46.32774" lon="7.01291">
        <ele>701.42</ele>
        <time>2012-07-27T13:13:54Z</time>
      </trkpt>
      <trkpt lat="46.32841" lon="7.01363">
        <ele>707.67</ele>
        <time>2012-07-27T13:13:59Z</time>
      </trkpt>
      <trkpt lat="46.32894" lon="7.01444">
        <ele>714.4</ele>
        <time>2012-07-27T13:14:04Z</time>
      </trkpt>
      <trkpt lat="46.32922" lon="7.01478">
        <ele>714.88</ele>
        <time>2012-07-27T13:14:07Z</time>
      </trkpt>
      <trkpt lat="46.3293" lon="7.01527">
        <ele>717.28</ele>
        <time>2012-07-27T13:14:10Z</time>
      </trkpt>
      <trkpt lat="46.3291" lon="7.01599">
        <ele>721.61</ele>
        <time>2012-07-27T13:14:14Z</time>
      </trkpt>
      <trkpt lat="46.32913" lon="7.01664">
        <ele>726.89</ele>
        <time>2012-07-27T13:14:17Z</time>
      </trkpt>
      <trkpt lat="46.3293" lon="7.01752">
        <ele>730.26</ele>
        <time>2012-07-27T13:14:22Z</time>
      </trkpt>
      <trkpt lat="46.33013" lon="7.01822">
        <ele>736.99</ele>
        <time>2012-07-27T13:14:30Z</time>
      </trkpt>
      <trkpt lat="46.33073" lon="7.01951">
        <ele>746.6</ele>
        <time>2012-07-27T13:14:37Z</time>
      </trkpt>
      <trkpt lat="46.33089" lon="7.0198">
        <ele>747.08</ele>
        <time>2012-07-27T13:14:39Z</time>
      </trkpt>
      <trkpt lat="46.33166" lon="7.02033">
        <ele>755.25</ele>
        <time>2012-07-27T13:17:29Z</time>
      </trkpt>
      <trkpt lat="46.33209" lon="7.02053">
        <ele>757.66</ele>
        <time>2012-07-27T13:17:33Z</time>
      </trkpt>
      <trkpt lat="46.33289" lon="7.02151">
        <ele>765.35</ele>
        <time>2012-07-27T13:17:41Z</time>
      </trkpt>
      <trkpt lat="46.33365" lon="7.02198">
        <ele>771.6</ele>
        <time>2012-07-27T13:17:47Z</time>
      </trkpt>
      <trkpt lat="46.33489" lon="7.02391">
        <ele>788.42</ele>
        <time>2012-07-27T13:18:00Z</time>
      </trkpt>
      <trkpt lat="46.33499" lon="7.02391">
        <ele>805.24</ele>
        <time>2012-07-27T13:18:15Z</time>
      </trkpt>
      <trkpt lat="46.33591" lon="7.02652">
        <ele>807.64</ele>
        <time>2012-07-27T13:18:17Z</time>
      </trkpt>
      <trkpt lat="46.33617" lon="7.02654">
        <ele>808.13</ele>
        <time>2012-07-27T13:18:18Z</time>
      </trkpt>
      <trkpt lat="46.33569" lon="7.02802">
        <ele>813.41</ele>
        <time>2012-07-27T13:18:29Z</time>
      </trkpt>
      <trkpt lat="46.33589" lon="7.02918">
        <ele>815.82</ele>
        <time>2012-07-27T13:18:38Z</time>
      </trkpt>
      <trkpt lat="46.33686" lon="7.03083">
        <ele>823.03</ele>
        <time>2012-07-27T13:18:49Z</time>
      </trkpt>
      <trkpt lat="46.33761" lon="7.0321">
        <ele>825.91</ele>
        <time>2012-07-27T13:18:56Z</time>
      </trkpt>
      <trkpt lat="46.3387" lon="7.03322">
        <ele>822.55</ele>
        <time>2012-07-27T13:19:05Z</time>
      </trkpt>
      <trkpt lat="46.33914" lon="7.03453">
        <ele>826.39</ele>
        <time>2012-07-27T13:19:12Z</time>
      </trkpt>
      <trkpt lat="46.34002" lon="7.03612">
        <ele>832.64</ele>
        <time>2012-07-27T13:19:21Z</time>
      </trkpt>
      <trkpt lat="46.34289" lon="7.03876">
        <ele>846.58</ele>
        <time>2012-07-27T13:19:42Z</time>
      </trkpt>
      <trkpt lat="46.34555" lon="7.04067">
        <ele>860.04</ele>
        <time>2012-07-27T13:19:59Z</time>
      </trkpt>
      <trkpt lat="46.34682" lon="7.04115">
        <ele>864.84</ele>
        <time>2012-07-27T13:20:06Z</time>
      </trkpt>
      <trkpt lat="46.34828" lon="7.04145">
        <ele>869.17</ele>
        <time>2012-07-27T13:20:14Z</time>
      </trkpt>
      <trkpt lat="46.34988" lon="7.0422">
        <ele>875.42</ele>
        <time>2012-07-27T13:20:24Z</time>
      </trkpt>
      <trkpt lat="46.35008" lon="7.04249">
        <ele>877.82</ele>
        <time>2012-07-27T13:20:26Z</time>
      </trkpt>
      <trkpt lat="46.35029" lon="7.04348">
        <ele>885.03</ele>
        <time>2012-07-27T13:20:31Z</time>
      </trkpt>
      <trkpt lat="46.35036" lon="7.04365">
        <ele>885.99</ele>
        <time>2012-07-27T13:20:32Z</time>
      </trkpt>
      <trkpt lat="46.35086" lon="7.04499">
        <ele>885.51</ele>
        <time>2012-07-27T13:20:40Z</time>
      </trkpt>
      <trkpt lat="46.3512" lon="7.04529">
        <ele>887.43</ele>
        <time>2012-07-27T13:20:43Z</time>
      </trkpt>
      <trkpt lat="46.35155" lon="7.04601">
        <ele>890.8</ele>
        <time>2012-07-27T13:20:48Z</time>
      </trkpt>
      <trkpt lat="46.35213" lon="7.04662">
        <ele>897.05</ele>
        <time>2012-07-27T13:20:54Z</time>
      </trkpt>
      <trkpt lat="46.35353" lon="7.04828">
        <ele>907.62</ele>
        <time>2012-07-27T13:21:07Z</time>
      </trkpt>
      <trkpt lat="46.35418" lon="7.04877">
        <ele>913.87</ele>
        <time>2012-07-27T13:21:13Z</time>
      </trkpt>
      <trkpt lat="46.35466" lon="7.04881">
        <ele>915.79</ele>
        <time>2012-07-27T13:21:18Z</time>
      </trkpt>
      <trkpt lat="46.3549" lon="7.0486">
        <ele>915.31</ele>
        <time>2012-07-27T13:21:21Z</time>
      </trkpt>
      <trkpt lat="46.35519" lon="7.04876">
        <ele>917.24</ele>
        <time>2012-07-27T13:21:24Z</time>
      </trkpt>
      <trkpt lat="46.35541" lon="7.04885">
        <ele>917.24</ele>
        <time>2012-07-27T13:21:26Z</time>
      </trkpt>
      <trkpt lat="46.35667" lon="7.04851">
        <ele>925.89</ele>
        <time>2012-07-27T13:21:36Z</time>
      </trkpt>
      <trkpt lat="46.35754" lon="7.04772">
        <ele>929.73</ele>
        <time>2012-07-27T13:21:44Z</time>
      </trkpt>
      <trkpt lat="46.35811" lon="7.04789">
        <ele>935.02</ele>
        <time>2012-07-27T13:21:48Z</time>
      </trkpt>
      <trkpt lat="46.35887" lon="7.04854">
        <ele>937.9</ele>
        <time>2012-07-27T13:21:54Z</time>
      </trkpt>
      <trkpt lat="46.35998" lon="7.04886">
        <ele>945.59</ele>
        <time>2012-07-27T13:22:01Z</time>
      </trkpt>
      <trkpt lat="46.36078" lon="7.0493">
        <ele>948.48</ele>
        <time>2012-07-27T13:22:07Z</time>
      </trkpt>
      <trkpt lat="46.36095" lon="7.05006">
        <ele>949.44</ele>
        <time>2012-07-27T13:22:11Z</time>
      </trkpt>
      <trkpt lat="46.36054" lon="7.05383">
        <ele>966.26</ele>
        <time>2012-07-27T13:22:28Z</time>
      </trkpt>
      <trkpt lat="46.36054" lon="7.0549">
        <ele>970.59</ele>
        <time>2012-07-27T13:22:33Z</time>
      </trkpt>
      <trkpt lat="46.36052" lon="7.0551">
        <ele>971.07</ele>
        <time>2012-07-27T13:22:34Z</time>
      </trkpt>
      <trkpt lat="46.36031" lon="7.05555">
        <ele>974.43</ele>
        <time>2012-07-27T13:22:37Z</time>
      </trkpt>
      <trkpt lat="46.36006" lon="7.05564">
        <ele>977.32</ele>
        <time>2012-07-27T13:22:39Z</time>
      </trkpt>
      <trkpt lat="46.35936" lon="7.05556">
        <ele>981.64</ele>
        <time>2012-07-27T13:22:44Z</time>
      </trkpt>
      <trkpt lat="46.35908" lon="7.05578">
        <ele>982.6</ele>
        <time>2012-07-27T13:22:47Z</time>
      </trkpt>
      <trkpt lat="46.35902" lon="7.05609">
        <ele>983.57</ele>
        <time>2012-07-27T13:22:49Z</time>
      </trkpt>
      <trkpt lat="46.35912" lon="7.05639">
        <ele>985.01</ele>
        <time>2012-07-27T13:22:51Z</time>
      </trkpt>
      <trkpt lat="46.3595" lon="7.05658">
        <ele>988.85</ele>
        <time>2012-07-27T13:22:54Z</time>
      </trkpt>
      <trkpt lat="46.36007" lon="7.05664">
        <ele>993.66</ele>
        <time>2012-07-27T13:22:58Z</time>
      </trkpt>
      <trkpt lat="46.361" lon="7.05687">
        <ele>1000.39</ele>
        <time>2012-07-27T13:23:05Z</time>
      </trkpt>
      <trkpt lat="46.3611" lon="7.05748">
        <ele>1004.23</ele>
        <time>2012-07-27T13:23:09Z</time>
      </trkpt>
      <trkpt lat="46.36085" lon="7.05786">
        <ele>1008.56</ele>
        <time>2012-07-27T13:23:12Z</time>
      </trkpt>
      <trkpt lat="46.36058" lon="7.05866">
        <ele>1015.29</ele>
        <time>2012-07-27T13:23:17Z</time>
      </trkpt>
      <trkpt lat="46.36051" lon="7.06017">
        <ele>1022.98</ele>
        <time>2012-07-27T13:23:24Z</time>
      </trkpt>
      <trkpt lat="46.35996" lon="7.06158">
        <ele>1032.59</ele>
        <time>2012-07-27T13:23:31Z</time>
      </trkpt>
      <trkpt lat="46.3597" lon="7.06218">
        <ele>1036.44</ele>
        <time>2012-07-27T13:23:34Z</time>
      </trkpt>
      <trkpt lat="46.35949" lon="7.06304">
        <ele>1041.25</ele>
        <time>2012-07-27T13:23:38Z</time>
      </trkpt>
      <trkpt lat="46.35949" lon="7.06438">
        <ele>1047.01</ele>
        <time>2012-07-27T13:23:44Z</time>
      </trkpt>
      <trkpt lat="46.35974" lon="7.06508">
        <ele>1052.3</ele>
        <time>2012-07-27T13:23:48Z</time>
      </trkpt>
      <trkpt lat="46.36009" lon="7.06565">
        <ele>1052.78</ele>
        <time>2012-07-27T13:23:53Z</time>
      </trkpt>
      <trkpt lat="46.3603" lon="7.06564">
        <ele>1054.22</ele>
        <time>2012-07-27T13:23:57Z</time>
      </trkpt>
      <trkpt lat="46.36012" lon="7.06532">
        <ele>1057.59</ele>
        <time>2012-07-27T13:24:01Z</time>
      </trkpt>
      <trkpt lat="46.35994" lon="7.06509">
        <ele>1060.47</ele>
        <time>2012-07-27T13:24:03Z</time>
      </trkpt>
      <trkpt lat="46.3597" lon="7.06428">
        <ele>1065.28</ele>
        <time>2012-07-27T13:24:08Z</time>
      </trkpt>
      <trkpt lat="46.35984" lon="7.06346">
        <ele>1069.12</ele>
        <time>2012-07-27T13:24:12Z</time>
      </trkpt>
      <trkpt lat="46.36015" lon="7.0627">
        <ele>1074.41</ele>
        <time>2012-07-27T13:24:16Z</time>
      </trkpt>
      <trkpt lat="46.3611" lon="7.06157">
        <ele>1081.14</ele>
        <time>2012-07-27T13:24:24Z</time>
      </trkpt>
      <trkpt lat="46.36242" lon="7.06086">
        <ele>1091.71</ele>
        <time>2012-07-27T13:24:33Z</time>
      </trkpt>
      <trkpt lat="46.36323" lon="7.06042">
        <ele>1096.04</ele>
        <time>2012-07-27T13:24:39Z</time>
      </trkpt>
      <trkpt lat="46.36362" lon="7.06009">
        <ele>1096.04</ele>
        <time>2012-07-27T13:24:43Z</time>
      </trkpt>
      <trkpt lat="46.3638" lon="7.06022">
        <ele>1097</ele>
        <time>2012-07-27T13:24:47Z</time>
      </trkpt>
      <trkpt lat="46.36361" lon="7.06043">
        <ele>1100.37</ele>
        <time>2012-07-27T13:24:50Z</time>
      </trkpt>
      <trkpt lat="46.36351" lon="7.0605">
        <ele>1101.33</ele>
        <time>2012-07-27T13:24:51Z</time>
      </trkpt>
      <trkpt lat="46.36305" lon="7.06095">
        <ele>1107.1</ele>
        <time>2012-07-27T13:24:55Z</time>
      </trkpt>
      <trkpt lat="46.36189" lon="7.06181">
        <ele>1117.19</ele>
        <time>2012-07-27T13:25:03Z</time>
      </trkpt>
      <trkpt lat="46.36106" lon="7.0628">
        <ele>1124.88</ele>
        <time>2012-07-27T13:25:10Z</time>
      </trkpt>
      <trkpt lat="46.36096" lon="7.063">
        <ele>1124.88</ele>
        <time>2012-07-27T13:25:11Z</time>
      </trkpt>
      <trkpt lat="46.36087" lon="7.06371">
        <ele>1128.73</ele>
        <time>2012-07-27T13:25:15Z</time>
      </trkpt>
      <trkpt lat="46.36113" lon="7.06442">
        <ele>1135.45</ele>
        <time>2012-07-27T13:25:19Z</time>
      </trkpt>
      <trkpt lat="46.36144" lon="7.06519">
        <ele>1140.74</ele>
        <time>2012-07-27T13:25:23Z</time>
      </trkpt>
      <trkpt lat="46.36171" lon="7.06621">
        <ele>1145.55</ele>
        <time>2012-07-27T13:25:28Z</time>
      </trkpt>
      <trkpt lat="46.36228" lon="7.06719">
        <ele>1153.72</ele>
        <time>2012-07-27T13:25:34Z</time>
      </trkpt>
      <trkpt lat="46.36252" lon="7.06772">
        <ele>1156.12</ele>
        <time>2012-07-27T13:25:37Z</time>
      </trkpt>
      <trkpt lat="46.36389" lon="7.06959">
        <ele>1172.95</ele>
        <time>2012-07-27T13:25:48Z</time>
      </trkpt>
      <trkpt lat="46.36555" lon="7.07243">
        <ele>1192.65</ele>
        <time>2012-07-27T13:26:03Z</time>
      </trkpt>
      <trkpt lat="46.36666" lon="7.07393">
        <ele>1202.75</ele>
        <time>2012-07-27T13:26:13Z</time>
      </trkpt>
      <trkpt lat="46.36738" lon="7.07544">
        <ele>1210.44</ele>
        <time>2012-07-27T13:26:41Z</time>
      </trkpt>
      <trkpt lat="46.36771" lon="7.07594">
        <ele>1218.61</ele>
        <time>2012-07-27T13:26:45Z</time>
      </trkpt>
      <trkpt lat="46.36813" lon="7.07642">
        <ele>1223.42</ele>
        <time>2012-07-27T13:26:48Z</time>
      </trkpt>
      <trkpt lat="46.36955" lon="7.07754">
        <ele>1237.83</ele>
        <time>2012-07-27T13:26:57Z</time>
      </trkpt>
      <trkpt lat="46.37029" lon="7.07778">
        <ele>1243.6</ele>
        <time>2012-07-27T13:27:02Z</time>
      </trkpt>
      <trkpt lat="46.371" lon="7.07754">
        <ele>1247.45</ele>
        <time>2012-07-27T13:27:07Z</time>
      </trkpt>
      <trkpt lat="46.37143" lon="7.07762">
        <ele>1252.25</ele>
        <time>2012-07-27T13:27:10Z</time>
      </trkpt>
      <trkpt lat="46.37179" lon="7.07793">
        <ele>1254.18</ele>
        <time>2012-07-27T13:27:14Z</time>
      </trkpt>
      <trkpt lat="46.37241" lon="7.07737">
        <ele>1261.39</ele>
        <time>2012-07-27T13:27:19Z</time>
      </trkpt>
      <trkpt lat="46.37335" lon="7.07685">
        <ele>1267.64</ele>
        <time>2012-07-27T13:27:27Z</time>
      </trkpt>
      <trkpt lat="46.37392" lon="7.07698">
        <ele>1275.33</ele>
        <time>2012-07-27T13:27:32Z</time>
      </trkpt>
      <trkpt lat="46.37462" lon="7.0772">
        <ele>1280.61</ele>
        <time>2012-07-27T13:27:37Z</time>
      </trkpt>
      <trkpt lat="46.37511" lon="7.07781">
        <ele>1286.38</ele>
        <time>2012-07-27T13:27:41Z</time>
      </trkpt>
      <trkpt lat="46.37516" lon="7.07806">
        <ele>1287.34</ele>
        <time>2012-07-27T13:27:42Z</time>
      </trkpt>
      <trkpt lat="46.37529" lon="7.07848">
        <ele>1289.27</ele>
        <time>2012-07-27T13:27:44Z</time>
      </trkpt>
      <trkpt lat="46.37584" lon="7.07903">
        <ele>1294.07</ele>
        <time>2012-07-27T13:27:48Z</time>
      </trkpt>
      <trkpt lat="46.37645" lon="7.07955">
        <ele>1297.92</ele>
        <time>2012-07-27T13:27:52Z</time>
      </trkpt>
      <trkpt lat="46.37686" lon="7.0803">
        <ele>1302.72</ele>
        <time>2012-07-27T13:27:56Z</time>
      </trkpt>
      <trkpt lat="46.37724" lon="7.08077">
        <ele>1305.13</ele>
        <time>2012-07-27T13:27:59Z</time>
      </trkpt>
      <trkpt lat="46.37805" lon="7.08122">
        <ele>1308.49</ele>
        <time>2012-07-27T13:28:05Z</time>
      </trkpt>
      <trkpt lat="46.37978" lon="7.08335">
        <ele>1318.59</ele>
        <time>2012-07-27T13:28:21Z</time>
      </trkpt>
      <trkpt lat="46.38023" lon="7.08417">
        <ele>1322.91</ele>
        <time>2012-07-27T13:28:26Z</time>
      </trkpt>
      <trkpt lat="46.38083" lon="7.08491">
        <ele>1327.72</ele>
        <time>2012-07-27T13:28:31Z</time>
      </trkpt>
      <trkpt lat="46.38147" lon="7.08556">
        <ele>1331.08</ele>
        <time>2012-07-27T13:28:36Z</time>
      </trkpt>
      <trkpt lat="46.38232" lon="7.08624">
        <ele>1334.93</ele>
        <time>2012-07-27T13:28:42Z</time>
      </trkpt>
      <trkpt lat="46.38394" lon="7.08802">
        <ele>1341.18</ele>
        <time>2012-07-27T13:28:56Z</time>
      </trkpt>
      <trkpt lat="46.38519" lon="7.08908">
        <ele>1346.46</ele>
        <time>2012-07-27T13:29:05Z</time>
      </trkpt>
      <trkpt lat="46.38607" lon="7.09018">
        <ele>1352.71</ele>
        <time>2012-07-27T13:29:12Z</time>
      </trkpt>
      <trkpt lat="46.38651" lon="7.09093">
        <ele>1355.6</ele>
        <time>2012-07-27T13:29:16Z</time>
      </trkpt>
      <trkpt lat="46.38831" lon="7.09294">
        <ele>1366.65</ele>
        <time>2012-07-27T13:29:28Z</time>
      </trkpt>
      <trkpt lat="46.38984" lon="7.09459">
        <ele>1373.38</ele>
        <time>2012-07-27T13:29:39Z</time>
      </trkpt>
      <trkpt lat="46.39041" lon="7.09539">
        <ele>1374.82</ele>
        <time>2012-07-27T13:29:45Z</time>
      </trkpt>
      <trkpt lat="46.39162" lon="7.09554">
        <ele>1379.15</ele>
        <time>2012-07-27T13:29:54Z</time>
      </trkpt>
      <trkpt lat="46.39213" lon="7.09587">
        <ele>1381.55</ele>
        <time>2012-07-27T13:29:58Z</time>
      </trkpt>
      <trkpt lat="46.39279" lon="7.09674">
        <ele>1383.47</ele>
        <time>2012-07-27T13:30:04Z</time>
      </trkpt>
      <trkpt lat="46.39303" lon="7.09727">
        <ele>1386.36</ele>
        <time>2012-07-27T13:30:07Z</time>
      </trkpt>
      <trkpt lat="46.39327" lon="7.09806">
        <ele>1388.28</ele>
        <time>2012-07-27T13:30:11Z</time>
      </trkpt>
      <trkpt lat="46.39384" lon="7.0991">
        <ele>1391.65</ele>
        <time>2012-07-27T13:30:17Z</time>
      </trkpt>
      <trkpt lat="46.39445" lon="7.10044">
        <ele>1393.57</ele>
        <time>2012-07-27T13:30:25Z</time>
      </trkpt>
      <trkpt lat="46.3948" lon="7.1017">
        <ele>1398.86</ele>
        <time>2012-07-27T13:30:32Z</time>
      </trkpt>
      <trkpt lat="46.39525" lon="7.10214">
        <ele>1401.26</ele>
        <time>2012-07-27T13:30:36Z</time>
      </trkpt>
      <trkpt lat="46.39581" lon="7.10219">
        <ele>1405.1</ele>
        <time>2012-07-27T13:30:40Z</time>
      </trkpt>
      <trkpt lat="46.39594" lon="7.10215">
        <ele>1405.58</ele>
        <time>2012-07-27T13:30:41Z</time>
      </trkpt>
      <trkpt lat="46.39739" lon="7.1015">
        <ele>1407.51</ele>
        <time>2012-07-27T13:30:52Z</time>
      </trkpt>
      <trkpt lat="46.3978" lon="7.10169">
        <ele>1407.99</ele>
        <time>2012-07-27T13:30:55Z</time>
      </trkpt>
      <trkpt lat="46.39831" lon="7.10223">
        <ele>1409.91</ele>
        <time>2012-07-27T13:30:59Z</time>
      </trkpt>
      <trkpt lat="46.39912" lon="7.10271">
        <ele>1409.43</ele>
        <time>2012-07-27T13:31:05Z</time>
      </trkpt>
      <trkpt lat="46.40011" lon="7.10247">
        <ele>1410.39</ele>
        <time>2012-07-27T13:31:12Z</time>
      </trkpt>
      <trkpt lat="46.40139" lon="7.10286">
        <ele>1404.62</ele>
        <time>2012-07-27T13:31:21Z</time>
      </trkpt>
      <trkpt lat="46.40209" lon="7.10228">
        <ele>1403.66</ele>
        <time>2012-07-27T13:31:27Z</time>
      </trkpt>
      <trkpt lat="46.4025" lon="7.10222">
        <ele>1403.66</ele>
        <time>2012-07-27T13:31:30Z</time>
      </trkpt>
      <trkpt lat="46.40393" lon="7.10276">
        <ele>1400.78</ele>
        <time>2012-07-27T13:31:40Z</time>
      </trkpt>
      <trkpt lat="46.40483" lon="7.10286">
        <ele>1395.01</ele>
        <time>2012-07-27T13:31:46Z</time>
      </trkpt>
      <trkpt lat="46.40515" lon="7.10321">
        <ele>1394.05</ele>
        <time>2012-07-27T13:31:49Z</time>
      </trkpt>
      <trkpt lat="46.40546" lon="7.10391">
        <ele>1390.2</ele>
        <time>2012-07-27T13:31:53Z</time>
      </trkpt>
      <trkpt lat="46.40596" lon="7.10424">
        <ele>1386.84</ele>
        <time>2012-07-27T13:31:57Z</time>
      </trkpt>
      <trkpt lat="46.40623" lon="7.10502">
        <ele>1382.51</ele>
        <time>2012-07-27T13:32:02Z</time>
      </trkpt>
      <trkpt lat="46.40642" lon="7.10514">
        <ele>1381.55</ele>
        <time>2012-07-27T13:32:04Z</time>
      </trkpt>
      <trkpt lat="46.40723" lon="7.1046">
        <ele>1378.67</ele>
        <time>2012-07-27T13:32:11Z</time>
      </trkpt>
      <trkpt lat="46.40789" lon="7.10465">
        <ele>1374.82</ele>
        <time>2012-07-27T13:32:15Z</time>
      </trkpt>
      <trkpt lat="46.40842" lon="7.10442">
        <ele>1371.94</ele>
        <time>2012-07-27T13:32:18Z</time>
      </trkpt>
      <trkpt lat="46.4097" lon="7.10365">
        <ele>1360.4</ele>
        <time>2012-07-27T13:32:26Z</time>
      </trkpt>
      <trkpt lat="46.41145" lon="7.10361">
        <ele>1356.08</ele>
        <time>2012-07-27T13:32:36Z</time>
      </trkpt>
      <trkpt lat="46.41206" lon="7.10384">
        <ele>1352.71</ele>
        <time>2012-07-27T13:32:40Z</time>
      </trkpt>
      <trkpt lat="46.41319" lon="7.10373">
        <ele>1348.87</ele>
        <time>2012-07-27T13:32:47Z</time>
      </trkpt>
      <trkpt lat="46.41532" lon="7.10512">
        <ele>1346.94</ele>
        <time>2012-07-27T13:33:02Z</time>
      </trkpt>
      <trkpt lat="46.42109" lon="7.10717">
        <ele>1353.19</ele>
        <time>2012-07-27T13:33:45Z</time>
      </trkpt>
      <trkpt lat="46.42168" lon="7.10772">
        <ele>1358</ele>
        <time>2012-07-27T13:34:01Z</time>
      </trkpt>
      <trkpt lat="46.4226" lon="7.10929">
        <ele>1357.04</ele>
        <time>2012-07-27T13:34:11Z</time>
      </trkpt>
      <trkpt lat="46.42401" lon="7.11154">
        <ele>1345.5</ele>
        <time>2012-07-27T13:34:25Z</time>
      </trkpt>
      <trkpt lat="46.42465" lon="7.11287">
        <ele>1336.85</ele>
        <time>2012-07-27T13:34:32Z</time>
      </trkpt>
      <trkpt lat="46.4254" lon="7.11364">
        <ele>1327.72</ele>
        <time>2012-07-27T13:34:38Z</time>
      </trkpt>
      <trkpt lat="46.4261" lon="7.1137">
        <ele>1324.35</ele>
        <time>2012-07-27T13:34:43Z</time>
      </trkpt>
      <trkpt lat="46.42704" lon="7.11329">
        <ele>1314.74</ele>
        <time>2012-07-27T13:34:52Z</time>
      </trkpt>
      <trkpt lat="46.42717" lon="7.1134">
        <ele>1311.86</ele>
        <time>2012-07-27T13:34:55Z</time>
      </trkpt>
      <trkpt lat="46.4272" lon="7.11322">
        <ele>1311.86</ele>
        <time>2012-07-27T13:34:58Z</time>
      </trkpt>
      <trkpt lat="46.42722" lon="7.11313">
        <ele>1309.45</ele>
        <time>2012-07-27T13:35:00Z</time>
      </trkpt>
      <trkpt lat="46.42728" lon="7.113">
        <ele>1306.09</ele>
        <time>2012-07-27T13:35:02Z</time>
      </trkpt>
      <trkpt lat="46.4261" lon="7.11442">
        <ele>1304.65</ele>
        <time>2012-07-27T13:35:04Z</time>
      </trkpt>
      <trkpt lat="46.42605" lon="7.11463">
        <ele>1303.69</ele>
        <time>2012-07-27T13:35:06Z</time>
      </trkpt>
      <trkpt lat="46.42681" lon="7.11605">
        <ele>1296.48</ele>
        <time>2012-07-27T13:35:15Z</time>
      </trkpt>
      <trkpt lat="46.42693" lon="7.11687">
        <ele>1291.19</ele>
        <time>2012-07-27T13:35:19Z</time>
      </trkpt>
      <trkpt lat="46.42683" lon="7.11763">
        <ele>1287.82</ele>
        <time>2012-07-27T13:35:23Z</time>
      </trkpt>
      <trkpt lat="46.427" lon="7.11819">
        <ele>1286.86</ele>
        <time>2012-07-27T13:35:26Z</time>
      </trkpt>
      <trkpt lat="46.42736" lon="7.11914">
        <ele>1279.65</ele>
        <time>2012-07-27T13:35:32Z</time>
      </trkpt>
      <trkpt lat="46.42737" lon="7.12005">
        <ele>1276.29</ele>
        <time>2012-07-27T13:35:37Z</time>
      </trkpt>
      <trkpt lat="46.42782" lon="7.12096">
        <ele>1270.52</ele>
        <time>2012-07-27T13:35:43Z</time>
      </trkpt>
      <trkpt lat="46.42792" lon="7.1219">
        <ele>1267.16</ele>
        <time>2012-07-27T13:35:48Z</time>
      </trkpt>
      <trkpt lat="46.42814" lon="7.12234">
        <ele>1265.23</ele>
        <time>2012-07-27T13:35:51Z</time>
      </trkpt>
      <trkpt lat="46.42834" lon="7.12264">
        <ele>1262.35</ele>
        <time>2012-07-27T13:35:54Z</time>
      </trkpt>
      <trkpt lat="46.42836" lon="7.12295">
        <ele>1261.39</ele>
        <time>2012-07-27T13:35:56Z</time>
      </trkpt>
      <trkpt lat="46.42753" lon="7.12622">
        <ele>1245.53</ele>
        <time>2012-07-27T13:36:13Z</time>
      </trkpt>
      <trkpt lat="46.42698" lon="7.12694">
        <ele>1241.68</ele>
        <time>2012-07-27T13:36:19Z</time>
      </trkpt>
      <trkpt lat="46.42665" lon="7.12728">
        <ele>1238.32</ele>
        <time>2012-07-27T13:36:22Z</time>
      </trkpt>
      <trkpt lat="46.42654" lon="7.12759">
        <ele>1237.83</ele>
        <time>2012-07-27T13:36:24Z</time>
      </trkpt>
      <trkpt lat="46.42636" lon="7.12802">
        <ele>1234.95</ele>
        <time>2012-07-27T13:36:27Z</time>
      </trkpt>
      <trkpt lat="46.42525" lon="7.12916">
        <ele>1224.86</ele>
        <time>2012-07-27T13:36:37Z</time>
      </trkpt>
      <trkpt lat="46.42496" lon="7.12953">
        <ele>1220.05</ele>
        <time>2012-07-27T13:36:41Z</time>
      </trkpt>
      <trkpt lat="46.42502" lon="7.12995">
        <ele>1219.09</ele>
        <time>2012-07-27T13:36:44Z</time>
      </trkpt>
      <trkpt lat="46.42535" lon="7.13051">
        <ele>1215.24</ele>
        <time>2012-07-27T13:36:49Z</time>
      </trkpt>
      <trkpt lat="46.42519" lon="7.13267">
        <ele>1205.63</ele>
        <time>2012-07-27T13:37:00Z</time>
      </trkpt>
      <trkpt lat="46.42544" lon="7.13387">
        <ele>1199.86</ele>
        <time>2012-07-27T13:37:06Z</time>
      </trkpt>
      <trkpt lat="46.4255" lon="7.13437">
        <ele>1196.02</ele>
        <time>2012-07-27T13:37:09Z</time>
      </trkpt>
      <trkpt lat="46.42518" lon="7.13553">
        <ele>1190.73</ele>
        <time>2012-07-27T13:37:16Z</time>
      </trkpt>
      <trkpt lat="46.42524" lon="7.13619">
        <ele>1189.29</ele>
        <time>2012-07-27T13:37:20Z</time>
      </trkpt>
      <trkpt lat="46.4252" lon="7.13665">
        <ele>1185.44</ele>
        <time>2012-07-27T13:37:23Z</time>
      </trkpt>
      <trkpt lat="46.42484" lon="7.13703">
        <ele>1182.56</ele>
        <time>2012-07-27T13:37:27Z</time>
      </trkpt>
      <trkpt lat="46.42473" lon="7.13734">
        <ele>1182.08</ele>
        <time>2012-07-27T13:37:29Z</time>
      </trkpt>
      <trkpt lat="46.42448" lon="7.138">
        <ele>1178.71</ele>
        <time>2012-07-27T13:37:33Z</time>
      </trkpt>
      <trkpt lat="46.42436" lon="7.13828">
        <ele>1175.35</ele>
        <time>2012-07-27T13:37:35Z</time>
      </trkpt>
      <trkpt lat="46.42432" lon="7.13952">
        <ele>1168.62</ele>
        <time>2012-07-27T13:37:43Z</time>
      </trkpt>
      <trkpt lat="46.42394" lon="7.14054">
        <ele>1164.29</ele>
        <time>2012-07-27T13:37:50Z</time>
      </trkpt>
      <trkpt lat="46.42367" lon="7.14087">
        <ele>1160.93</ele>
        <time>2012-07-27T13:37:54Z</time>
      </trkpt>
      <trkpt lat="46.4239" lon="7.14164">
        <ele>1156.12</ele>
        <time>2012-07-27T13:38:01Z</time>
      </trkpt>
      <trkpt lat="46.42378" lon="7.14273">
        <ele>1153.24</ele>
        <time>2012-07-27T13:38:08Z</time>
      </trkpt>
      <trkpt lat="46.42358" lon="7.14364">
        <ele>1147.95</ele>
        <time>2012-07-27T13:38:14Z</time>
      </trkpt>
      <trkpt lat="46.42277" lon="7.14504">
        <ele>1140.74</ele>
        <time>2012-07-27T13:38:25Z</time>
      </trkpt>
      <trkpt lat="46.42268" lon="7.14555">
        <ele>1138.34</ele>
        <time>2012-07-27T13:38:28Z</time>
      </trkpt>
      <trkpt lat="46.42269" lon="7.14633">
        <ele>1132.09</ele>
        <time>2012-07-27T13:38:34Z</time>
      </trkpt>
      <trkpt lat="46.42317" lon="7.1468">
        <ele>1130.65</ele>
        <time>2012-07-27T13:38:41Z</time>
      </trkpt>
      <trkpt lat="46.4235" lon="7.14655">
        <ele>1131.61</ele>
        <time>2012-07-27T13:38:46Z</time>
      </trkpt>
      <trkpt lat="46.42387" lon="7.14544">
        <ele>1131.13</ele>
        <time>2012-07-27T13:38:54Z</time>
      </trkpt>
      <trkpt lat="46.42458" lon="7.14465">
        <ele>1131.61</ele>
        <time>2012-07-27T13:39:02Z</time>
      </trkpt>
      <trkpt lat="46.42465" lon="7.14451">
        <ele>1129.69</ele>
        <time>2012-07-27T13:39:03Z</time>
      </trkpt>
      <trkpt lat="46.42488" lon="7.14333">
        <ele>1125.84</ele>
        <time>2012-07-27T13:39:37Z</time>
      </trkpt>
      <trkpt lat="46.42459" lon="7.14459">
        <ele>1128.73</ele>
        <time>2012-07-27T13:39:50Z</time>
      </trkpt>
      <trkpt lat="46.42398" lon="7.14511">
        <ele>1128.24</ele>
        <time>2012-07-27T13:40:00Z</time>
      </trkpt>
      <trkpt lat="46.42421" lon="7.14503">
        <ele>1130.17</ele>
        <time>2012-07-27T13:40:06Z</time>
      </trkpt>
      <trkpt lat="46.42457" lon="7.14456">
        <ele>1132.09</ele>
        <time>2012-07-27T13:40:10Z</time>
      </trkpt>
      <trkpt lat="46.42478" lon="7.14394">
        <ele>1133.05</ele>
        <time>2012-07-27T13:40:13Z</time>
      </trkpt>
      <trkpt lat="46.425" lon="7.1424">
        <ele>1128.73</ele>
        <time>2012-07-27T13:40:21Z</time>
      </trkpt>
      <trkpt lat="46.42559" lon="7.14182">
        <ele>1129.69</ele>
        <time>2012-07-27T13:40:26Z</time>
      </trkpt>
      <trkpt lat="46.42584" lon="7.14122">
        <ele>1127.28</ele>
        <time>2012-07-27T13:40:29Z</time>
      </trkpt>
      <trkpt lat="46.42623" lon="7.14073">
        <ele>1128.24</ele>
        <time>2012-07-27T13:40:32Z</time>
      </trkpt>
      <trkpt lat="46.42746" lon="7.14004">
        <ele>1124.88</ele>
        <time>2012-07-27T13:40:40Z</time>
      </trkpt>
      <trkpt lat="46.42803" lon="7.1395">
        <ele>1122.48</ele>
        <time>2012-07-27T13:40:44Z</time>
      </trkpt>
      <trkpt lat="46.4292" lon="7.13724">
        <ele>1119.59</ele>
        <time>2012-07-27T13:40:54Z</time>
      </trkpt>
      <trkpt lat="46.43013" lon="7.13591">
        <ele>1116.71</ele>
        <time>2012-07-27T13:41:01Z</time>
      </trkpt>
      <trkpt lat="46.43224" lon="7.13327">
        <ele>1109.02</ele>
        <time>2012-07-27T13:41:16Z</time>
      </trkpt>
      <trkpt lat="46.43294" lon="7.13155">
        <ele>1105.17</ele>
        <time>2012-07-27T13:41:24Z</time>
      </trkpt>
      <trkpt lat="46.4332" lon="7.12982">
        <ele>1102.77</ele>
        <time>2012-07-27T13:41:31Z</time>
      </trkpt>
      <trkpt lat="46.43377" lon="7.12775">
        <ele>1100.85</ele>
        <time>2012-07-27T13:41:40Z</time>
      </trkpt>
      <trkpt lat="46.43417" lon="7.12715">
        <ele>1097.48</ele>
        <time>2012-07-27T13:41:44Z</time>
      </trkpt>
      <trkpt lat="46.43475" lon="7.12588">
        <ele>1097.48</ele>
        <time>2012-07-27T13:41:51Z</time>
      </trkpt>
      <trkpt lat="46.43564" lon="7.12526">
        <ele>1098.44</ele>
        <time>2012-07-27T13:41:57Z</time>
      </trkpt>
      <trkpt lat="46.43656" lon="7.12468">
        <ele>1096.04</ele>
        <time>2012-07-27T13:42:03Z</time>
      </trkpt>
      <trkpt lat="46.43733" lon="7.12466">
        <ele>1094.6</ele>
        <time>2012-07-27T13:42:08Z</time>
      </trkpt>
      <trkpt lat="46.43845" lon="7.12491">
        <ele>1090.75</ele>
        <time>2012-07-27T13:42:15Z</time>
      </trkpt>
      <trkpt lat="46.43911" lon="7.12474">
        <ele>1086.43</ele>
        <time>2012-07-27T13:42:20Z</time>
      </trkpt>
      <trkpt lat="46.43956" lon="7.12408">
        <ele>1087.87</ele>
        <time>2012-07-27T13:42:25Z</time>
      </trkpt>
      <trkpt lat="46.43963" lon="7.12388">
        <ele>1087.87</ele>
        <time>2012-07-27T13:42:26Z</time>
      </trkpt>
      <trkpt lat="46.43964" lon="7.1228">
        <ele>1085.95</ele>
        <time>2012-07-27T13:42:31Z</time>
      </trkpt>
      <trkpt lat="46.43996" lon="7.12245">
        <ele>1084.99</ele>
        <time>2012-07-27T13:42:35Z</time>
      </trkpt>
      <trkpt lat="46.44097" lon="7.12217">
        <ele>1087.87</ele>
        <time>2012-07-27T13:42:43Z</time>
      </trkpt>
      <trkpt lat="46.44217" lon="7.12255">
        <ele>1084.02</ele>
        <time>2012-07-27T13:42:53Z</time>
      </trkpt>
      <trkpt lat="46.44339" lon="7.12229">
        <ele>1085.47</ele>
        <time>2012-07-27T13:43:01Z</time>
      </trkpt>
      <trkpt lat="46.4438" lon="7.12217">
        <ele>1083.06</ele>
        <time>2012-07-27T13:43:04Z</time>
      </trkpt>
      <trkpt lat="46.44452" lon="7.12253">
        <ele>1080.18</ele>
        <time>2012-07-27T13:43:10Z</time>
      </trkpt>
      <trkpt lat="46.44574" lon="7.12203">
        <ele>1078.74</ele>
        <time>2012-07-27T13:43:18Z</time>
      </trkpt>
      <trkpt lat="46.44602" lon="7.12164">
        <ele>1078.26</ele>
        <time>2012-07-27T13:43:21Z</time>
      </trkpt>
      <trkpt lat="46.44621" lon="7.12081">
        <ele>1079.7</ele>
        <time>2012-07-27T13:43:26Z</time>
      </trkpt>
      <trkpt lat="46.44641" lon="7.12047">
        <ele>1079.7</ele>
        <time>2012-07-27T13:43:28Z</time>
      </trkpt>
      <trkpt lat="46.4468" lon="7.11959">
        <ele>1077.29</ele>
        <time>2012-07-27T13:43:33Z</time>
      </trkpt>
      <trkpt lat="46.4472" lon="7.11941">
        <ele>1078.26</ele>
        <time>2012-07-27T13:43:36Z</time>
      </trkpt>
      <trkpt lat="46.44798" lon="7.11931">
        <ele>1072.49</ele>
        <time>2012-07-27T13:51:40Z</time>
      </trkpt>
      <trkpt lat="46.44892" lon="7.11866">
        <ele>1073.45</ele>
        <time>2012-07-27T13:52:58Z</time>
      </trkpt>
      <trkpt lat="46.44981" lon="7.11742">
        <ele>1072.49</ele>
        <time>2012-07-27T13:53:13Z</time>
      </trkpt>
      <trkpt lat="46.45023" lon="7.11681">
        <ele>1068.16</ele>
        <time>2012-07-27T13:53:17Z</time>
      </trkpt>
      <trkpt lat="46.45045" lon="7.11623">
        <ele>1066.72</ele>
        <time>2012-07-27T13:53:19Z</time>
      </trkpt>
      <trkpt lat="46.45096" lon="7.11354">
        <ele>1052.78</ele>
        <time>2012-07-27T13:53:31Z</time>
      </trkpt>
      <trkpt lat="46.45162" lon="7.11278">
        <ele>1044.61</ele>
        <time>2012-07-27T13:53:36Z</time>
      </trkpt>
      <trkpt lat="46.45177" lon="7.11269">
        <ele>1041.73</ele>
        <time>2012-07-27T13:53:37Z</time>
      </trkpt>
      <trkpt lat="46.45234" lon="7.11286">
        <ele>1040.28</ele>
        <time>2012-07-27T13:53:41Z</time>
      </trkpt>
      <trkpt lat="46.45304" lon="7.1139">
        <ele>1036.92</ele>
        <time>2012-07-27T13:53:46Z</time>
      </trkpt>
      <trkpt lat="46.45384" lon="7.11481">
        <ele>1025.38</ele>
        <time>2012-07-27T13:53:51Z</time>
      </trkpt>
      <trkpt lat="46.45452" lon="7.11533">
        <ele>1018.65</ele>
        <time>2012-07-27T13:53:55Z</time>
      </trkpt>
      <trkpt lat="46.45481" lon="7.11571">
        <ele>1019.13</ele>
        <time>2012-07-27T13:53:57Z</time>
      </trkpt>
      <trkpt lat="46.45572" lon="7.11712">
        <ele>1009.04</ele>
        <time>2012-07-27T13:54:04Z</time>
      </trkpt>
      <trkpt lat="46.45789" lon="7.1185">
        <ele>995.58</ele>
        <time>2012-07-27T13:54:16Z</time>
      </trkpt>
      <trkpt lat="46.45895" lon="7.12065">
        <ele>983.57</ele>
        <time>2012-07-27T13:54:26Z</time>
      </trkpt>
      <trkpt lat="46.45949" lon="7.12141">
        <ele>979.24</ele>
        <time>2012-07-27T13:54:31Z</time>
      </trkpt>
      <trkpt lat="46.45995" lon="7.1215">
        <ele>980.68</ele>
        <time>2012-07-27T13:54:34Z</time>
      </trkpt>
      <trkpt lat="46.4616" lon="7.121">
        <ele>966.74</ele>
        <time>2012-07-27T13:54:43Z</time>
      </trkpt>
      <trkpt lat="46.46189" lon="7.12096">
        <ele>963.38</ele>
        <time>2012-07-27T13:54:45Z</time>
      </trkpt>
      <trkpt lat="46.46242" lon="7.12104">
        <ele>959.53</ele>
        <time>2012-07-27T13:54:48Z</time>
      </trkpt>
      <trkpt lat="46.46332" lon="7.12152">
        <ele>953.77</ele>
        <time>2012-07-27T13:54:53Z</time>
      </trkpt>
      <trkpt lat="46.46348" lon="7.12163">
        <ele>950.4</ele>
        <time>2012-07-27T13:54:54Z</time>
      </trkpt>
      <trkpt lat="46.46388" lon="7.12209">
        <ele>948.48</ele>
        <time>2012-07-27T13:54:57Z</time>
      </trkpt>
      <trkpt lat="46.46422" lon="7.12364">
        <ele>935.98</ele>
        <time>2012-07-27T13:55:09Z</time>
      </trkpt>
      <trkpt lat="46.4643" lon="7.12372">
        <ele>935.02</ele>
        <time>2012-07-27T13:55:10Z</time>
      </trkpt>
      <trkpt lat="46.46482" lon="7.12375">
        <ele>931.17</ele>
        <time>2012-07-27T13:55:18Z</time>
      </trkpt>
      <trkpt lat="46.46493" lon="7.12365">
        <ele>930.21</ele>
        <time>2012-07-27T13:55:21Z</time>
      </trkpt>
      <trkpt lat="46.46504" lon="7.12364">
        <ele>927.33</ele>
        <time>2012-07-27T13:55:23Z</time>
      </trkpt>
      <trkpt lat="46.4653" lon="7.12384">
        <ele>924.45</ele>
        <time>2012-07-27T13:55:28Z</time>
      </trkpt>
      <trkpt lat="46.46571" lon="7.12525">
        <ele>917.24</ele>
        <time>2012-07-27T13:55:43Z</time>
      </trkpt>
      <trkpt lat="46.46606" lon="7.12575">
        <ele>914.83</ele>
        <time>2012-07-27T13:55:50Z</time>
      </trkpt>
      <trkpt lat="46.46712" lon="7.12607">
        <ele>917.24</ele>
        <time>2012-07-27T13:56:02Z</time>
      </trkpt>
      <trkpt lat="46.4679" lon="7.12593">
        <ele>919.64</ele>
        <time>2012-07-27T13:56:08Z</time>
      </trkpt>
      <trkpt lat="46.46835" lon="7.12638">
        <ele>924.93</ele>
        <time>2012-07-27T13:56:12Z</time>
      </trkpt>
      <trkpt lat="46.4688" lon="7.12696">
        <ele>928.77</ele>
        <time>2012-07-27T13:56:16Z</time>
      </trkpt>
      <trkpt lat="46.46972" lon="7.12724">
        <ele>935.5</ele>
        <time>2012-07-27T13:56:22Z</time>
      </trkpt>
      <trkpt lat="46.4707" lon="7.12676">
        <ele>938.38</ele>
        <time>2012-07-27T13:56:31Z</time>
      </trkpt>
      <trkpt lat="46.47091" lon="7.12692">
        <ele>939.83</ele>
        <time>2012-07-27T13:56:34Z</time>
      </trkpt>
      <trkpt lat="46.47332" lon="7.1341">
        <ele>962.42</ele>
        <time>2012-07-27T13:57:10Z</time>
      </trkpt>
      <trkpt lat="46.47338" lon="7.13437">
        <ele>961.46</ele>
        <time>2012-07-27T13:57:11Z</time>
      </trkpt>
      <trkpt lat="46.47371" lon="7.13635">
        <ele>967.22</ele>
        <time>2012-07-27T13:57:18Z</time>
      </trkpt>
      <trkpt lat="46.47383" lon="7.14031">
        <ele>974.43</ele>
        <time>2012-07-27T13:57:32Z</time>
      </trkpt>
      <trkpt lat="46.47424" lon="7.1412">
        <ele>978.76</ele>
        <time>2012-07-27T13:57:36Z</time>
      </trkpt>
      <trkpt lat="46.47489" lon="7.1423">
        <ele>981.64</ele>
        <time>2012-07-27T13:57:42Z</time>
      </trkpt>
      <trkpt lat="46.47487" lon="7.14375">
        <ele>991.26</ele>
        <time>2012-07-27T13:57:48Z</time>
      </trkpt>
      <trkpt lat="46.47492" lon="7.14641">
        <ele>996.06</ele>
        <time>2012-07-27T13:57:59Z</time>
      </trkpt>
      <trkpt lat="46.47515" lon="7.15107">
        <ele>997.99</ele>
        <time>2012-07-27T13:58:22Z</time>
      </trkpt>
      <trkpt lat="46.47491" lon="7.15174">
        <ele>1000.39</ele>
        <time>2012-07-27T13:58:27Z</time>
      </trkpt>
      <trkpt lat="46.47422" lon="7.15311">
        <ele>1002.79</ele>
        <time>2012-07-27T13:58:37Z</time>
      </trkpt>
      <trkpt lat="46.47384" lon="7.15537">
        <ele>1006.16</ele>
        <time>2012-07-27T13:58:53Z</time>
      </trkpt>
      <trkpt lat="46.47343" lon="7.15654">
        <ele>1006.16</ele>
        <time>2012-07-27T13:59:01Z</time>
      </trkpt>
      <trkpt lat="46.47367" lon="7.15808">
        <ele>1007.12</ele>
        <time>2012-07-27T13:59:10Z</time>
      </trkpt>
      <trkpt lat="46.47361" lon="7.15949">
        <ele>1011.44</ele>
        <time>2012-07-27T13:59:19Z</time>
      </trkpt>
      <trkpt lat="46.47401" lon="7.16126">
        <ele>1016.25</ele>
        <time>2012-07-27T13:59:32Z</time>
      </trkpt>
      <trkpt lat="46.47353" lon="7.1627">
        <ele>1019.62</ele>
        <time>2012-07-27T13:59:43Z</time>
      </trkpt>
      <trkpt lat="46.47328" lon="7.16291">
        <ele>1018.17</ele>
        <time>2012-07-27T13:59:45Z</time>
      </trkpt>
      <trkpt lat="46.47329" lon="7.16305">
        <ele>1017.69</ele>
        <time>2012-07-27T13:59:46Z</time>
      </trkpt>
      <trkpt lat="46.47367" lon="7.16347">
        <ele>1017.21</ele>
        <time>2012-07-27T13:59:50Z</time>
      </trkpt>
      <trkpt lat="46.47427" lon="7.16385">
        <ele>1014.81</ele>
        <time>2012-07-27T13:59:55Z</time>
      </trkpt>
      <trkpt lat="46.47451" lon="7.16453">
        <ele>1015.29</ele>
        <time>2012-07-27T13:59:59Z</time>
      </trkpt>
      <trkpt lat="46.47503" lon="7.16672">
        <ele>1010</ele>
        <time>2012-07-27T14:00:11Z</time>
      </trkpt>
      <trkpt lat="46.47512" lon="7.16706">
        <ele>1009.04</ele>
        <time>2012-07-27T14:00:13Z</time>
      </trkpt>
      <trkpt lat="46.47531" lon="7.16879">
        <ele>1006.64</ele>
        <time>2012-07-27T14:00:22Z</time>
      </trkpt>
      <trkpt lat="46.47544" lon="7.16912">
        <ele>1005.68</ele>
        <time>2012-07-27T14:00:24Z</time>
      </trkpt>
      <trkpt lat="46.47713" lon="7.17066">
        <ele>1001.83</ele>
        <time>2012-07-27T14:00:37Z</time>
      </trkpt>
      <trkpt lat="46.47797" lon="7.17365">
        <ele>998.47</ele>
        <time>2012-07-27T14:00:52Z</time>
      </trkpt>
      <trkpt lat="46.47873" lon="7.1744">
        <ele>998.95</ele>
        <time>2012-07-27T14:00:58Z</time>
      </trkpt>
      <trkpt lat="46.47943" lon="7.17545">
        <ele>998.47</ele>
        <time>2012-07-27T14:01:04Z</time>
      </trkpt>
      <trkpt lat="46.48018" lon="7.17639">
        <ele>995.1</ele>
        <time>2012-07-27T14:01:10Z</time>
      </trkpt>
      <trkpt lat="46.48102" lon="7.17773">
        <ele>995.58</ele>
        <time>2012-07-27T14:01:18Z</time>
      </trkpt>
      <trkpt lat="46.48178" lon="7.18074">
        <ele>989.81</ele>
        <time>2012-07-27T14:01:32Z</time>
      </trkpt>
      <trkpt lat="46.48221" lon="7.1811">
        <ele>988.37</ele>
        <time>2012-07-27T14:01:36Z</time>
      </trkpt>
      <trkpt lat="46.48262" lon="7.18082">
        <ele>986.93</ele>
        <time>2012-07-27T14:01:40Z</time>
      </trkpt>
      <trkpt lat="46.4831" lon="7.18019">
        <ele>982.6</ele>
        <time>2012-07-27T14:01:46Z</time>
      </trkpt>
      <trkpt lat="46.48343" lon="7.1804">
        <ele>980.2</ele>
        <time>2012-07-27T14:01:50Z</time>
      </trkpt>
      <trkpt lat="46.48342" lon="7.18097">
        <ele>981.16</ele>
        <time>2012-07-27T14:01:54Z</time>
      </trkpt>
      <trkpt lat="46.48319" lon="7.18132">
        <ele>982.12</ele>
        <time>2012-07-27T14:01:57Z</time>
      </trkpt>
      <trkpt lat="46.48291" lon="7.1829">
        <ele>989.33</ele>
        <time>2012-07-27T14:02:10Z</time>
      </trkpt>
      <trkpt lat="46.4826" lon="7.18318">
        <ele>990.3</ele>
        <time>2012-07-27T14:02:14Z</time>
      </trkpt>
      <trkpt lat="46.48248" lon="7.18344">
        <ele>991.26</ele>
        <time>2012-07-27T14:02:16Z</time>
      </trkpt>
      <trkpt lat="46.48241" lon="7.18374">
        <ele>990.78</ele>
        <time>2012-07-27T14:02:18Z</time>
      </trkpt>
      <trkpt lat="46.48272" lon="7.19065">
        <ele>989.33</ele>
        <time>2012-07-27T14:02:54Z</time>
      </trkpt>
      <trkpt lat="46.48353" lon="7.19355">
        <ele>991.74</ele>
        <time>2012-07-27T14:03:06Z</time>
      </trkpt>
      <trkpt lat="46.48411" lon="7.19667">
        <ele>991.26</ele>
        <time>2012-07-27T14:03:19Z</time>
      </trkpt>
      <trkpt lat="46.48449" lon="7.19749">
        <ele>992.7</ele>
        <time>2012-07-27T14:03:23Z</time>
      </trkpt>
      <trkpt lat="46.48522" lon="7.19939">
        <ele>990.78</ele>
        <time>2012-07-27T14:03:31Z</time>
      </trkpt>
      <trkpt lat="46.48581" lon="7.2013">
        <ele>993.18</ele>
        <time>2012-07-27T14:03:40Z</time>
      </trkpt>
      <trkpt lat="46.4866" lon="7.20244">
        <ele>993.66</ele>
        <time>2012-07-27T14:03:47Z</time>
      </trkpt>
      <trkpt lat="46.48729" lon="7.20404">
        <ele>995.1</ele>
        <time>2012-07-27T14:03:55Z</time>
      </trkpt>
      <trkpt lat="46.48786" lon="7.20553">
        <ele>993.66</ele>
        <time>2012-07-27T14:04:03Z</time>
      </trkpt>
      <trkpt lat="46.48811" lon="7.20671">
        <ele>994.14</ele>
        <time>2012-07-27T14:04:11Z</time>
      </trkpt>
      <trkpt lat="46.48769" lon="7.20891">
        <ele>998.95</ele>
        <time>2012-07-27T14:04:27Z</time>
      </trkpt>
      <trkpt lat="46.48755" lon="7.21062">
        <ele>999.43</ele>
        <time>2012-07-27T14:04:35Z</time>
      </trkpt>
      <trkpt lat="46.48809" lon="7.21651">
        <ele>1007.12</ele>
        <time>2012-07-27T14:04:58Z</time>
      </trkpt>
      <trkpt lat="46.48816" lon="7.21765">
        <ele>1004.72</ele>
        <time>2012-07-27T14:05:02Z</time>
      </trkpt>
      <trkpt lat="46.48817" lon="7.22114">
        <ele>1012.89</ele>
        <time>2012-07-27T14:05:14Z</time>
      </trkpt>
      <trkpt lat="46.48796" lon="7.22325">
        <ele>1020.58</ele>
        <time>2012-07-27T14:05:22Z</time>
      </trkpt>
      <trkpt lat="46.48768" lon="7.22465">
        <ele>1021.06</ele>
        <time>2012-07-27T14:05:29Z</time>
      </trkpt>
      <trkpt lat="46.48715" lon="7.22608">
        <ele>1022.5</ele>
        <time>2012-07-27T14:05:40Z</time>
      </trkpt>
      <trkpt lat="46.48679" lon="7.22727">
        <ele>1021.54</ele>
        <time>2012-07-27T14:05:47Z</time>
      </trkpt>
      <trkpt lat="46.48682" lon="7.22815">
        <ele>1020.1</ele>
        <time>2012-07-27T14:05:51Z</time>
      </trkpt>
      <trkpt lat="46.48646" lon="7.22986">
        <ele>1011.44</ele>
        <time>2012-07-27T14:05:59Z</time>
      </trkpt>
      <trkpt lat="46.48629" lon="7.23157">
        <ele>1006.16</ele>
        <time>2012-07-27T14:06:07Z</time>
      </trkpt>
      <trkpt lat="46.48631" lon="7.23227">
        <ele>1003.75</ele>
        <time>2012-07-27T14:06:10Z</time>
      </trkpt>
      <trkpt lat="46.48679" lon="7.23439">
        <ele>1003.27</ele>
        <time>2012-07-27T14:06:18Z</time>
      </trkpt>
      <trkpt lat="46.48718" lon="7.23703">
        <ele>1005.2</ele>
        <time>2012-07-27T14:06:28Z</time>
      </trkpt>
      <trkpt lat="46.48687" lon="7.23935">
        <ele>1006.64</ele>
        <time>2012-07-27T14:06:37Z</time>
      </trkpt>
      <trkpt lat="46.48684" lon="7.24099">
        <ele>1010</ele>
        <time>2012-07-27T14:06:43Z</time>
      </trkpt>
      <trkpt lat="46.48719" lon="7.24308">
        <ele>1010</ele>
        <time>2012-07-27T14:06:51Z</time>
      </trkpt>
      <trkpt lat="46.48722" lon="7.24512">
        <ele>1010</ele>
        <time>2012-07-27T14:07:00Z</time>
      </trkpt>
      <trkpt lat="46.48759" lon="7.24675">
        <ele>1010.96</ele>
        <time>2012-07-27T14:07:07Z</time>
      </trkpt>
      <trkpt lat="46.48891" lon="7.24957">
        <ele>1013.85</ele>
        <time>2012-07-27T14:07:21Z</time>
      </trkpt>
      <trkpt lat="46.48914" lon="7.25052">
        <ele>1014.81</ele>
        <time>2012-07-27T14:07:25Z</time>
      </trkpt>
      <trkpt lat="46.48982" lon="7.25453">
        <ele>1016.25</ele>
        <time>2012-07-27T14:07:45Z</time>
      </trkpt>
      <trkpt lat="46.49096" lon="7.25585">
        <ele>1016.25</ele>
        <time>2012-07-27T14:07:55Z</time>
      </trkpt>
      <trkpt lat="46.49126" lon="7.25643">
        <ele>1017.69</ele>
        <time>2012-07-27T14:07:58Z</time>
      </trkpt>
      <trkpt lat="46.49332" lon="7.25904">
        <ele>1029.71</ele>
        <time>2012-07-27T14:08:09Z</time>
      </trkpt>
      <trkpt lat="46.49388" lon="7.25975">
        <ele>1031.63</ele>
        <time>2012-07-27T14:08:12Z</time>
      </trkpt>
      <trkpt lat="46.49531" lon="7.26155">
        <ele>1034.04</ele>
        <time>2012-07-27T14:08:20Z</time>
      </trkpt>
      <trkpt lat="46.49101" lon="7.2604">
        <ele>1034.52</ele>
        <time>2012-07-27T14:08:21Z</time>
      </trkpt>
      <trkpt lat="46.49105" lon="7.26054">
        <ele>1034.52</ele>
        <time>2012-07-27T14:08:23Z</time>
      </trkpt>
      <trkpt lat="46.49115" lon="7.26055">
        <ele>1035</ele>
        <time>2012-07-27T14:08:25Z</time>
      </trkpt>
      <trkpt lat="46.49145" lon="7.26003">
        <ele>1038.84</ele>
        <time>2012-07-27T14:08:32Z</time>
      </trkpt>
      <trkpt lat="46.49191" lon="7.25981">
        <ele>1044.13</ele>
        <time>2012-07-27T14:08:36Z</time>
      </trkpt>
      <trkpt lat="46.4921" lon="7.25958">
        <ele>1045.09</ele>
        <time>2012-07-27T14:08:38Z</time>
      </trkpt>
      <trkpt lat="46.49244" lon="7.25832">
        <ele>1054.7</ele>
        <time>2012-07-27T14:08:45Z</time>
      </trkpt>
      <trkpt lat="46.4924" lon="7.25682">
        <ele>1059.03</ele>
        <time>2012-07-27T14:08:52Z</time>
      </trkpt>
      <trkpt lat="46.49244" lon="7.25552">
        <ele>1059.03</ele>
        <time>2012-07-27T14:09:01Z</time>
      </trkpt>
      <trkpt lat="46.49248" lon="7.25604">
        <ele>1063.84</ele>
        <time>2012-07-27T14:09:07Z</time>
      </trkpt>
      <trkpt lat="46.4926" lon="7.25658">
        <ele>1065.28</ele>
        <time>2012-07-27T14:09:10Z</time>
      </trkpt>
      <trkpt lat="46.49305" lon="7.25746">
        <ele>1068.64</ele>
        <time>2012-07-27T14:09:14Z</time>
      </trkpt>
      <trkpt lat="46.49345" lon="7.25895">
        <ele>1075.85</ele>
        <time>2012-07-27T14:09:21Z</time>
      </trkpt>
      <trkpt lat="46.49349" lon="7.25917">
        <ele>1075.85</ele>
        <time>2012-07-27T14:09:22Z</time>
      </trkpt>
      <trkpt lat="46.4938" lon="7.26086">
        <ele>1084.02</ele>
        <time>2012-07-27T14:09:29Z</time>
      </trkpt>
      <trkpt lat="46.49395" lon="7.26251">
        <ele>1088.35</ele>
        <time>2012-07-27T14:09:36Z</time>
      </trkpt>
      <trkpt lat="46.49403" lon="7.26319">
        <ele>1091.71</ele>
        <time>2012-07-27T14:09:39Z</time>
      </trkpt>
      <trkpt lat="46.49438" lon="7.266">
        <ele>1101.81</ele>
        <time>2012-07-27T14:09:52Z</time>
      </trkpt>
      <trkpt lat="46.49402" lon="7.26696">
        <ele>1108.54</ele>
        <time>2012-07-27T14:09:57Z</time>
      </trkpt>
      <trkpt lat="46.4939" lon="7.26712">
        <ele>1109.5</ele>
        <time>2012-07-27T14:09:58Z</time>
      </trkpt>
      <trkpt lat="46.49308" lon="7.26795">
        <ele>1113.34</ele>
        <time>2012-07-27T14:10:04Z</time>
      </trkpt>
      <trkpt lat="46.49294" lon="7.26826">
        <ele>1113.82</ele>
        <time>2012-07-27T14:10:06Z</time>
      </trkpt>
      <trkpt lat="46.49312" lon="7.26946">
        <ele>1119.11</ele>
        <time>2012-07-27T14:10:13Z</time>
      </trkpt>
      <trkpt lat="46.49303" lon="7.26999">
        <ele>1122.96</ele>
        <time>2012-07-27T14:10:16Z</time>
      </trkpt>
      <trkpt lat="46.49281" lon="7.27047">
        <ele>1124.4</ele>
        <time>2012-07-27T14:10:19Z</time>
      </trkpt>
      <trkpt lat="46.49279" lon="7.27103">
        <ele>1127.28</ele>
        <time>2012-07-27T14:10:22Z</time>
      </trkpt>
      <trkpt lat="46.4932" lon="7.27189">
        <ele>1133.05</ele>
        <time>2012-07-27T14:10:27Z</time>
      </trkpt>
      <trkpt lat="46.49405" lon="7.27317">
        <ele>1139.78</ele>
        <time>2012-07-27T14:10:35Z</time>
      </trkpt>
      <trkpt lat="46.49592" lon="7.27502">
        <ele>1155.64</ele>
        <time>2012-07-27T14:10:48Z</time>
      </trkpt>
      <trkpt lat="46.4965" lon="7.27574">
        <ele>1156.6</ele>
        <time>2012-07-27T14:10:52Z</time>
      </trkpt>
      <trkpt lat="46.49697" lon="7.27662">
        <ele>1160.45</ele>
        <time>2012-07-27T14:10:56Z</time>
      </trkpt>
      <trkpt lat="46.4972" lon="7.27707">
        <ele>1164.29</ele>
        <time>2012-07-27T14:10:58Z</time>
      </trkpt>
      <trkpt lat="46.49768" lon="7.27822">
        <ele>1166.7</ele>
        <time>2012-07-27T14:11:03Z</time>
      </trkpt>
      <trkpt lat="46.49855" lon="7.27974">
        <ele>1178.23</ele>
        <time>2012-07-27T14:11:10Z</time>
      </trkpt>
      <trkpt lat="46.49896" lon="7.28083">
        <ele>1181.6</ele>
        <time>2012-07-27T14:11:15Z</time>
      </trkpt>
      <trkpt lat="46.49893" lon="7.28245">
        <ele>1186.88</ele>
        <time>2012-07-27T14:11:22Z</time>
      </trkpt>
      <trkpt lat="46.49943" lon="7.28341">
        <ele>1191.69</ele>
        <time>2012-07-27T14:11:27Z</time>
      </trkpt>
      <trkpt lat="46.50026" lon="7.28443">
        <ele>1196.02</ele>
        <time>2012-07-27T14:11:34Z</time>
      </trkpt>
      <trkpt lat="46.50037" lon="7.28447">
        <ele>1196.02</ele>
        <time>2012-07-27T14:11:35Z</time>
      </trkpt>
      <trkpt lat="46.50102" lon="7.28425">
        <ele>1199.86</ele>
        <time>2012-07-27T14:11:40Z</time>
      </trkpt>
      <trkpt lat="46.5023" lon="7.28438">
        <ele>1207.55</ele>
        <time>2012-07-27T14:11:52Z</time>
      </trkpt>
      <trkpt lat="46.50285" lon="7.28456">
        <ele>1209.96</ele>
        <time>2012-07-27T14:11:57Z</time>
      </trkpt>
      <trkpt lat="46.50309" lon="7.28489">
        <ele>1211.88</ele>
        <time>2012-07-27T14:12:00Z</time>
      </trkpt>
      <trkpt lat="46.50315" lon="7.28539">
        <ele>1215.24</ele>
        <time>2012-07-27T14:12:03Z</time>
      </trkpt>
      <trkpt lat="46.50314" lon="7.28644">
        <ele>1219.09</ele>
        <time>2012-07-27T14:12:09Z</time>
      </trkpt>
      <trkpt lat="46.5038" lon="7.28824">
        <ele>1223.42</ele>
        <time>2012-07-27T14:12:21Z</time>
      </trkpt>
      <trkpt lat="46.50432" lon="7.28953">
        <ele>1226.3</ele>
        <time>2012-07-27T14:12:31Z</time>
      </trkpt>
      <trkpt lat="46.50553" lon="7.29195">
        <ele>1230.14</ele>
        <time>2012-07-27T14:13:02Z</time>
      </trkpt>
      <trkpt lat="46.50973" lon="7.2985">
        <ele>1256.1</ele>
        <time>2012-07-27T14:15:38Z</time>
      </trkpt>
      <trkpt lat="46.51046" lon="7.29945">
        <ele>1259.46</ele>
        <time>2012-07-27T14:15:44Z</time>
      </trkpt>
      <trkpt lat="46.5116" lon="7.30042">
        <ele>1262.35</ele>
        <time>2012-07-27T14:15:52Z</time>
      </trkpt>
      <trkpt lat="46.51211" lon="7.30107">
        <ele>1265.71</ele>
        <time>2012-07-27T14:15:56Z</time>
      </trkpt>
      <trkpt lat="46.51295" lon="7.30293">
        <ele>1269.08</ele>
        <time>2012-07-27T14:16:06Z</time>
      </trkpt>
      <trkpt lat="46.51391" lon="7.3041">
        <ele>1271.96</ele>
        <time>2012-07-27T14:16:14Z</time>
      </trkpt>
      <trkpt lat="46.51518" lon="7.30586">
        <ele>1272.44</ele>
        <time>2012-07-27T14:16:25Z</time>
      </trkpt>
      <trkpt lat="46.51618" lon="7.30778">
        <ele>1271.48</ele>
        <time>2012-07-27T14:16:36Z</time>
      </trkpt>
      <trkpt lat="46.5172" lon="7.30906">
        <ele>1269.08</ele>
        <time>2012-07-27T14:16:46Z</time>
      </trkpt>
      <trkpt lat="46.5199" lon="7.31146">
        <ele>1257.54</ele>
        <time>2012-07-27T14:17:14Z</time>
      </trkpt>
      <trkpt lat="46.5201" lon="7.31218">
        <ele>1255.62</ele>
        <time>2012-07-27T14:17:18Z</time>
      </trkpt>
      <trkpt lat="46.52017" lon="7.31388">
        <ele>1250.33</ele>
        <time>2012-07-27T14:17:26Z</time>
      </trkpt>
      <trkpt lat="46.52044" lon="7.31547">
        <ele>1245.04</ele>
        <time>2012-07-27T14:17:34Z</time>
      </trkpt>
      <trkpt lat="46.52146" lon="7.3175">
        <ele>1242.16</ele>
        <time>2012-07-27T14:17:45Z</time>
      </trkpt>
      <trkpt lat="46.52233" lon="7.31863">
        <ele>1241.2</ele>
        <time>2012-07-27T14:17:52Z</time>
      </trkpt>
      <trkpt lat="46.52285" lon="7.31966">
        <ele>1239.28</ele>
        <time>2012-07-27T14:17:58Z</time>
      </trkpt>
      <trkpt lat="46.52354" lon="7.32041">
        <ele>1234.95</ele>
        <time>2012-07-27T14:18:04Z</time>
      </trkpt>
      <trkpt lat="46.5238" lon="7.3205">
        <ele>1233.51</ele>
        <time>2012-07-27T14:18:06Z</time>
      </trkpt>
      <trkpt lat="46.52425" lon="7.32041">
        <ele>1229.66</ele>
        <time>2012-07-27T14:18:09Z</time>
      </trkpt>
      <trkpt lat="46.52458" lon="7.32063">
        <ele>1226.78</ele>
        <time>2012-07-27T14:18:12Z</time>
      </trkpt>
      <trkpt lat="46.52471" lon="7.32117">
        <ele>1223.9</ele>
        <time>2012-07-27T14:18:15Z</time>
      </trkpt>
      <trkpt lat="46.52446" lon="7.32229">
        <ele>1217.65</ele>
        <time>2012-07-27T14:18:21Z</time>
      </trkpt>
      <trkpt lat="46.52502" lon="7.32514">
        <ele>1206.11</ele>
        <time>2012-07-27T14:18:36Z</time>
      </trkpt>
      <trkpt lat="46.5251" lon="7.32652">
        <ele>1201.79</ele>
        <time>2012-07-27T14:18:42Z</time>
      </trkpt>
      <trkpt lat="46.52535" lon="7.32739">
        <ele>1199.38</ele>
        <time>2012-07-27T14:18:46Z</time>
      </trkpt>
      <trkpt lat="46.52601" lon="7.32912">
        <ele>1186.88</ele>
        <time>2012-07-27T14:18:56Z</time>
      </trkpt>
      <trkpt lat="46.52601" lon="7.33337">
        <ele>1170.06</ele>
        <time>2012-07-27T14:19:16Z</time>
      </trkpt>
      <trkpt lat="46.52619" lon="7.33395">
        <ele>1168.14</ele>
        <time>2012-07-27T14:19:19Z</time>
      </trkpt>
      <trkpt lat="46.52662" lon="7.33452">
        <ele>1164.77</ele>
        <time>2012-07-27T14:19:23Z</time>
      </trkpt>
      <trkpt lat="46.52677" lon="7.33487">
        <ele>1161.89</ele>
        <time>2012-07-27T14:19:25Z</time>
      </trkpt>
      <trkpt lat="46.52684" lon="7.33598">
        <ele>1158.05</ele>
        <time>2012-07-27T14:19:30Z</time>
      </trkpt>
      <trkpt lat="46.52723" lon="7.33792">
        <ele>1150.35</ele>
        <time>2012-07-27T14:19:40Z</time>
      </trkpt>
      <trkpt lat="46.52757" lon="7.33874">
        <ele>1147.47</ele>
        <time>2012-07-27T14:19:45Z</time>
      </trkpt>
      <trkpt lat="46.52802" lon="7.33916">
        <ele>1144.59</ele>
        <time>2012-07-27T14:19:49Z</time>
      </trkpt>
      <trkpt lat="46.52817" lon="7.33948">
        <ele>1144.11</ele>
        <time>2012-07-27T14:19:51Z</time>
      </trkpt>
      <trkpt lat="46.52842" lon="7.34052">
        <ele>1139.78</ele>
        <time>2012-07-27T14:19:57Z</time>
      </trkpt>
      <trkpt lat="46.52997" lon="7.34236">
        <ele>1138.34</ele>
        <time>2012-07-27T14:20:10Z</time>
      </trkpt>
      <trkpt lat="46.53105" lon="7.34395">
        <ele>1135.94</ele>
        <time>2012-07-27T14:20:20Z</time>
      </trkpt>
      <trkpt lat="46.53163" lon="7.3451">
        <ele>1132.09</ele>
        <time>2012-07-27T14:20:26Z</time>
      </trkpt>
      <trkpt lat="46.53236" lon="7.34691">
        <ele>1122.96</ele>
        <time>2012-07-27T14:20:34Z</time>
      </trkpt>
      <trkpt lat="46.53378" lon="7.34916">
        <ele>1112.38</ele>
        <time>2012-07-27T14:20:46Z</time>
      </trkpt>
      <trkpt lat="46.53445" lon="7.35085">
        <ele>1106.13</ele>
        <time>2012-07-27T14:20:54Z</time>
      </trkpt>
      <trkpt lat="46.53475" lon="7.35214">
        <ele>1099.89</ele>
        <time>2012-07-27T14:21:00Z</time>
      </trkpt>
      <trkpt lat="46.53582" lon="7.35329">
        <ele>1092.2</ele>
        <time>2012-07-27T14:21:09Z</time>
      </trkpt>
      <trkpt lat="46.53591" lon="7.35348">
        <ele>1091.23</ele>
        <time>2012-07-27T14:21:10Z</time>
      </trkpt>
      <trkpt lat="46.53682" lon="7.35586">
        <ele>1080.66</ele>
        <time>2012-07-27T14:21:22Z</time>
      </trkpt>
      <trkpt lat="46.53704" lon="7.35701">
        <ele>1076.33</ele>
        <time>2012-07-27T14:21:27Z</time>
      </trkpt>
      <trkpt lat="46.53731" lon="7.35775">
        <ele>1071.53</ele>
        <time>2012-07-27T14:21:31Z</time>
      </trkpt>
      <trkpt lat="46.53792" lon="7.35839">
        <ele>1068.64</ele>
        <time>2012-07-27T14:21:36Z</time>
      </trkpt>
      <trkpt lat="46.53813" lon="7.35881">
        <ele>1067.68</ele>
        <time>2012-07-27T14:21:38Z</time>
      </trkpt>
      <trkpt lat="46.53978" lon="7.36182">
        <ele>1052.3</ele>
        <time>2012-07-27T14:21:55Z</time>
      </trkpt>
      <trkpt lat="46.54118" lon="7.36315">
        <ele>1043.17</ele>
        <time>2012-07-27T14:22:06Z</time>
      </trkpt>
      <trkpt lat="46.5416" lon="7.36337">
        <ele>1039.32</ele>
        <time>2012-07-27T14:22:09Z</time>
      </trkpt>
      <trkpt lat="46.54251" lon="7.36334">
        <ele>1035.96</ele>
        <time>2012-07-27T14:22:15Z</time>
      </trkpt>
      <trkpt lat="46.54318" lon="7.36313">
        <ele>1032.11</ele>
        <time>2012-07-27T14:22:20Z</time>
      </trkpt>
      <trkpt lat="46.54391" lon="7.36379">
        <ele>1027.31</ele>
        <time>2012-07-27T14:22:26Z</time>
      </trkpt>
      <trkpt lat="46.54437" lon="7.36398">
        <ele>1026.83</ele>
        <time>2012-07-27T14:22:29Z</time>
      </trkpt>
      <trkpt lat="46.54534" lon="7.36432">
        <ele>1018.65</ele>
        <time>2012-07-27T14:22:35Z</time>
      </trkpt>
      <trkpt lat="46.54656" lon="7.36557">
        <ele>1010</ele>
        <time>2012-07-27T14:22:45Z</time>
      </trkpt>
      <trkpt lat="46.54739" lon="7.36642">
        <ele>1000.39</ele>
        <time>2012-07-27T14:23:26Z</time>
      </trkpt>
      <trkpt lat="46.549" lon="7.36666">
        <ele>993.18</ele>
        <time>2012-07-27T14:23:54Z</time>
      </trkpt>
      <trkpt lat="46.55077" lon="7.36794">
        <ele>981.16</ele>
        <time>2012-07-27T14:24:17Z</time>
      </trkpt>
      <trkpt lat="46.55264" lon="7.36891">
        <ele>971.07</ele>
        <time>2012-07-27T14:24:41Z</time>
      </trkpt>
      <trkpt lat="46.55349" lon="7.37036">
        <ele>965.78</ele>
        <time>2012-07-27T14:24:56Z</time>
      </trkpt>
      <trkpt lat="46.55383" lon="7.3715">
        <ele>963.86</ele>
        <time>2012-07-27T14:25:05Z</time>
      </trkpt>
      <trkpt lat="46.55391" lon="7.37196">
        <ele>961.94</ele>
        <time>2012-07-27T14:25:14Z</time>
      </trkpt>
      <trkpt lat="46.55474" lon="7.37302">
        <ele>960.98</ele>
        <time>2012-07-27T14:25:27Z</time>
      </trkpt>
      <trkpt lat="46.5562" lon="7.37437">
        <ele>956.17</ele>
        <time>2012-07-27T14:25:48Z</time>
      </trkpt>
      <trkpt lat="46.55682" lon="7.37481">
        <ele>953.77</ele>
        <time>2012-07-27T14:25:54Z</time>
      </trkpt>
      <trkpt lat="46.55802" lon="7.37518">
        <ele>952.32</ele>
        <time>2012-07-27T14:26:04Z</time>
      </trkpt>
      <trkpt lat="46.55934" lon="7.37513">
        <ele>950.88</ele>
        <time>2012-07-27T14:26:13Z</time>
      </trkpt>
      <trkpt lat="46.55994" lon="7.37511">
        <ele>947.04</ele>
        <time>2012-07-27T14:26:17Z</time>
      </trkpt>
      <trkpt lat="46.56214" lon="7.37571">
        <ele>939.35</ele>
        <time>2012-07-27T14:26:33Z</time>
      </trkpt>
      <trkpt lat="46.56385" lon="7.37553">
        <ele>938.38</ele>
        <time>2012-07-27T14:26:45Z</time>
      </trkpt>
      <trkpt lat="46.56736" lon="7.37567">
        <ele>935.98</ele>
        <time>2012-07-27T14:27:07Z</time>
      </trkpt>
      <trkpt lat="46.56922" lon="7.37664">
        <ele>932.62</ele>
        <time>2012-07-27T14:27:19Z</time>
      </trkpt>
      <trkpt lat="46.56974" lon="7.37643">
        <ele>934.06</ele>
        <time>2012-07-27T14:27:23Z</time>
      </trkpt>
      <trkpt lat="46.5705" lon="7.37595">
        <ele>931.17</ele>
        <time>2012-07-27T14:27:29Z</time>
      </trkpt>
      <trkpt lat="46.57088" lon="7.37626">
        <ele>932.14</ele>
        <time>2012-07-27T14:27:32Z</time>
      </trkpt>
      <trkpt lat="46.57161" lon="7.37789">
        <ele>937.9</ele>
        <time>2012-07-27T14:27:40Z</time>
      </trkpt>
      <trkpt lat="46.57214" lon="7.3786">
        <ele>944.15</ele>
        <time>2012-07-27T14:27:44Z</time>
      </trkpt>
      <trkpt lat="46.57323" lon="7.37968">
        <ele>945.11</ele>
        <time>2012-07-27T14:27:52Z</time>
      </trkpt>
      <trkpt lat="46.57348" lon="7.38078">
        <ele>948.48</ele>
        <time>2012-07-27T14:27:58Z</time>
      </trkpt>
      <trkpt lat="46.5737" lon="7.38099">
        <ele>950.88</ele>
        <time>2012-07-27T14:28:00Z</time>
      </trkpt>
      <trkpt lat="46.57417" lon="7.38107">
        <ele>950.88</ele>
        <time>2012-07-27T14:28:03Z</time>
      </trkpt>
      <trkpt lat="46.57694" lon="7.38182">
        <ele>944.63</ele>
        <time>2012-07-27T14:28:19Z</time>
      </trkpt>
      <trkpt lat="46.57869" lon="7.38253">
        <ele>943.19</ele>
        <time>2012-07-27T14:28:30Z</time>
      </trkpt>
      <trkpt lat="46.58026" lon="7.38265">
        <ele>939.83</ele>
        <time>2012-07-27T14:28:39Z</time>
      </trkpt>
      <trkpt lat="46.58312" lon="7.38206">
        <ele>931.17</ele>
        <time>2012-07-27T14:28:57Z</time>
      </trkpt>
      <trkpt lat="46.58383" lon="7.38138">
        <ele>926.85</ele>
        <time>2012-07-27T14:29:04Z</time>
      </trkpt>
      <trkpt lat="46.58488" lon="7.38196">
        <ele>922.52</ele>
        <time>2012-07-27T14:29:13Z</time>
      </trkpt>
      <trkpt lat="46.58735" lon="7.38136">
        <ele>906.18</ele>
        <time>2012-07-27T14:29:30Z</time>
      </trkpt>
      <trkpt lat="46.58798" lon="7.38163">
        <ele>907.14</ele>
        <time>2012-07-27T14:29:37Z</time>
      </trkpt>
      <trkpt lat="46.5886" lon="7.3815">
        <ele>905.22</ele>
        <time>2012-07-27T14:29:42Z</time>
      </trkpt>
      <trkpt lat="46.58943" lon="7.38141">
        <ele>899.93</ele>
        <time>2012-07-27T14:29:48Z</time>
      </trkpt>
      <trkpt lat="46.58963" lon="7.38097">
        <ele>898.97</ele>
        <time>2012-07-27T14:29:51Z</time>
      </trkpt>
      <trkpt lat="46.58966" lon="7.3804">
        <ele>897.05</ele>
        <time>2012-07-27T14:29:54Z</time>
      </trkpt>
      <trkpt lat="46.59003" lon="7.37934">
        <ele>894.64</ele>
        <time>2012-07-27T14:30:00Z</time>
      </trkpt>
      <trkpt lat="46.59012" lon="7.37798">
        <ele>890.32</ele>
        <time>2012-07-27T14:30:07Z</time>
      </trkpt>
      <trkpt lat="46.59047" lon="7.37732">
        <ele>889.36</ele>
        <time>2012-07-27T14:30:11Z</time>
      </trkpt>
      <trkpt lat="46.59328" lon="7.37506">
        <ele>874.94</ele>
        <time>2012-07-27T14:30:32Z</time>
      </trkpt>
      <trkpt lat="46.59354" lon="7.37508">
        <ele>876.38</ele>
        <time>2012-07-27T14:30:34Z</time>
      </trkpt>
      <trkpt lat="46.59486" lon="7.37553">
        <ele>872.53</ele>
        <time>2012-07-27T14:30:42Z</time>
      </trkpt>
      <trkpt lat="46.59863" lon="7.3749">
        <ele>868.21</ele>
        <time>2012-07-27T14:31:04Z</time>
      </trkpt>
      <trkpt lat="46.60175" lon="7.37502">
        <ele>864.36</ele>
        <time>2012-07-27T14:31:23Z</time>
      </trkpt>
      <trkpt lat="46.60282" lon="7.37427">
        <ele>862.44</ele>
        <time>2012-07-27T14:31:32Z</time>
      </trkpt>
      <trkpt lat="46.60398" lon="7.37413">
        <ele>860.52</ele>
        <time>2012-07-27T14:31:41Z</time>
      </trkpt>
      <trkpt lat="46.60697" lon="7.37634">
        <ele>859.08</ele>
        <time>2012-07-27T14:32:03Z</time>
      </trkpt>
      <trkpt lat="46.61057" lon="7.37816">
        <ele>860.04</ele>
        <time>2012-07-27T14:32:25Z</time>
      </trkpt>
      <trkpt lat="46.61135" lon="7.37849">
        <ele>856.19</ele>
        <time>2012-07-27T14:32:29Z</time>
      </trkpt>
      <trkpt lat="46.61327" lon="7.37864">
        <ele>854.27</ele>
        <time>2012-07-27T14:32:39Z</time>
      </trkpt>
      <trkpt lat="46.61653" lon="7.37755">
        <ele>849.94</ele>
        <time>2012-07-27T14:32:56Z</time>
      </trkpt>
      <trkpt lat="46.61834" lon="7.37828">
        <ele>855.71</ele>
        <time>2012-07-27T14:33:07Z</time>
      </trkpt>
      <trkpt lat="46.61886" lon="7.37804">
        <ele>860.04</ele>
        <time>2012-07-27T14:33:11Z</time>
      </trkpt>
      <trkpt lat="46.61933" lon="7.37759">
        <ele>858.11</ele>
        <time>2012-07-27T14:33:15Z</time>
      </trkpt>
      <trkpt lat="46.62067" lon="7.37685">
        <ele>857.63</ele>
        <time>2012-07-27T14:33:26Z</time>
      </trkpt>
      <trkpt lat="46.62207" lon="7.37674">
        <ele>862.92</ele>
        <time>2012-07-27T14:33:38Z</time>
      </trkpt>
      <trkpt lat="46.62269" lon="7.37727">
        <ele>860.52</ele>
        <time>2012-07-27T14:33:44Z</time>
      </trkpt>
      <trkpt lat="46.62342" lon="7.37872">
        <ele>854.75</ele>
        <time>2012-07-27T14:33:54Z</time>
      </trkpt>
      <trkpt lat="46.62394" lon="7.37932">
        <ele>853.79</ele>
        <time>2012-07-27T14:33:59Z</time>
      </trkpt>
      <trkpt lat="46.62581" lon="7.38297">
        <ele>845.14</ele>
        <time>2012-07-27T14:34:20Z</time>
      </trkpt>
      <trkpt lat="46.62716" lon="7.38663">
        <ele>846.58</ele>
        <time>2012-07-27T14:34:38Z</time>
      </trkpt>
      <trkpt lat="46.62745" lon="7.38766">
        <ele>843.21</ele>
        <time>2012-07-27T14:34:43Z</time>
      </trkpt>
      <trkpt lat="46.6287" lon="7.38974">
        <ele>839.85</ele>
        <time>2012-07-27T14:34:57Z</time>
      </trkpt>
      <trkpt lat="46.62924" lon="7.39128">
        <ele>842.25</ele>
        <time>2012-07-27T14:35:06Z</time>
      </trkpt>
      <trkpt lat="46.62954" lon="7.39169">
        <ele>841.29</ele>
        <time>2012-07-27T14:35:10Z</time>
      </trkpt>
      <trkpt lat="46.63004" lon="7.39428">
        <ele>839.37</ele>
        <time>2012-07-27T14:35:25Z</time>
      </trkpt>
      <trkpt lat="46.63102" lon="7.39814">
        <ele>838.89</ele>
        <time>2012-07-27T14:35:42Z</time>
      </trkpt>
      <trkpt lat="46.63228" lon="7.40211">
        <ele>836.96</ele>
        <time>2012-07-27T14:35:58Z</time>
      </trkpt>
      <trkpt lat="46.6324" lon="7.40234">
        <ele>836.48</ele>
        <time>2012-07-27T14:35:59Z</time>
      </trkpt>
      <trkpt lat="46.63282" lon="7.40294">
        <ele>836.48</ele>
        <time>2012-07-27T14:36:02Z</time>
      </trkpt>
      <trkpt lat="46.63364" lon="7.40377">
        <ele>835.52</ele>
        <time>2012-07-27T14:36:07Z</time>
      </trkpt>
      <trkpt lat="46.63501" lon="7.40529">
        <ele>832.16</ele>
        <time>2012-07-27T14:36:16Z</time>
      </trkpt>
      <trkpt lat="46.63591" lon="7.40706">
        <ele>833.12</ele>
        <time>2012-07-27T14:36:24Z</time>
      </trkpt>
      <trkpt lat="46.63678" lon="7.4082">
        <ele>831.68</ele>
        <time>2012-07-27T14:36:30Z</time>
      </trkpt>
      <trkpt lat="46.63774" lon="7.40992">
        <ele>829.76</ele>
        <time>2012-07-27T14:36:38Z</time>
      </trkpt>
      <trkpt lat="46.63879" lon="7.4123">
        <ele>828.79</ele>
        <time>2012-07-27T14:36:49Z</time>
      </trkpt>
      <trkpt lat="46.63936" lon="7.41416">
        <ele>825.91</ele>
        <time>2012-07-27T14:36:57Z</time>
      </trkpt>
      <trkpt lat="46.63957" lon="7.41447">
        <ele>826.39</ele>
        <time>2012-07-27T14:36:59Z</time>
      </trkpt>
      <trkpt lat="46.64138" lon="7.41533">
        <ele>824.95</ele>
        <time>2012-07-27T14:37:10Z</time>
      </trkpt>
      <trkpt lat="46.6422" lon="7.41617">
        <ele>824.47</ele>
        <time>2012-07-27T14:37:16Z</time>
      </trkpt>
      <trkpt lat="46.64268" lon="7.41696">
        <ele>823.03</ele>
        <time>2012-07-27T14:37:21Z</time>
      </trkpt>
      <trkpt lat="46.64447" lon="7.41801">
        <ele>821.58</ele>
        <time>2012-07-27T14:37:33Z</time>
      </trkpt>
      <trkpt lat="46.64584" lon="7.41822">
        <ele>821.58</ele>
        <time>2012-07-27T14:37:42Z</time>
      </trkpt>
      <trkpt lat="46.64687" lon="7.41801">
        <ele>819.18</ele>
        <time>2012-07-27T14:37:49Z</time>
      </trkpt>
      <trkpt lat="46.64789" lon="7.41849">
        <ele>818.22</ele>
        <time>2012-07-27T14:37:56Z</time>
      </trkpt>
      <trkpt lat="46.64842" lon="7.41897">
        <ele>817.26</ele>
        <time>2012-07-27T14:38:00Z</time>
      </trkpt>
      <trkpt lat="46.6489" lon="7.42024">
        <ele>817.74</ele>
        <time>2012-07-27T14:38:07Z</time>
      </trkpt>
      <trkpt lat="46.64904" lon="7.42172">
        <ele>817.26</ele>
        <time>2012-07-27T14:38:14Z</time>
      </trkpt>
      <trkpt lat="46.65016" lon="7.4237">
        <ele>814.85</ele>
        <time>2012-07-27T14:38:28Z</time>
      </trkpt>
      <trkpt lat="46.65065" lon="7.42577">
        <ele>815.82</ele>
        <time>2012-07-27T14:38:39Z</time>
      </trkpt>
      <trkpt lat="46.65112" lon="7.42659">
        <ele>813.41</ele>
        <time>2012-07-27T14:38:44Z</time>
      </trkpt>
      <trkpt lat="46.65213" lon="7.42922">
        <ele>811.01</ele>
        <time>2012-07-27T14:38:58Z</time>
      </trkpt>
      <trkpt lat="46.65218" lon="7.42984">
        <ele>811.97</ele>
        <time>2012-07-27T14:39:01Z</time>
      </trkpt>
      <trkpt lat="46.65219" lon="7.43086">
        <ele>811.01</ele>
        <time>2012-07-27T14:39:06Z</time>
      </trkpt>
      <trkpt lat="46.65245" lon="7.43131">
        <ele>810.53</ele>
        <time>2012-07-27T14:39:09Z</time>
      </trkpt>
      <trkpt lat="46.65327" lon="7.43211">
        <ele>808.13</ele>
        <time>2012-07-27T14:39:16Z</time>
      </trkpt>
      <trkpt lat="46.65334" lon="7.43229">
        <ele>807.64</ele>
        <time>2012-07-27T14:39:17Z</time>
      </trkpt>
      <trkpt lat="46.65315" lon="7.43422">
        <ele>806.68</ele>
        <time>2012-07-27T14:39:26Z</time>
      </trkpt>
      <trkpt lat="46.65324" lon="7.43484">
        <ele>808.13</ele>
        <time>2012-07-27T14:39:29Z</time>
      </trkpt>
      <trkpt lat="46.65331" lon="7.43503">
        <ele>807.16</ele>
        <time>2012-07-27T14:39:30Z</time>
      </trkpt>
      <trkpt lat="46.65365" lon="7.4355">
        <ele>807.16</ele>
        <time>2012-07-27T14:39:33Z</time>
      </trkpt>
      <trkpt lat="46.65408" lon="7.43582">
        <ele>807.64</ele>
        <time>2012-07-27T14:39:36Z</time>
      </trkpt>
      <trkpt lat="46.65464" lon="7.43623">
        <ele>805.72</ele>
        <time>2012-07-27T14:39:40Z</time>
      </trkpt>
      <trkpt lat="46.65508" lon="7.43696">
        <ele>806.68</ele>
        <time>2012-07-27T14:39:44Z</time>
      </trkpt>
      <trkpt lat="46.65548" lon="7.43823">
        <ele>804.28</ele>
        <time>2012-07-27T14:39:50Z</time>
      </trkpt>
      <trkpt lat="46.65524" lon="7.43927">
        <ele>804.28</ele>
        <time>2012-07-27T14:39:55Z</time>
      </trkpt>
      <trkpt lat="46.65476" lon="7.44033">
        <ele>802.36</ele>
        <time>2012-07-27T14:40:01Z</time>
      </trkpt>
      <trkpt lat="46.65469" lon="7.4409">
        <ele>801.4</ele>
        <time>2012-07-27T14:40:04Z</time>
      </trkpt>
      <trkpt lat="46.65486" lon="7.44142">
        <ele>799.95</ele>
        <time>2012-07-27T14:40:07Z</time>
      </trkpt>
      <trkpt lat="46.65526" lon="7.44201">
        <ele>798.51</ele>
        <time>2012-07-27T14:40:11Z</time>
      </trkpt>
      <trkpt lat="46.65587" lon="7.44375">
        <ele>798.51</ele>
        <time>2012-07-27T14:40:21Z</time>
      </trkpt>
      <trkpt lat="46.65753" lon="7.44475">
        <ele>794.67</ele>
        <time>2012-07-27T14:40:33Z</time>
      </trkpt>
      <trkpt lat="46.65788" lon="7.44535">
        <ele>794.19</ele>
        <time>2012-07-27T14:40:37Z</time>
      </trkpt>
      <trkpt lat="46.6579" lon="7.44667">
        <ele>793.22</ele>
        <time>2012-07-27T14:40:42Z</time>
      </trkpt>
      <trkpt lat="46.65758" lon="7.44787">
        <ele>791.78</ele>
        <time>2012-07-27T14:40:47Z</time>
      </trkpt>
      <trkpt lat="46.65708" lon="7.44862">
        <ele>787.94</ele>
        <time>2012-07-27T14:40:52Z</time>
      </trkpt>
      <trkpt lat="46.65707" lon="7.4492">
        <ele>788.42</ele>
        <time>2012-07-27T14:40:55Z</time>
      </trkpt>
      <trkpt lat="46.6577" lon="7.45177">
        <ele>783.13</ele>
        <time>2012-07-27T14:41:08Z</time>
      </trkpt>
      <trkpt lat="46.65892" lon="7.45238">
        <ele>784.09</ele>
        <time>2012-07-27T14:41:17Z</time>
      </trkpt>
      <trkpt lat="46.65912" lon="7.4526">
        <ele>783.13</ele>
        <time>2012-07-27T14:41:19Z</time>
      </trkpt>
      <trkpt lat="46.65924" lon="7.45312">
        <ele>784.09</ele>
        <time>2012-07-27T14:41:22Z</time>
      </trkpt>
      <trkpt lat="46.65871" lon="7.45431">
        <ele>786.02</ele>
        <time>2012-07-27T14:41:29Z</time>
      </trkpt>
      <trkpt lat="46.65844" lon="7.45572">
        <ele>788.42</ele>
        <time>2012-07-27T14:41:35Z</time>
      </trkpt>
      <trkpt lat="46.65817" lon="7.45769">
        <ele>786.98</ele>
        <time>2012-07-27T14:41:43Z</time>
      </trkpt>
      <trkpt lat="46.6581" lon="7.4586">
        <ele>784.57</ele>
        <time>2012-07-27T14:41:47Z</time>
      </trkpt>
      <trkpt lat="46.65826" lon="7.45928">
        <ele>784.57</ele>
        <time>2012-07-27T14:41:50Z</time>
      </trkpt>
      <trkpt lat="46.65886" lon="7.46069">
        <ele>779.77</ele>
        <time>2012-07-27T14:41:57Z</time>
      </trkpt>
      <trkpt lat="46.65898" lon="7.46246">
        <ele>775.92</ele>
        <time>2012-07-27T14:42:04Z</time>
      </trkpt>
      <trkpt lat="46.65897" lon="7.46269">
        <ele>774.96</ele>
        <time>2012-07-27T14:42:05Z</time>
      </trkpt>
      <trkpt lat="46.65837" lon="7.46425">
        <ele>773.04</ele>
        <time>2012-07-27T14:42:13Z</time>
      </trkpt>
      <trkpt lat="46.65818" lon="7.46703">
        <ele>772.08</ele>
        <time>2012-07-27T14:42:25Z</time>
      </trkpt>
      <trkpt lat="46.65806" lon="7.46771">
        <ele>771.11</ele>
        <time>2012-07-27T14:42:28Z</time>
      </trkpt>
      <trkpt lat="46.6575" lon="7.46878">
        <ele>770.15</ele>
        <time>2012-07-27T14:42:34Z</time>
      </trkpt>
      <trkpt lat="46.65734" lon="7.46935">
        <ele>770.63</ele>
        <time>2012-07-27T14:42:37Z</time>
      </trkpt>
      <trkpt lat="46.65733" lon="7.46955">
        <ele>769.67</ele>
        <time>2012-07-27T14:42:38Z</time>
      </trkpt>
      <trkpt lat="46.65762" lon="7.47045">
        <ele>770.15</ele>
        <time>2012-07-27T14:42:43Z</time>
      </trkpt>
      <trkpt lat="46.65811" lon="7.47156">
        <ele>767.27</ele>
        <time>2012-07-27T14:42:49Z</time>
      </trkpt>
      <trkpt lat="46.65805" lon="7.47242">
        <ele>766.79</ele>
        <time>2012-07-27T14:42:53Z</time>
      </trkpt>
      <trkpt lat="46.65765" lon="7.47352">
        <ele>761.98</ele>
        <time>2012-07-27T14:43:07Z</time>
      </trkpt>
      <trkpt lat="46.65771" lon="7.47353">
        <ele>763.9</ele>
        <time>2012-07-27T14:54:37Z</time>
      </trkpt>
      <trkpt lat="46.65767" lon="7.47425">
        <ele>763.9</ele>
        <time>2012-07-27T14:54:43Z</time>
      </trkpt>
      <trkpt lat="46.65788" lon="7.47517">
        <ele>763.9</ele>
        <time>2012-07-27T14:54:49Z</time>
      </trkpt>
      <trkpt lat="46.65844" lon="7.4758">
        <ele>765.35</ele>
        <time>2012-07-27T14:54:58Z</time>
      </trkpt>
      <trkpt lat="46.65846" lon="7.4765">
        <ele>769.19</ele>
        <time>2012-07-27T14:55:03Z</time>
      </trkpt>
      <trkpt lat="46.65854" lon="7.47805">
        <ele>772.08</ele>
        <time>2012-07-27T14:55:11Z</time>
      </trkpt>
      <trkpt lat="46.65876" lon="7.47915">
        <ele>776.88</ele>
        <time>2012-07-27T14:55:16Z</time>
      </trkpt>
      <trkpt lat="46.65921" lon="7.48102">
        <ele>780.73</ele>
        <time>2012-07-27T14:55:24Z</time>
      </trkpt>
      <trkpt lat="46.65921" lon="7.48326">
        <ele>783.13</ele>
        <time>2012-07-27T14:55:34Z</time>
      </trkpt>
      <trkpt lat="46.6594" lon="7.48437">
        <ele>781.69</ele>
        <time>2012-07-27T14:55:40Z</time>
      </trkpt>
      <trkpt lat="46.65885" lon="7.48726">
        <ele>778.81</ele>
        <time>2012-07-27T14:55:55Z</time>
      </trkpt>
      <trkpt lat="46.65923" lon="7.49238">
        <ele>778.32</ele>
        <time>2012-07-27T14:56:21Z</time>
      </trkpt>
      <trkpt lat="46.65902" lon="7.49379">
        <ele>779.77</ele>
        <time>2012-07-27T14:56:29Z</time>
      </trkpt>
      <trkpt lat="46.65849" lon="7.4956">
        <ele>781.69</ele>
        <time>2012-07-27T14:56:40Z</time>
      </trkpt>
      <trkpt lat="46.65812" lon="7.49863">
        <ele>781.21</ele>
        <time>2012-07-27T14:56:56Z</time>
      </trkpt>
      <trkpt lat="46.6589" lon="7.50173">
        <ele>777.84</ele>
        <time>2012-07-27T14:57:10Z</time>
      </trkpt>
      <trkpt lat="46.65895" lon="7.50358">
        <ele>776.4</ele>
        <time>2012-07-27T14:57:18Z</time>
      </trkpt>
      <trkpt lat="46.65877" lon="7.50946">
        <ele>770.15</ele>
        <time>2012-07-27T14:57:40Z</time>
      </trkpt>
      <trkpt lat="46.65802" lon="7.51236">
        <ele>767.27</ele>
        <time>2012-07-27T14:57:53Z</time>
      </trkpt>
      <trkpt lat="46.65795" lon="7.51325">
        <ele>767.75</ele>
        <time>2012-07-27T14:57:57Z</time>
      </trkpt>
      <trkpt lat="46.65841" lon="7.51586">
        <ele>764.39</ele>
        <time>2012-07-27T14:58:08Z</time>
      </trkpt>
      <trkpt lat="46.6577" lon="7.51832">
        <ele>763.9</ele>
        <time>2012-07-27T14:58:20Z</time>
      </trkpt>
      <trkpt lat="46.65769" lon="7.51875">
        <ele>762.94</ele>
        <time>2012-07-27T14:58:22Z</time>
      </trkpt>
      <trkpt lat="46.65791" lon="7.52027">
        <ele>757.66</ele>
        <time>2012-07-27T14:58:30Z</time>
      </trkpt>
      <trkpt lat="46.65795" lon="7.52044">
        <ele>761.98</ele>
        <time>2012-07-27T14:58:31Z</time>
      </trkpt>
      <trkpt lat="46.65875" lon="7.52256">
        <ele>761.98</ele>
        <time>2012-07-27T14:58:44Z</time>
      </trkpt>
      <trkpt lat="46.65962" lon="7.52614">
        <ele>765.83</ele>
        <time>2012-07-27T14:59:06Z</time>
      </trkpt>
      <trkpt lat="46.65982" lon="7.52716">
        <ele>764.87</ele>
        <time>2012-07-27T14:59:11Z</time>
      </trkpt>
      <trkpt lat="46.66014" lon="7.52798">
        <ele>765.35</ele>
        <time>2012-07-27T14:59:16Z</time>
      </trkpt>
      <trkpt lat="46.66019" lon="7.53155">
        <ele>766.31</ele>
        <time>2012-07-27T14:59:31Z</time>
      </trkpt>
      <trkpt lat="46.66027" lon="7.53287">
        <ele>765.35</ele>
        <time>2012-07-27T14:59:37Z</time>
      </trkpt>
      <trkpt lat="46.65953" lon="7.53552">
        <ele>760.54</ele>
        <time>2012-07-27T14:59:50Z</time>
      </trkpt>
      <trkpt lat="46.65997" lon="7.53754">
        <ele>757.66</ele>
        <time>2012-07-27T15:00:01Z</time>
      </trkpt>
      <trkpt lat="46.65954" lon="7.54019">
        <ele>755.25</ele>
        <time>2012-07-27T15:00:15Z</time>
      </trkpt>
      <trkpt lat="46.65991" lon="7.54348">
        <ele>747.08</ele>
        <time>2012-07-27T15:00:32Z</time>
      </trkpt>
      <trkpt lat="46.65979" lon="7.54616">
        <ele>745.16</ele>
        <time>2012-07-27T15:00:46Z</time>
      </trkpt>
      <trkpt lat="46.66024" lon="7.54862">
        <ele>739.39</ele>
        <time>2012-07-27T15:01:00Z</time>
      </trkpt>
      <trkpt lat="46.66016" lon="7.55135">
        <ele>733.62</ele>
        <time>2012-07-27T15:01:16Z</time>
      </trkpt>
      <trkpt lat="46.66116" lon="7.55608">
        <ele>729.3</ele>
        <time>2012-07-27T15:01:47Z</time>
      </trkpt>
      <trkpt lat="46.66128" lon="7.55908">
        <ele>734.1</ele>
        <time>2012-07-27T15:02:01Z</time>
      </trkpt>
      <trkpt lat="46.66172" lon="7.56018">
        <ele>736.99</ele>
        <time>2012-07-27T15:02:06Z</time>
      </trkpt>
      <trkpt lat="46.66206" lon="7.5608">
        <ele>736.51</ele>
        <time>2012-07-27T15:02:09Z</time>
      </trkpt>
      <trkpt lat="46.66226" lon="7.56177">
        <ele>740.35</ele>
        <time>2012-07-27T15:02:13Z</time>
      </trkpt>
      <trkpt lat="46.66205" lon="7.56496">
        <ele>743.72</ele>
        <time>2012-07-27T15:02:25Z</time>
      </trkpt>
      <trkpt lat="46.66204" lon="7.56854">
        <ele>745.64</ele>
        <time>2012-07-27T15:02:41Z</time>
      </trkpt>
      <trkpt lat="46.66215" lon="7.56965">
        <ele>744.68</ele>
        <time>2012-07-27T15:02:47Z</time>
      </trkpt>
      <trkpt lat="46.66187" lon="7.57228">
        <ele>743.72</ele>
        <time>2012-07-27T15:03:01Z</time>
      </trkpt>
      <trkpt lat="46.66189" lon="7.57339">
        <ele>741.31</ele>
        <time>2012-07-27T15:03:06Z</time>
      </trkpt>
      <trkpt lat="46.66168" lon="7.57458">
        <ele>738.91</ele>
        <time>2012-07-27T15:03:12Z</time>
      </trkpt>
      <trkpt lat="46.66168" lon="7.57475">
        <ele>737.95</ele>
        <time>2012-07-27T15:03:13Z</time>
      </trkpt>
      <trkpt lat="46.66183" lon="7.57522">
        <ele>736.51</ele>
        <time>2012-07-27T15:03:16Z</time>
      </trkpt>
      <trkpt lat="46.66218" lon="7.57544">
        <ele>735.55</ele>
        <time>2012-07-27T15:03:19Z</time>
      </trkpt>
      <trkpt lat="46.66294" lon="7.57545">
        <ele>730.74</ele>
        <time>2012-07-27T15:03:25Z</time>
      </trkpt>
      <trkpt lat="46.66326" lon="7.57568">
        <ele>729.78</ele>
        <time>2012-07-27T15:03:28Z</time>
      </trkpt>
      <trkpt lat="46.66335" lon="7.5758">
        <ele>728.82</ele>
        <time>2012-07-27T15:03:29Z</time>
      </trkpt>
      <trkpt lat="46.66393" lon="7.57826">
        <ele>721.61</ele>
        <time>2012-07-27T15:03:44Z</time>
      </trkpt>
      <trkpt lat="46.66423" lon="7.579">
        <ele>719.68</ele>
        <time>2012-07-27T15:03:49Z</time>
      </trkpt>
      <trkpt lat="46.66493" lon="7.58">
        <ele>714.88</ele>
        <time>2012-07-27T15:03:57Z</time>
      </trkpt>
      <trkpt lat="46.66532" lon="7.58083">
        <ele>711.51</ele>
        <time>2012-07-27T15:04:03Z</time>
      </trkpt>
      <trkpt lat="46.66559" lon="7.5826">
        <ele>706.71</ele>
        <time>2012-07-27T15:04:14Z</time>
      </trkpt>
      <trkpt lat="46.66687" lon="7.58436">
        <ele>704.3</ele>
        <time>2012-07-27T15:04:29Z</time>
      </trkpt>
      <trkpt lat="46.66699" lon="7.5847">
        <ele>703.82</ele>
        <time>2012-07-27T15:04:31Z</time>
      </trkpt>
      <trkpt lat="46.66703" lon="7.58949">
        <ele>701.9</ele>
        <time>2012-07-27T15:04:54Z</time>
      </trkpt>
      <trkpt lat="46.66775" lon="7.5923">
        <ele>699.02</ele>
        <time>2012-07-27T15:05:08Z</time>
      </trkpt>
      <trkpt lat="46.66862" lon="7.59776">
        <ele>689.88</ele>
        <time>2012-07-27T15:05:34Z</time>
      </trkpt>
      <trkpt lat="46.66943" lon="7.60094">
        <ele>677.87</ele>
        <time>2012-07-27T15:05:47Z</time>
      </trkpt>
      <trkpt lat="46.66947" lon="7.60166">
        <ele>674.02</ele>
        <time>2012-07-27T15:05:50Z</time>
      </trkpt>
      <trkpt lat="46.6692" lon="7.60302">
        <ele>674.02</ele>
        <time>2012-07-27T15:05:56Z</time>
      </trkpt>
      <trkpt lat="46.66921" lon="7.60372">
        <ele>673.54</ele>
        <time>2012-07-27T15:05:59Z</time>
      </trkpt>
      <trkpt lat="46.66934" lon="7.60507">
        <ele>669.7</ele>
        <time>2012-07-27T15:06:06Z</time>
      </trkpt>
      <trkpt lat="46.66958" lon="7.60638">
        <ele>668.25</ele>
        <time>2012-07-27T15:06:14Z</time>
      </trkpt>
      <trkpt lat="46.67033" lon="7.60841">
        <ele>667.29</ele>
        <time>2012-07-27T15:06:26Z</time>
      </trkpt>
      <trkpt lat="46.6706" lon="7.6101">
        <ele>665.85</ele>
        <time>2012-07-27T15:06:34Z</time>
      </trkpt>
      <trkpt lat="46.67059" lon="7.61126">
        <ele>664.41</ele>
        <time>2012-07-27T15:06:40Z</time>
      </trkpt>
      <trkpt lat="46.67038" lon="7.61211">
        <ele>665.37</ele>
        <time>2012-07-27T15:06:44Z</time>
      </trkpt>
      <trkpt lat="46.67012" lon="7.6131">
        <ele>663.93</ele>
        <time>2012-07-27T15:06:49Z</time>
      </trkpt>
      <trkpt lat="46.67013" lon="7.61549">
        <ele>662.49</ele>
        <time>2012-07-27T15:07:00Z</time>
      </trkpt>
      <trkpt lat="46.67049" lon="7.61748">
        <ele>662.01</ele>
        <time>2012-07-27T15:07:10Z</time>
      </trkpt>
      <trkpt lat="46.67115" lon="7.61956">
        <ele>662.01</ele>
        <time>2012-07-27T15:07:20Z</time>
      </trkpt>
      <trkpt lat="46.67261" lon="7.62255">
        <ele>664.41</ele>
        <time>2012-07-27T15:07:34Z</time>
      </trkpt>
      <trkpt lat="46.6736" lon="7.62456">
        <ele>660.56</ele>
        <time>2012-07-27T15:07:43Z</time>
      </trkpt>
      <trkpt lat="46.6747" lon="7.62635">
        <ele>652.39</ele>
        <time>2012-07-27T15:07:56Z</time>
      </trkpt>
      <trkpt lat="46.67442" lon="7.62713">
        <ele>654.31</ele>
        <time>2012-07-27T15:08:03Z</time>
      </trkpt>
      <trkpt lat="46.6746" lon="7.62819">
        <ele>657.68</ele>
        <time>2012-07-27T15:08:10Z</time>
      </trkpt>
      <trkpt lat="46.67485" lon="7.62987">
        <ele>656.72</ele>
        <time>2012-07-27T15:08:18Z</time>
      </trkpt>
      <trkpt lat="46.67495" lon="7.63106">
        <ele>653.35</ele>
        <time>2012-07-27T15:08:23Z</time>
      </trkpt>
      <trkpt lat="46.67515" lon="7.63258">
        <ele>644.22</ele>
        <time>2012-07-27T15:08:32Z</time>
      </trkpt>
      <trkpt lat="46.67468" lon="7.63339">
        <ele>647.1</ele>
        <time>2012-07-27T15:08:40Z</time>
      </trkpt>
      <trkpt lat="46.67457" lon="7.63396">
        <ele>650.47</ele>
        <time>2012-07-27T15:08:43Z</time>
      </trkpt>
      <trkpt lat="46.6745" lon="7.63473">
        <ele>652.87</ele>
        <time>2012-07-27T15:08:47Z</time>
      </trkpt>
      <trkpt lat="46.67451" lon="7.63548">
        <ele>654.31</ele>
        <time>2012-07-27T15:08:51Z</time>
      </trkpt>
      <trkpt lat="46.67484" lon="7.63724">
        <ele>655.28</ele>
        <time>2012-07-27T15:09:01Z</time>
      </trkpt>
      <trkpt lat="46.67524" lon="7.6381">
        <ele>658.64</ele>
        <time>2012-07-27T15:09:07Z</time>
      </trkpt>
      <trkpt lat="46.67643" lon="7.63904">
        <ele>658.64</ele>
        <time>2012-07-27T15:09:18Z</time>
      </trkpt>
      <trkpt lat="46.67657" lon="7.63934">
        <ele>658.16</ele>
        <time>2012-07-27T15:09:20Z</time>
      </trkpt>
      <trkpt lat="46.67738" lon="7.64163">
        <ele>658.64</ele>
        <time>2012-07-27T15:09:34Z</time>
      </trkpt>
      <trkpt lat="46.67773" lon="7.64417">
        <ele>657.68</ele>
        <time>2012-07-27T15:09:47Z</time>
      </trkpt>
      <trkpt lat="46.6786" lon="7.64712">
        <ele>657.2</ele>
        <time>2012-07-27T15:10:02Z</time>
      </trkpt>
      <trkpt lat="46.68111" lon="7.65271">
        <ele>660.08</ele>
        <time>2012-07-27T15:10:31Z</time>
      </trkpt>
      <trkpt lat="46.68245" lon="7.65567">
        <ele>659.6</ele>
        <time>2012-07-27T15:10:44Z</time>
      </trkpt>
      <trkpt lat="46.68261" lon="7.65605">
        <ele>655.76</ele>
        <time>2012-07-27T15:10:46Z</time>
      </trkpt>
      <trkpt lat="46.68259" lon="7.65726">
        <ele>653.83</ele>
        <time>2012-07-27T15:10:52Z</time>
      </trkpt>
      <trkpt lat="46.68243" lon="7.65823">
        <ele>649.99</ele>
        <time>2012-07-27T15:10:57Z</time>
      </trkpt>
      <trkpt lat="46.6826" lon="7.65899">
        <ele>649.03</ele>
        <time>2012-07-27T15:11:02Z</time>
      </trkpt>
      <trkpt lat="46.68339" lon="7.65994">
        <ele>647.59</ele>
        <time>2012-07-27T15:11:11Z</time>
      </trkpt>
      <trkpt lat="46.6839" lon="7.65968">
        <ele>654.8</ele>
        <time>2012-07-27T15:11:16Z</time>
      </trkpt>
      <trkpt lat="46.68416" lon="7.65935">
        <ele>656.72</ele>
        <time>2012-07-27T15:11:18Z</time>
      </trkpt>
      <trkpt lat="46.68475" lon="7.65901">
        <ele>658.16</ele>
        <time>2012-07-27T15:11:22Z</time>
      </trkpt>
      <trkpt lat="46.68516" lon="7.65915">
        <ele>659.12</ele>
        <time>2012-07-27T15:11:26Z</time>
      </trkpt>
      <trkpt lat="46.68505" lon="7.66002">
        <ele>666.33</ele>
        <time>2012-07-27T15:11:31Z</time>
      </trkpt>
      <trkpt lat="46.68439" lon="7.66245">
        <ele>674.98</ele>
        <time>2012-07-27T15:11:43Z</time>
      </trkpt>
      <trkpt lat="46.68396" lon="7.6637">
        <ele>672.58</ele>
        <time>2012-07-27T15:11:53Z</time>
      </trkpt>
      <trkpt lat="46.6837" lon="7.66539">
        <ele>670.18</ele>
        <time>2012-07-27T15:12:58Z</time>
      </trkpt>
      <trkpt lat="46.68394" lon="7.66435">
        <ele>671.14</ele>
        <time>2012-07-27T15:13:07Z</time>
      </trkpt>
      <trkpt lat="46.68383" lon="7.66432">
        <ele>671.14</ele>
        <time>2012-07-27T15:13:12Z</time>
      </trkpt>
      <trkpt lat="46.68378" lon="7.66447">
        <ele>670.18</ele>
        <time>2012-07-27T15:13:30Z</time>
      </trkpt>
      <trkpt lat="46.68363" lon="7.66604">
        <ele>666.33</ele>
        <time>2012-07-27T15:23:52Z</time>
      </trkpt>
      <trkpt lat="46.68371" lon="7.66675">
        <ele>663.93</ele>
        <time>2012-07-27T15:23:57Z</time>
      </trkpt>
      <trkpt lat="46.68411" lon="7.66781">
        <ele>660.08</ele>
        <time>2012-07-27T15:24:05Z</time>
      </trkpt>
      <trkpt lat="46.68477" lon="7.6688">
        <ele>652.87</ele>
        <time>2012-07-27T15:24:15Z</time>
      </trkpt>
      <trkpt lat="46.68561" lon="7.66945">
        <ele>650.47</ele>
        <time>2012-07-27T15:24:38Z</time>
      </trkpt>
      <trkpt lat="46.68623" lon="7.66886">
        <ele>649.51</ele>
        <time>2012-07-27T15:24:47Z</time>
      </trkpt>
      <trkpt lat="46.68689" lon="7.66809">
        <ele>644.7</ele>
        <time>2012-07-27T15:24:54Z</time>
      </trkpt>
      <trkpt lat="46.68732" lon="7.66798">
        <ele>643.74</ele>
        <time>2012-07-27T15:24:58Z</time>
      </trkpt>
      <trkpt lat="46.68974" lon="7.66919">
        <ele>637.01</ele>
        <time>2012-07-27T15:25:31Z</time>
      </trkpt>
      <trkpt lat="46.68983" lon="7.66948">
        <ele>636.53</ele>
        <time>2012-07-27T15:25:35Z</time>
      </trkpt>
      <trkpt lat="46.68989" lon="7.6734">
        <ele>638.45</ele>
        <time>2012-07-27T15:26:53Z</time>
      </trkpt>
      <trkpt lat="46.68981" lon="7.67545">
        <ele>636.53</ele>
        <time>2012-07-27T15:28:01Z</time>
      </trkpt>
      <trkpt lat="46.68901" lon="7.67735">
        <ele>627.88</ele>
        <time>2012-07-27T15:28:23Z</time>
      </trkpt>
      <trkpt lat="46.68873" lon="7.67873">
        <ele>623.55</ele>
        <time>2012-07-27T15:28:35Z</time>
      </trkpt>
      <trkpt lat="46.68828" lon="7.67974">
        <ele>622.59</ele>
        <time>2012-07-27T15:28:46Z</time>
      </trkpt>
      <trkpt lat="46.68713" lon="7.68076">
        <ele>622.59</ele>
        <time>2012-07-27T15:28:57Z</time>
      </trkpt>
      <trkpt lat="46.68642" lon="7.68168">
        <ele>626.92</ele>
        <time>2012-07-27T15:29:05Z</time>
      </trkpt>
      <trkpt lat="46.68548" lon="7.68322">
        <ele>632.2</ele>
        <time>2012-07-27T15:29:16Z</time>
      </trkpt>
      <trkpt lat="46.68464" lon="7.68498">
        <ele>636.05</ele>
        <time>2012-07-27T15:29:29Z</time>
      </trkpt>
      <trkpt lat="46.68396" lon="7.68653">
        <ele>637.49</ele>
        <time>2012-07-27T15:29:38Z</time>
      </trkpt>
      <trkpt lat="46.68357" lon="7.68772">
        <ele>634.61</ele>
        <time>2012-07-27T15:29:45Z</time>
      </trkpt>
      <trkpt lat="46.68273" lon="7.68936">
        <ele>626.92</ele>
        <time>2012-07-27T15:29:56Z</time>
      </trkpt>
      <trkpt lat="46.68231" lon="7.6912">
        <ele>620.67</ele>
        <time>2012-07-27T15:30:06Z</time>
      </trkpt>
      <trkpt lat="46.68164" lon="7.69222">
        <ele>615.38</ele>
        <time>2012-07-27T15:30:13Z</time>
      </trkpt>
      <trkpt lat="46.68022" lon="7.69334">
        <ele>607.21</ele>
        <time>2012-07-27T15:30:25Z</time>
      </trkpt>
      <trkpt lat="46.67965" lon="7.69492">
        <ele>606.73</ele>
        <time>2012-07-27T15:30:34Z</time>
      </trkpt>
      <trkpt lat="46.67855" lon="7.69576">
        <ele>604.81</ele>
        <time>2012-07-27T15:30:44Z</time>
      </trkpt>
      <trkpt lat="46.67731" lon="7.6987">
        <ele>602.4</ele>
        <time>2012-07-27T15:31:05Z</time>
      </trkpt>
      <trkpt lat="46.67696" lon="7.69947">
        <ele>599.04</ele>
        <time>2012-07-27T15:31:11Z</time>
      </trkpt>
      <trkpt lat="46.67559" lon="7.70096">
        <ele>587.5</ele>
        <time>2012-07-27T15:31:28Z</time>
      </trkpt>
      <trkpt lat="46.67515" lon="7.70255">
        <ele>579.81</ele>
        <time>2012-07-27T15:31:39Z</time>
      </trkpt>
      <trkpt lat="46.67396" lon="7.70294">
        <ele>577.89</ele>
        <time>2012-07-27T15:31:52Z</time>
      </trkpt>
      <trkpt lat="46.67371" lon="7.70314">
        <ele>577.41</ele>
        <time>2012-07-27T15:31:55Z</time>
      </trkpt>
      <trkpt lat="46.67309" lon="7.70411">
        <ele>579.33</ele>
        <time>2012-07-27T15:32:05Z</time>
      </trkpt>
      <trkpt lat="46.67253" lon="7.70558">
        <ele>581.73</ele>
        <time>2012-07-27T15:32:17Z</time>
      </trkpt>
      <trkpt lat="46.67202" lon="7.70712">
        <ele>579.81</ele>
        <time>2012-07-27T15:32:27Z</time>
      </trkpt>
      <trkpt lat="46.67164" lon="7.70854">
        <ele>580.29</ele>
        <time>2012-07-27T15:32:36Z</time>
      </trkpt>
      <trkpt lat="46.671" lon="7.71014">
        <ele>579.33</ele>
        <time>2012-07-27T15:32:46Z</time>
      </trkpt>
      <trkpt lat="46.66976" lon="7.7153">
        <ele>578.85</ele>
        <time>2012-07-27T15:33:17Z</time>
      </trkpt>
      <trkpt lat="46.66857" lon="7.71696">
        <ele>579.81</ele>
        <time>2012-07-27T15:33:29Z</time>
      </trkpt>
      <trkpt lat="46.66794" lon="7.71914">
        <ele>583.66</ele>
        <time>2012-07-27T15:33:40Z</time>
      </trkpt>
      <trkpt lat="46.66741" lon="7.72033">
        <ele>590.87</ele>
        <time>2012-07-27T15:33:47Z</time>
      </trkpt>
      <trkpt lat="46.66735" lon="7.72051">
        <ele>591.35</ele>
        <time>2012-07-27T15:33:48Z</time>
      </trkpt>
      <trkpt lat="46.66728" lon="7.72109">
        <ele>591.83</ele>
        <time>2012-07-27T15:33:51Z</time>
      </trkpt>
      <trkpt lat="46.66775" lon="7.72264">
        <ele>585.1</ele>
        <time>2012-07-27T15:33:59Z</time>
      </trkpt>
      <trkpt lat="46.66775" lon="7.72334">
        <ele>583.66</ele>
        <time>2012-07-27T15:34:02Z</time>
      </trkpt>
      <trkpt lat="46.66758" lon="7.724">
        <ele>583.18</ele>
        <time>2012-07-27T15:34:05Z</time>
      </trkpt>
      <trkpt lat="46.66702" lon="7.72481">
        <ele>582.22</ele>
        <time>2012-07-27T15:34:10Z</time>
      </trkpt>
      <trkpt lat="46.66582" lon="7.72525">
        <ele>581.73</ele>
        <time>2012-07-27T15:34:18Z</time>
      </trkpt>
      <trkpt lat="46.66533" lon="7.72581">
        <ele>583.66</ele>
        <time>2012-07-27T15:34:22Z</time>
      </trkpt>
      <trkpt lat="46.6647" lon="7.72767">
        <ele>582.7</ele>
        <time>2012-07-27T15:34:32Z</time>
      </trkpt>
      <trkpt lat="46.66406" lon="7.72901">
        <ele>583.66</ele>
        <time>2012-07-27T15:34:40Z</time>
      </trkpt>
      <trkpt lat="46.66383" lon="7.73454">
        <ele>580.29</ele>
        <time>2012-07-27T15:35:05Z</time>
      </trkpt>
      <trkpt lat="46.66313" lon="7.73691">
        <ele>580.77</ele>
        <time>2012-07-27T15:35:15Z</time>
      </trkpt>
      <trkpt lat="46.66263" lon="7.7402">
        <ele>578.85</ele>
        <time>2012-07-27T15:35:29Z</time>
      </trkpt>
      <trkpt lat="46.66212" lon="7.74216">
        <ele>579.81</ele>
        <time>2012-07-27T15:35:39Z</time>
      </trkpt>
      <trkpt lat="46.66112" lon="7.74436">
        <ele>580.77</ele>
        <time>2012-07-27T15:35:51Z</time>
      </trkpt>
      <trkpt lat="46.6599" lon="7.74575">
        <ele>584.14</ele>
        <time>2012-07-27T15:36:00Z</time>
      </trkpt>
      <trkpt lat="46.65969" lon="7.74615">
        <ele>586.54</ele>
        <time>2012-07-27T15:36:02Z</time>
      </trkpt>
      <trkpt lat="46.65906" lon="7.7479">
        <ele>586.54</ele>
        <time>2012-07-27T15:36:10Z</time>
      </trkpt>
      <trkpt lat="46.65643" lon="7.7519">
        <ele>580.29</ele>
        <time>2012-07-27T15:36:33Z</time>
      </trkpt>
      <trkpt lat="46.65615" lon="7.75283">
        <ele>580.77</ele>
        <time>2012-07-27T15:36:37Z</time>
      </trkpt>
      <trkpt lat="46.65568" lon="7.75584">
        <ele>578.37</ele>
        <time>2012-07-27T15:36:49Z</time>
      </trkpt>
      <trkpt lat="46.65414" lon="7.75963">
        <ele>581.73</ele>
        <time>2012-07-27T15:37:08Z</time>
      </trkpt>
      <trkpt lat="46.6541" lon="7.76055">
        <ele>586.06</ele>
        <time>2012-07-27T15:37:12Z</time>
      </trkpt>
      <trkpt lat="46.65423" lon="7.76219">
        <ele>587.02</ele>
        <time>2012-07-27T15:37:19Z</time>
      </trkpt>
      <trkpt lat="46.65493" lon="7.76382">
        <ele>585.58</ele>
        <time>2012-07-27T15:37:33Z</time>
      </trkpt>
      <trkpt lat="46.65524" lon="7.76423">
        <ele>582.7</ele>
        <time>2012-07-27T15:37:37Z</time>
      </trkpt>
      <trkpt lat="46.65557" lon="7.76532">
        <ele>583.18</ele>
        <time>2012-07-27T15:37:43Z</time>
      </trkpt>
      <trkpt lat="46.65567" lon="7.76705">
        <ele>583.66</ele>
        <time>2012-07-27T15:37:51Z</time>
      </trkpt>
      <trkpt lat="46.6553" lon="7.76881">
        <ele>586.06</ele>
        <time>2012-07-27T15:38:00Z</time>
      </trkpt>
      <trkpt lat="46.65456" lon="7.77117">
        <ele>587.5</ele>
        <time>2012-07-27T15:38:12Z</time>
      </trkpt>
      <trkpt lat="46.65461" lon="7.77417">
        <ele>587.98</ele>
        <time>2012-07-27T15:38:28Z</time>
      </trkpt>
      <trkpt lat="46.65535" lon="7.77641">
        <ele>591.83</ele>
        <time>2012-07-27T15:38:41Z</time>
      </trkpt>
      <trkpt lat="46.65592" lon="7.77775">
        <ele>589.91</ele>
        <time>2012-07-27T15:38:49Z</time>
      </trkpt>
      <trkpt lat="46.65654" lon="7.78079">
        <ele>588.95</ele>
        <time>2012-07-27T15:39:08Z</time>
      </trkpt>
      <trkpt lat="46.65703" lon="7.78372">
        <ele>586.54</ele>
        <time>2012-07-27T15:39:23Z</time>
      </trkpt>
      <trkpt lat="46.65718" lon="7.78487">
        <ele>582.22</ele>
        <time>2012-07-27T15:39:31Z</time>
      </trkpt>
      <trkpt lat="46.65709" lon="7.78507">
        <ele>582.22</ele>
        <time>2012-07-27T15:39:34Z</time>
      </trkpt>
      <trkpt lat="46.65682" lon="7.78504">
        <ele>583.66</ele>
        <time>2012-07-27T15:39:37Z</time>
      </trkpt>
      <trkpt lat="46.65631" lon="7.78517">
        <ele>585.58</ele>
        <time>2012-07-27T15:39:43Z</time>
      </trkpt>
      <trkpt lat="46.65621" lon="7.78553">
        <ele>584.14</ele>
        <time>2012-07-27T15:39:47Z</time>
      </trkpt>
      <trkpt lat="46.65711" lon="7.7865">
        <ele>579.81</ele>
        <time>2012-07-27T15:39:54Z</time>
      </trkpt>
      <trkpt lat="46.65816" lon="7.78877">
        <ele>580.77</ele>
        <time>2012-07-27T15:40:05Z</time>
      </trkpt>
      <trkpt lat="46.65928" lon="7.79055">
        <ele>585.1</ele>
        <time>2012-07-27T15:40:14Z</time>
      </trkpt>
      <trkpt lat="46.65991" lon="7.79295">
        <ele>587.02</ele>
        <time>2012-07-27T15:40:23Z</time>
      </trkpt>
      <trkpt lat="46.66013" lon="7.79341">
        <ele>587.02</ele>
        <time>2012-07-27T15:40:25Z</time>
      </trkpt>
      <trkpt lat="46.66168" lon="7.79724">
        <ele>582.22</ele>
        <time>2012-07-27T15:40:41Z</time>
      </trkpt>
      <trkpt lat="46.66215" lon="7.79912">
        <ele>582.7</ele>
        <time>2012-07-27T15:40:48Z</time>
      </trkpt>
      <trkpt lat="46.66281" lon="7.80041">
        <ele>586.06</ele>
        <time>2012-07-27T15:40:54Z</time>
      </trkpt>
      <trkpt lat="46.66356" lon="7.80151">
        <ele>590.87</ele>
        <time>2012-07-27T15:41:00Z</time>
      </trkpt>
      <trkpt lat="46.66388" lon="7.8027">
        <ele>597.12</ele>
        <time>2012-07-27T15:41:05Z</time>
      </trkpt>
      <trkpt lat="46.66381" lon="7.80375">
        <ele>600</ele>
        <time>2012-07-27T15:41:09Z</time>
      </trkpt>
      <trkpt lat="46.66355" lon="7.80444">
        <ele>603.85</ele>
        <time>2012-07-27T15:41:12Z</time>
      </trkpt>
      <trkpt lat="46.66313" lon="7.80496">
        <ele>605.77</ele>
        <time>2012-07-27T15:41:15Z</time>
      </trkpt>
      <trkpt lat="46.66242" lon="7.80528">
        <ele>607.21</ele>
        <time>2012-07-27T15:41:19Z</time>
      </trkpt>
      <trkpt lat="46.66109" lon="7.80502">
        <ele>610.09</ele>
        <time>2012-07-27T15:41:27Z</time>
      </trkpt>
      <trkpt lat="46.66092" lon="7.80503">
        <ele>610.09</ele>
        <time>2012-07-27T15:41:28Z</time>
      </trkpt>
      <trkpt lat="46.66044" lon="7.80523">
        <ele>611.06</ele>
        <time>2012-07-27T15:41:31Z</time>
      </trkpt>
      <trkpt lat="46.65988" lon="7.80577">
        <ele>612.98</ele>
        <time>2012-07-27T15:41:35Z</time>
      </trkpt>
      <trkpt lat="46.65936" lon="7.80699">
        <ele>617.3</ele>
        <time>2012-07-27T15:41:41Z</time>
      </trkpt>
      <trkpt lat="46.659" lon="7.80919">
        <ele>618.75</ele>
        <time>2012-07-27T15:41:52Z</time>
      </trkpt>
      <trkpt lat="46.65857" lon="7.81246">
        <ele>614.9</ele>
        <time>2012-07-27T15:42:09Z</time>
      </trkpt>
      <trkpt lat="46.6587" lon="7.81466">
        <ele>606.73</ele>
        <time>2012-07-27T15:42:18Z</time>
      </trkpt>
      <trkpt lat="46.65909" lon="7.8169">
        <ele>602.88</ele>
        <time>2012-07-27T15:42:26Z</time>
      </trkpt>
      <trkpt lat="46.65972" lon="7.81901">
        <ele>599.52</ele>
        <time>2012-07-27T15:42:34Z</time>
      </trkpt>
      <trkpt lat="46.65999" lon="7.82059">
        <ele>596.64</ele>
        <time>2012-07-27T15:42:40Z</time>
      </trkpt>
      <trkpt lat="46.66086" lon="7.82194">
        <ele>589.43</ele>
        <time>2012-07-27T15:42:47Z</time>
      </trkpt>
      <trkpt lat="46.6616" lon="7.82407">
        <ele>585.58</ele>
        <time>2012-07-27T15:42:55Z</time>
      </trkpt>
      <trkpt lat="46.66267" lon="7.82546">
        <ele>582.22</ele>
        <time>2012-07-27T15:43:02Z</time>
      </trkpt>
      <trkpt lat="46.66414" lon="7.82785">
        <ele>580.77</ele>
        <time>2012-07-27T15:43:13Z</time>
      </trkpt>
      <trkpt lat="46.66514" lon="7.82947">
        <ele>578.37</ele>
        <time>2012-07-27T15:43:21Z</time>
      </trkpt>
      <trkpt lat="46.66677" lon="7.83287">
        <ele>576.93</ele>
        <time>2012-07-27T15:43:37Z</time>
      </trkpt>
      <trkpt lat="46.66837" lon="7.83666">
        <ele>586.06</ele>
        <time>2012-07-27T15:43:53Z</time>
      </trkpt>
      <trkpt lat="46.66946" lon="7.83804">
        <ele>587.98</ele>
        <time>2012-07-27T15:44:00Z</time>
      </trkpt>
      <trkpt lat="46.67067" lon="7.83913">
        <ele>584.62</ele>
        <time>2012-07-27T15:44:07Z</time>
      </trkpt>
      <trkpt lat="46.67175" lon="7.8404">
        <ele>582.7</ele>
        <time>2012-07-27T15:44:14Z</time>
      </trkpt>
      <trkpt lat="46.67231" lon="7.84188">
        <ele>586.06</ele>
        <time>2012-07-27T15:44:20Z</time>
      </trkpt>
      <trkpt lat="46.67248" lon="7.84519">
        <ele>599.52</ele>
        <time>2012-07-27T15:44:56Z</time>
      </trkpt>
      <trkpt lat="46.67246" lon="7.84541">
        <ele>600</ele>
        <time>2012-07-27T15:45:00Z</time>
      </trkpt>
      <trkpt lat="46.67175" lon="7.85472">
        <ele>600</ele>
        <time>2012-07-27T15:45:01Z</time>
      </trkpt>
      <trkpt lat="46.67155" lon="7.85959">
        <ele>599.52</ele>
        <time>2012-07-27T15:45:17Z</time>
      </trkpt>
      <trkpt lat="46.67161" lon="7.86759">
        <ele>591.35</ele>
        <time>2012-07-27T15:45:47Z</time>
      </trkpt>
      <trkpt lat="46.6715" lon="7.86784">
        <ele>592.31</ele>
        <time>2012-07-27T15:45:51Z</time>
      </trkpt>
      <trkpt lat="46.67123" lon="7.86799">
        <ele>593.27</ele>
        <time>2012-07-27T15:45:54Z</time>
      </trkpt>
      <trkpt lat="46.66998" lon="7.86854">
        <ele>595.19</ele>
        <time>2012-07-27T15:46:05Z</time>
      </trkpt>
      <trkpt lat="46.66887" lon="7.86938">
        <ele>595.19</ele>
        <time>2012-07-27T15:46:15Z</time>
      </trkpt>
      <trkpt lat="46.66748" lon="7.86999">
        <ele>595.67</ele>
        <time>2012-07-27T15:46:27Z</time>
      </trkpt>
      <trkpt lat="46.66711" lon="7.86996">
        <ele>596.64</ele>
        <time>2012-07-27T15:46:30Z</time>
      </trkpt>
      <trkpt lat="46.66544" lon="7.86892">
        <ele>597.6</ele>
        <time>2012-07-27T15:46:47Z</time>
      </trkpt>
      <trkpt lat="46.66515" lon="7.86892">
        <ele>598.56</ele>
        <time>2012-07-27T15:46:50Z</time>
      </trkpt>
      <trkpt lat="46.66356" lon="7.86996">
        <ele>598.08</ele>
        <time>2012-07-27T15:47:06Z</time>
      </trkpt>
      <trkpt lat="46.66314" lon="7.8691">
        <ele>600</ele>
        <time>2012-07-27T15:47:13Z</time>
      </trkpt>
      <trkpt lat="46.66094" lon="7.86676">
        <ele>605.29</ele>
        <time>2012-07-27T15:47:49Z</time>
      </trkpt>
      <trkpt lat="46.66088" lon="7.86665">
        <ele>603.85</ele>
        <time>2012-07-27T15:47:50Z</time>
      </trkpt>
      <trkpt lat="46.66084" lon="7.86653">
        <ele>606.25</ele>
        <time>2012-07-27T15:47:51Z</time>
      </trkpt>
      <trkpt lat="46.66076" lon="7.86624">
        <ele>604.33</ele>
        <time>2012-07-27T15:47:53Z</time>
      </trkpt>
      <trkpt lat="46.66069" lon="7.86565">
        <ele>605.77</ele>
        <time>2012-07-27T15:47:57Z</time>
      </trkpt>
      <trkpt lat="46.66072" lon="7.86483">
        <ele>609.61</ele>
        <time>2012-07-27T15:48:02Z</time>
      </trkpt>
      <trkpt lat="46.66057" lon="7.86399">
        <ele>612.5</ele>
        <time>2012-07-27T15:48:07Z</time>
      </trkpt>
      <trkpt lat="46.66043" lon="7.86366">
        <ele>612.5</ele>
        <time>2012-07-27T15:48:10Z</time>
      </trkpt>
      <trkpt lat="46.66029" lon="7.86363">
        <ele>612.98</ele>
        <time>2012-07-27T15:48:12Z</time>
      </trkpt>
      <trkpt lat="46.65389" lon="7.86785">
        <ele>613.46</ele>
        <time>2012-07-27T15:48:56Z</time>
      </trkpt>
      <trkpt lat="46.65193" lon="7.86942">
        <ele>614.9</ele>
        <time>2012-07-27T15:49:08Z</time>
      </trkpt>
      <trkpt lat="46.65168" lon="7.8698">
        <ele>615.86</ele>
        <time>2012-07-27T15:49:10Z</time>
      </trkpt>
      <trkpt lat="46.65092" lon="7.87122">
        <ele>613.94</ele>
        <time>2012-07-27T15:49:17Z</time>
      </trkpt>
      <trkpt lat="46.65068" lon="7.87144">
        <ele>615.38</ele>
        <time>2012-07-27T15:49:19Z</time>
      </trkpt>
      <trkpt lat="46.64969" lon="7.87161">
        <ele>619.23</ele>
        <time>2012-07-27T15:49:26Z</time>
      </trkpt>
      <trkpt lat="46.64808" lon="7.87307">
        <ele>626.92</ele>
        <time>2012-07-27T15:49:38Z</time>
      </trkpt>
      <trkpt lat="46.64702" lon="7.87356">
        <ele>632.2</ele>
        <time>2012-07-27T15:49:44Z</time>
      </trkpt>
      <trkpt lat="46.64614" lon="7.87423">
        <ele>634.13</ele>
        <time>2012-07-27T15:49:49Z</time>
      </trkpt>
      <trkpt lat="46.64534" lon="7.87492">
        <ele>635.57</ele>
        <time>2012-07-27T15:49:54Z</time>
      </trkpt>
      <trkpt lat="46.64482" lon="7.87586">
        <ele>637.97</ele>
        <time>2012-07-27T15:49:59Z</time>
      </trkpt>
      <trkpt lat="46.64459" lon="7.87681">
        <ele>641.34</ele>
        <time>2012-07-27T15:50:03Z</time>
      </trkpt>
      <trkpt lat="46.64426" lon="7.87757">
        <ele>643.26</ele>
        <time>2012-07-27T15:50:07Z</time>
      </trkpt>
      <trkpt lat="46.64338" lon="7.87816">
        <ele>648.55</ele>
        <time>2012-07-27T15:50:13Z</time>
      </trkpt>
      <trkpt lat="46.64343" lon="7.87853">
        <ele>648.55</ele>
        <time>2012-07-27T15:50:14Z</time>
      </trkpt>
      <trkpt lat="46.64257" lon="7.88051">
        <ele>648.07</ele>
        <time>2012-07-27T15:50:23Z</time>
      </trkpt>
      <trkpt lat="46.64119" lon="7.8846">
        <ele>649.99</ele>
        <time>2012-07-27T15:50:40Z</time>
      </trkpt>
      <trkpt lat="46.64051" lon="7.88538">
        <ele>649.99</ele>
        <time>2012-07-27T15:50:45Z</time>
      </trkpt>
      <trkpt lat="46.63915" lon="7.88621">
        <ele>652.87</ele>
        <time>2012-07-27T15:50:54Z</time>
      </trkpt>
      <trkpt lat="46.63892" lon="7.88653">
        <ele>652.87</ele>
        <time>2012-07-27T15:50:56Z</time>
      </trkpt>
      <trkpt lat="46.63827" lon="7.88779">
        <ele>650.95</ele>
        <time>2012-07-27T15:51:03Z</time>
      </trkpt>
      <trkpt lat="46.63754" lon="7.88851">
        <ele>653.35</ele>
        <time>2012-07-27T15:51:09Z</time>
      </trkpt>
      <trkpt lat="46.6366" lon="7.8904">
        <ele>655.28</ele>
        <time>2012-07-27T15:51:19Z</time>
      </trkpt>
      <trkpt lat="46.63667" lon="7.89091">
        <ele>655.76</ele>
        <time>2012-07-27T15:51:20Z</time>
      </trkpt>
      <trkpt lat="46.63631" lon="7.89297">
        <ele>654.31</ele>
        <time>2012-07-27T15:51:28Z</time>
      </trkpt>
      <trkpt lat="46.63614" lon="7.89329">
        <ele>654.8</ele>
        <time>2012-07-27T15:51:30Z</time>
      </trkpt>
      <trkpt lat="46.63563" lon="7.89372">
        <ele>657.2</ele>
        <time>2012-07-27T15:51:34Z</time>
      </trkpt>
      <trkpt lat="46.63412" lon="7.89426">
        <ele>658.16</ele>
        <time>2012-07-27T15:51:44Z</time>
      </trkpt>
      <trkpt lat="46.63346" lon="7.89545">
        <ele>661.52</ele>
        <time>2012-07-27T15:51:50Z</time>
      </trkpt>
      <trkpt lat="46.63059" lon="7.90028">
        <ele>664.89</ele>
        <time>2012-07-27T15:52:16Z</time>
      </trkpt>
      <trkpt lat="46.62994" lon="7.90135">
        <ele>663.93</ele>
        <time>2012-07-27T15:52:22Z</time>
      </trkpt>
      <trkpt lat="46.62959" lon="7.9017">
        <ele>663.93</ele>
        <time>2012-07-27T15:52:25Z</time>
      </trkpt>
      <trkpt lat="46.62759" lon="7.90229">
        <ele>670.18</ele>
        <time>2012-07-27T15:52:37Z</time>
      </trkpt>
      <trkpt lat="46.62478" lon="7.90397">
        <ele>677.39</ele>
        <time>2012-07-27T15:52:56Z</time>
      </trkpt>
      <trkpt lat="46.62229" lon="7.90338">
        <ele>682.19</ele>
        <time>2012-07-27T15:53:10Z</time>
      </trkpt>
      <trkpt lat="46.61984" lon="7.902">
        <ele>694.21</ele>
        <time>2012-07-27T15:53:26Z</time>
      </trkpt>
      <trkpt lat="46.61756" lon="7.90214">
        <ele>708.63</ele>
        <time>2012-07-27T15:53:42Z</time>
      </trkpt>
      <trkpt lat="46.6159" lon="7.90174">
        <ele>719.68</ele>
        <time>2012-07-27T15:53:53Z</time>
      </trkpt>
      <trkpt lat="46.61531" lon="7.90161">
        <ele>723.05</ele>
        <time>2012-07-27T15:53:57Z</time>
      </trkpt>
      <trkpt lat="46.61504" lon="7.90181">
        <ele>724.49</ele>
        <time>2012-07-27T15:53:59Z</time>
      </trkpt>
      <trkpt lat="46.61463" lon="7.90244">
        <ele>726.89</ele>
        <time>2012-07-27T15:54:03Z</time>
      </trkpt>
      <trkpt lat="46.61428" lon="7.90266">
        <ele>729.3</ele>
        <time>2012-07-27T15:54:06Z</time>
      </trkpt>
      <trkpt lat="46.61414" lon="7.90268">
        <ele>729.78</ele>
        <time>2012-07-27T15:54:07Z</time>
      </trkpt>
      <trkpt lat="46.61278" lon="7.90216">
        <ele>731.22</ele>
        <time>2012-07-27T15:54:17Z</time>
      </trkpt>
      <trkpt lat="46.60983" lon="7.90261">
        <ele>735.07</ele>
        <time>2012-07-27T15:54:34Z</time>
      </trkpt>
      <trkpt lat="46.60783" lon="7.90255">
        <ele>734.58</ele>
        <time>2012-07-27T15:54:45Z</time>
      </trkpt>
      <trkpt lat="46.60649" lon="7.90275">
        <ele>734.58</ele>
        <time>2012-07-27T15:54:52Z</time>
      </trkpt>
      <trkpt lat="46.60764" lon="7.90486">
        <ele>733.62</ele>
        <time>2012-07-27T15:54:54Z</time>
      </trkpt>
      <trkpt lat="46.60691" lon="7.90572">
        <ele>736.03</ele>
        <time>2012-07-27T15:55:02Z</time>
      </trkpt>
      <trkpt lat="46.60626" lon="7.90532">
        <ele>738.91</ele>
        <time>2012-07-27T15:55:08Z</time>
      </trkpt>
      <trkpt lat="46.60592" lon="7.9054">
        <ele>742.28</ele>
        <time>2012-07-27T15:55:11Z</time>
      </trkpt>
      <trkpt lat="46.60571" lon="7.90535">
        <ele>742.76</ele>
        <time>2012-07-27T15:55:12Z</time>
      </trkpt>
      <trkpt lat="46.604" lon="7.90615">
        <ele>757.18</ele>
        <time>2012-07-27T15:55:24Z</time>
      </trkpt>
      <trkpt lat="46.60233" lon="7.9065">
        <ele>768.71</ele>
        <time>2012-07-27T15:55:35Z</time>
      </trkpt>
      <trkpt lat="46.60097" lon="7.90623">
        <ele>776.88</ele>
        <time>2012-07-27T15:55:44Z</time>
      </trkpt>
      <trkpt lat="46.59992" lon="7.90652">
        <ele>783.61</ele>
        <time>2012-07-27T15:55:52Z</time>
      </trkpt>
      <trkpt lat="46.59952" lon="7.90692">
        <ele>787.46</ele>
        <time>2012-07-27T15:55:56Z</time>
      </trkpt>
      <trkpt lat="46.59891" lon="7.90763">
        <ele>791.3</ele>
        <time>2012-07-27T15:56:03Z</time>
      </trkpt>
      <trkpt lat="46.59867" lon="7.90762">
        <ele>792.26</ele>
        <time>2012-07-27T15:56:05Z</time>
      </trkpt>
      <trkpt lat="46.5976" lon="7.90737">
        <ele>795.63</ele>
        <time>2012-07-27T15:56:16Z</time>
      </trkpt>
      <trkpt lat="46.59709" lon="7.90757">
        <ele>798.99</ele>
        <time>2012-07-27T15:56:22Z</time>
      </trkpt>
      <trkpt lat="46.59601" lon="7.90742">
        <ele>802.84</ele>
        <time>2012-07-27T15:56:33Z</time>
      </trkpt>
      <trkpt lat="46.59464" lon="7.9074">
        <ele>803.8</ele>
        <time>2012-07-27T15:56:47Z</time>
      </trkpt>
      <trkpt lat="46.59375" lon="7.90722">
        <ele>799.95</ele>
        <time>2012-07-27T15:56:57Z</time>
      </trkpt>
      <trkpt lat="46.59158" lon="7.9074">
        <ele>793.22</ele>
        <time>2012-07-27T15:57:26Z</time>
      </trkpt>
      <trkpt lat="46.59105" lon="7.90727">
        <ele>790.34</ele>
        <time>2012-07-27T15:57:35Z</time>
      </trkpt>
      <trkpt lat="46.58972" lon="7.90791">
        <ele>793.71</ele>
        <time>2012-07-27T15:57:55Z</time>
      </trkpt>
      <trkpt lat="46.58873" lon="7.90802">
        <ele>793.22</ele>
        <time>2012-07-27T15:58:10Z</time>
      </trkpt>
      <trkpt lat="46.5886" lon="7.908">
        <ele>792.26</ele>
        <time>2012-07-27T15:58:15Z</time>
      </trkpt>
      <trkpt lat="46.58856" lon="7.90847">
        <ele>789.86</ele>
        <time>2012-07-27T15:58:44Z</time>
      </trkpt>
      <trkpt lat="46.58812" lon="7.90924">
        <ele>784.09</ele>
        <time>2012-07-27T15:59:01Z</time>
      </trkpt>
      <trkpt lat="46.58878" lon="7.90934">
        <ele>786.98</ele>
        <time>2012-07-27T16:06:12Z</time>
      </trkpt>
      <trkpt lat="46.58866" lon="7.90943">
        <ele>787.94</ele>
        <time>2012-07-27T16:06:19Z</time>
      </trkpt>
      <trkpt lat="46.5876" lon="7.91001">
        <ele>774.48</ele>
        <time>2012-07-27T17:44:24Z</time>
      </trkpt>
      <trkpt lat="46.58765" lon="7.90982">
        <ele>800.44</ele>
        <time>2012-07-27T17:48:56Z</time>
      </trkpt>
      <trkpt lat="46.58847" lon="7.90911">
        <ele>799.47</ele>
        <time>2012-07-27T18:54:49Z</time>
      </trkpt>
      <trkpt lat="46.58853" lon="7.90899">
        <ele>794.67</ele>
        <time>2012-07-27T19:34:40Z</time>
      </trkpt>
      <trkpt lat="46.58847" lon="7.90912">
        <ele>795.63</ele>
        <time>2012-07-27T19:35:58Z</time>
      </trkpt>
    </trkseg>
  </trk>
</gpx>